[[{"header":{"parameterUnit":"m.s-1","parameterCategory":1,"la1":31.0,"la2":29.5877,"lo1":-88.7671,"lo2":-86.6584,"dy":0.0162,"dx":0.0185,"nx":115,"ny":88,"refTime":"2023-06-08T18:00:00:Z","depth":0,"parameterNumber":2,"parameterNumberName":"U-component_of_WINDS"},"data":[0.0,0.0,0.0,0.0,0.0,0.0,0.0,0.0,0.0,0.0,0.0,0.0,0.0,0.0,0.0,0.0,0.0,0.0,0.0,0.0,0.0,0.0,0.0,0.0,0.0,0.0,0.0,0.0,0.0,0.0,0.0,0.0,0.0,0.0,0.0,0.0,0.0,0.0,0.0,0.0,0.0,0.0,0.0,0.0,0.0,0.0,0.0,0.0,0.0,0.0,0.0,0.0,0.0,0.0,0.0,0.0,0.0,0.0,0.0,0.0,0.0,0.0,0.0,0.0,0.0,0.0,0.0,0.0,0.0,0.0,0.0,0.0,0.0,0.0,0.0,0.0,0.0,0.0,0.0,0.0,0.0,0.0,0.0,0.0,0.0,0.0,0.0,0.0,0.0,0.0,0.0,0.0,0.0,0.0,0.0,0.0,0.0,0.0,0.0,0.0,0.0,0.0,0.0,0.0,0.0,0.0,0.0,0.0,0.0,0.0,0.0,0.0,0.0,0.0,0.0,0.0,0.0,0.0,0.0,0.0,0.0,0.0,0.0,0.0,0.0,0.0,0.0,0.0,0.0,0.0,0.0,0.0,0.0,0.0,0.0,0.0,0.0,0.0,0.0,0.0,0.0,0.0,0.0,0.0,0.0,0.0,0.0,0.0,0.0,0.0,0.0,0.0,0.0,0.0,0.0,0.0,0.0,0.0,0.0,0.0,0.0,0.0,0.0,0.0,0.0,0.0,0.0,0.0,0.0,0.0,0.0,0.0,0.0,0.0,0.0,0.0,0.0,0.0,0.0,0.0,0.0,0.0,0.0,0.0,0.0,0.0,0.0,0.0,0.0,0.0,0.0,0.0,0.0,0.0,0.0,0.0,0.0,0.0,0.0,0.0,0.0,0.0,0.0,0.0,0.0,0.0,0.0,0.0,0.0,0.0,0.0,0.0,0.0,0.0,0.0,0.0,0.0,0.0,0.0,0.0,0.0,0.0,0.0,0.0,0.0,0.0,0.0,0.0,0.0,0.0,0.0,0.0,0.0,0.0,0.0,0.0,0.0,0.0,0.0,0.0,0.0,0.0,0.0,0.0,0.0,0.0,0.0,0.0,0.0,0.0,0.0,0.0,0.0,0.0,0.0,0.0,0.0,0.0,0.0,0.0,0.0,0.0,0.0,0.0,0.0,0.0,0.0,0.0,0.0,0.0,0.0,0.0,0.0,0.0,0.0,0.0,0.0,0.0,0.0,0.0,0.0,0.0,0.0,0.0,0.0,0.0,0.0,0.0,0.0,0.0,0.0,0.0,0.0,0.0,0.0,0.0,0.0,0.0,0.0,0.0,0.0,0.0,0.0,0.0,0.0,0.0,0.0,0.0,0.0,0.0,0.0,0.0,0.0,0.0,0.0,0.0,0.0,0.0,0.0,0.0,0.0,0.0,0.0,0.0,0.0,0.0,0.0,0.0,0.0,0.0,0.0,0.0,0.0,0.0,0.0,0.0,0.0,0.0,0.0,0.0,0.0,0.0,0.0,0.0,0.0,0.0,0.0,0.0,0.0,0.0,0.0,0.0,0.0,0.0,0.0,0.0,0.0,0.0,0.0,0.0,0.0,0.0,0.0,0.0,0.0,0.0,0.0,0.0,0.0,0.0,0.0,0.0,0.0,0.0,0.0,0.0,0.0,0.0,0.0,0.0,0.0,0.0,0.0,0.0,0.0,0.0,0.0,0.0,0.0,0.0,0.0,0.0,0.0,0.0,0.0,0.0,0.0,0.0,0.0,0.0,0.0,0.0,0.0,0.0,0.0,0.0,0.0,0.0,0.0,0.0,0.0,0.0,0.0,0.0,0.0,0.0,0.0,0.0,0.0,0.0,0.0,0.0,0.0,0.0,0.0,0.0,0.0,0.0,0.0,0.0,0.0,0.0,0.0,0.0,0.0,0.0,0.0,0.0,0.0,0.0,0.0,0.0,0.0,0.0,0.0,0.0,0.0,0.0,0.0,0.0,0.0,0.0,0.0,0.0,0.0,0.0,0.0,0.0,0.0,0.0,0.0,0.0,0.0,0.0,0.0,0.0,0.0,0.0,0.0,0.0,0.0,0.0,0.0,0.0,0.0,0.0,0.0,0.0,0.0,0.0,0.0,0.0,0.0,0.0,0.0,0.0,0.0,0.0,0.0,0.0,0.0,0.0,0.0,0.0,0.0,0.0,0.0,0.0,0.0,0.0,0.0,0.0,0.0,0.0,0.0,0.0,0.0,0.0,0.0,0.0,0.0,0.0,0.0,0.0,0.0,0.0,0.0,0.0,0.0,0.0,0.0,0.0,0.0,0.0,0.0,0.0,0.0,0.0,0.0,0.0,0.0,0.0,0.0,0.0,0.0,0.0,0.0,0.0,0.0,0.0,0.0,0.0,0.0,0.0,0.0,0.0,0.0,0.0,0.0,0.0,0.0,0.0,0.0,0.0,0.0,0.0,0.0,0.0,0.0,0.0,0.0,0.0,0.0,0.0,0.0,0.0,0.0,0.0,0.0,0.0,0.0,0.0,0.0,0.0,0.0,0.0,0.0,0.0,0.0,0.0,0.0,0.0,0.0,0.0,0.0,0.0,0.0,0.0,0.0,0.0,0.0,0.0,0.0,0.0,0.0,0.0,0.0,0.0,0.0,0.0,0.0,0.0,0.0,0.0,0.0,0.0,0.0,0.0,0.0,0.0,0.0,0.0,0.0,0.0,0.0,0.0,0.0,0.0,0.0,0.0,0.0,0.0,0.0,0.0,0.0,0.0,0.0,0.0,0.0,0.0,0.0,0.0,0.0,0.0,0.0,0.0,0.0,0.0,0.0,0.0,0.0,0.0,0.0,0.0,0.0,0.0,0.0,0.0,0.0,0.0,0.0,0.0,0.0,0.0,0.0,0.0,0.0,0.0,0.0,0.0,0.0,0.0,0.0,0.0,0.0,0.0,0.0,0.0,0.0,0.0,0.0,0.0,0.0,0.0,0.0,0.0,0.0,0.0,0.0,0.0,0.0,0.0,0.0,0.0,0.0,0.0,0.0,0.0,0.0,0.0,0.0,0.0,0.0,0.0,0.0,0.0,0.0,0.0,0.0,0.0,0.0,0.0,0.0,0.0,0.0,0.0,0.0,0.0,0.0,0.0,0.0,0.0,0.0,0.0,0.0,0.0,0.0,0.0,0.0,0.0,0.0,0.0,0.0,0.0,0.0,0.0,0.0,0.0,0.0,0.0,0.0,0.0,0.0,0.0,0.0,0.0,0.0,0.0,0.0,0.0,0.0,0.0,0.0,0.0,0.0,0.0,0.0,0.0,0.0,0.0,0.0,0.0,0.0,0.0,0.0,0.0,0.0,0.0,0.0,0.0,0.0,0.0,0.0,0.0,0.0,0.0,0.0,0.0,0.0,0.0,0.0,0.0,0.0,0.0,0.0,0.0,0.0,0.0,0.0,0.0,0.0,0.0,0.0,0.0,0.0,0.0,0.0,0.0,0.0,0.0,0.0,0.0,0.0,0.0,0.0,0.0,0.0,0.0,0.0,0.0,0.0,0.0,0.0,0.0,0.0,0.0,0.0,0.0,0.0,0.0,0.0,0.0,0.0,0.0,0.0,0.0,0.0,0.0,0.0,0.0,0.0,0.0,0.0,0.0,0.0,0.0,0.0,0.0,0.0,0.0,0.0,0.0,0.0,0.0,0.0,0.0,0.0,0.0,0.0,0.0,0.0,0.0,0.0,0.0,0.0,0.0,0.0,0.0,0.0,0.0,0.0,0.0,0.0,0.0,0.0,0.0,0.0,0.0,0.0,0.0,0.0,0.0,0.0,0.0,0.0,0.0,0.0,0.0,0.0,0.0,0.0,0.0,0.0,0.0,0.0,0.0,0.0,0.0,0.0,0.0,0.0,0.0,0.0,0.0,0.0,0.0,0.0,0.0,0.0,0.0,0.0,0.0,0.0,0.0,0.0,0.0,0.0,0.0,0.0,0.0,0.0,0.0,0.0,0.0,0.0,0.0,0.0,0.0,0.0,0.0,0.0,0.0,0.0,0.0,0.0,0.0,0.0,0.0,0.0,0.0,0.0,0.0,0.0,0.0,0.0,0.0,0.0,0.0,0.0,0.0,0.0,0.0,0.0,0.0,0.0,0.0,0.0,0.0,0.0,0.0,0.0,0.0,0.0,0.0,0.0,0.0,0.0,0.0,0.0,0.0,0.0,0.0,0.0,0.0,0.0,0.0,0.0,0.0,0.0,0.0,0.0,0.0,0.0,0.0,0.0,0.0,-2.7329,0.0,0.0,0.0,0.0,0.0,0.0,0.0,0.0,0.0,0.0,0.0,0.0,0.0,0.0,0.0,0.0,0.0,0.0,0.0,0.0,0.0,0.0,0.0,0.0,0.0,0.0,0.0,0.0,0.0,0.0,0.0,0.0,0.0,0.0,0.0,0.0,0.0,0.0,0.0,0.0,0.0,0.0,0.0,0.0,0.0,0.0,0.0,0.0,0.0,0.0,0.0,0.0,0.0,0.0,0.0,0.0,0.0,0.0,0.0,0.0,0.0,0.0,0.0,0.0,0.0,0.0,0.0,0.0,0.0,0.0,0.0,0.0,0.0,0.0,0.0,0.0,0.0,0.0,0.0,0.0,0.0,0.0,0.0,0.0,0.0,0.0,0.0,0.0,0.0,0.0,0.0,0.0,0.0,0.0,0.0,0.0,0.0,0.0,0.0,0.0,0.0,0.0,0.0,0.0,0.0,0.0,0.0,0.0,0.0,0.0,-2.804,-2.7333,-2.7315,-2.7315,-2.7315,0.0,0.0,0.0,0.0,0.0,0.0,0.0,0.0,0.0,0.0,0.0,0.0,0.0,0.0,0.0,0.0,0.0,0.0,0.0,0.0,0.0,0.0,0.0,0.0,0.0,0.0,0.0,0.0,0.0,0.0,0.0,0.0,0.0,0.0,0.0,0.0,0.0,0.0,0.0,0.0,0.0,0.0,0.0,0.0,0.0,0.0,0.0,0.0,0.0,0.0,0.0,0.0,0.0,0.0,0.0,0.0,0.0,0.0,0.0,0.0,0.0,0.0,0.0,0.0,0.0,0.0,0.0,0.0,0.0,0.0,0.0,0.0,0.0,0.0,0.0,0.0,0.0,0.0,0.0,0.0,0.0,0.0,0.0,0.0,0.0,0.0,0.0,0.0,0.0,0.0,0.0,0.0,0.0,0.0,0.0,0.0,0.0,0.0,0.0,0.0,0.0,0.0,0.0,0.0,0.0,0.0,0.0,0.0,0.0,0.0,0.0,0.0,-2.7401,-2.7315,-2.7315,0.0,0.0,0.0,0.0,0.0,0.0,0.0,0.0,0.0,0.0,0.0,0.0,0.0,0.0,0.0,0.0,0.0,0.0,0.0,0.0,0.0,0.0,0.0,0.0,0.0,0.0,0.0,0.0,0.0,0.0,0.0,0.0,0.0,0.0,0.0,0.0,0.0,0.0,0.0,0.0,0.0,0.0,0.0,0.0,0.0,0.0,0.0,0.0,0.0,0.0,0.0,0.0,0.0,0.0,0.0,0.0,0.0,0.0,0.0,0.0,0.0,0.0,0.0,0.0,0.0,0.0,0.0,0.0,0.0,0.0,0.0,0.0,0.0,0.0,0.0,0.0,0.0,0.0,0.0,0.0,0.0,0.0,0.0,0.0,0.0,0.0,0.0,0.0,0.0,0.0,0.0,0.0,0.0,0.0,0.0,0.0,0.0,0.0,0.0,0.0,0.0,0.0,0.0,0.0,0.0,0.0,0.0,0.0,0.0,0.0,-2.9058,-2.8316,-2.7644,0.0,-2.7315,0.0,0.0,0.0,0.0,0.0,0.0,0.0,0.0,0.0,0.0,0.0,0.0,0.0,0.0,0.0,0.0,0.0,0.0,0.0,0.0,0.0,0.0,0.0,0.0,0.0,0.0,0.0,0.0,0.0,0.0,0.0,0.0,0.0,0.0,0.0,0.0,0.0,0.0,0.0,0.0,0.0,0.0,0.0,0.0,0.0,0.0,0.0,0.0,0.0,0.0,0.0,0.0,0.0,0.0,0.0,0.0,0.0,0.0,0.0,0.0,0.0,0.0,0.0,0.0,0.0,0.0,0.0,0.0,0.0,0.0,0.0,0.0,0.0,0.0,0.0,0.0,0.0,0.0,0.0,0.0,0.0,0.0,0.0,0.0,0.0,0.0,0.0,0.0,0.0,0.0,0.0,0.0,0.0,0.0,0.0,0.0,0.0,0.0,0.0,0.0,0.0,0.0,0.0,0.0,0.0,0.0,0.0,0.0,0.0,0.0,-2.9627,-2.8437,-2.7678,-2.7315,0.0,0.0,0.0,0.0,0.0,0.0,0.0,0.0,0.0,0.0,0.0,0.0,0.0,0.0,0.0,0.0,0.0,0.0,0.0,0.0,0.0,0.0,0.0,0.0,0.0,0.0,0.0,0.0,0.0,0.0,0.0,0.0,0.0,0.0,0.0,0.0,0.0,0.0,0.0,0.0,0.0,0.0,0.0,0.0,0.0,0.0,0.0,0.0,0.0,0.0,0.0,0.0,0.0,0.0,0.0,0.0,0.0,0.0,0.0,0.0,0.0,0.0,0.0,0.0,0.0,0.0,0.0,0.0,0.0,0.0,0.0,0.0,0.0,0.0,0.0,0.0,0.0,0.0,0.0,0.0,0.0,0.0,0.0,0.0,0.0,0.0,0.0,0.0,0.0,0.0,0.0,0.0,0.0,0.0,0.0,0.0,0.0,0.0,0.0,0.0,0.0,0.0,0.0,0.0,0.0,0.0,0.0,0.0,0.0,0.0,-3.08,-2.9955,-2.8472,-2.7885,-2.7506,-2.7332,0.0,0.0,0.0,0.0,0.0,0.0,0.0,0.0,0.0,0.0,0.0,0.0,0.0,0.0,0.0,0.0,0.0,0.0,0.0,0.0,0.0,0.0,0.0,0.0,0.0,0.0,0.0,0.0,0.0,0.0,0.0,0.0,0.0,0.0,0.0,0.0,0.0,0.0,0.0,0.0,0.0,0.0,0.0,0.0,0.0,0.0,0.0,0.0,0.0,0.0,0.0,0.0,0.0,0.0,0.0,0.0,0.0,0.0,0.0,0.0,0.0,0.0,0.0,0.0,0.0,0.0,0.0,0.0,0.0,0.0,0.0,0.0,0.0,0.0,0.0,0.0,0.0,0.0,0.0,0.0,0.0,0.0,0.0,0.0,0.0,0.0,0.0,0.0,0.0,0.0,0.0,0.0,0.0,0.0,0.0,0.0,0.0,0.0,0.0,0.0,0.0,0.0,0.0,0.0,0.0,0.0,0.0,0.0,-3.1714,-3.1058,-2.9955,-2.8489,-2.8351,-2.8023,0.0,0.0,0.0,0.0,0.0,0.0,0.0,0.0,0.0,0.0,0.0,0.0,0.0,0.0,0.0,0.0,0.0,0.0,0.0,0.0,0.0,0.0,0.0,0.0,0.0,0.0,0.0,0.0,0.0,0.0,0.0,0.0,0.0,0.0,0.0,0.0,0.0,0.0,0.0,0.0,0.0,0.0,0.0,0.0,0.0,0.0,0.0,0.0,0.0,0.0,0.0,0.0,0.0,0.0,0.0,0.0,0.0,0.0,0.0,0.0,0.0,0.0,0.0,0.0,0.0,0.0,0.0,0.0,0.0,0.0,0.0,0.0,0.0,0.0,0.0,0.0,0.0,0.0,0.0,0.0,0.0,0.0,0.0,0.0,0.0,0.0,0.0,0.0,0.0,0.0,0.0,0.0,0.0,0.0,0.0,0.0,0.0,0.0,0.0,0.0,0.0,0.0,0.0,0.0,0.0,0.0,0.0,0.0,0.0,-3.1765,-3.1058,-3.0179,-2.9144,-2.8644,-2.8058,0.0,0.0,0.0,0.0,0.0,0.0,0.0,0.0,0.0,0.0,0.0,0.0,0.0,0.0,0.0,0.0,0.0,0.0,0.0,0.0,0.0,0.0,0.0,0.0,0.0,0.0,0.0,0.0,0.0,0.0,0.0,0.0,0.0,0.0,0.0,0.0,0.0,0.0,0.0,0.0,0.0,0.0,0.0,0.0,0.0,0.0,0.0,0.0,0.0,0.0,0.0,0.0,0.0,0.0,0.0,0.0,0.0,0.0,0.0,0.0,0.0,0.0,0.0,0.0,0.0,0.0,0.0,0.0,0.0,0.0,0.0,0.0,0.0,0.0,0.0,0.0,0.0,0.0,0.0,0.0,0.0,0.0,0.0,0.0,0.0,0.0,0.0,0.0,0.0,0.0,0.0,0.0,0.0,0.0,0.0,0.0,0.0,0.0,0.0,0.0,0.0,0.0,0.0,0.0,0.0,0.0,0.0,0.0,0.0,-3.1765,0.0,-3.0662,-2.992,-2.9403,-2.8799,0.0,0.0,0.0,0.0,0.0,0.0,0.0,0.0,0.0,0.0,0.0,0.0,0.0,0.0,0.0,0.0,0.0,0.0,0.0,0.0,0.0,0.0,0.0,0.0,0.0,0.0,0.0,0.0,0.0,0.0,0.0,0.0,0.0,0.0,0.0,0.0,0.0,0.0,0.0,0.0,0.0,0.0,0.0,0.0,0.0,0.0,0.0,0.0,0.0,0.0,0.0,0.0,0.0,0.0,0.0,0.0,0.0,0.0,0.0,0.0,0.0,0.0,0.0,0.0,0.0,0.0,0.0,0.0,0.0,0.0,0.0,0.0,0.0,0.0,0.0,0.0,0.0,0.0,0.0,0.0,0.0,0.0,0.0,0.0,0.0,0.0,0.0,0.0,0.0,0.0,0.0,0.0,0.0,0.0,0.0,0.0,0.0,0.0,0.0,0.0,0.0,0.0,0.0,0.0,0.0,0.0,0.0,0.0,-3.18,-3.18,-3.1783,-3.1386,-3.0731,-3.0645,-3.0265,0.0,0.0,0.0,0.0,0.0,0.0,0.0,0.0,0.0,0.0,0.0,0.0,0.0,0.0,0.0,0.0,0.0,0.0,0.0,0.0,0.0,0.0,0.0,0.0,0.0,0.0,0.0,0.0,0.0,0.0,0.0,0.0,0.0,0.0,0.0,0.0,0.0,0.0,0.0,0.0,0.0,0.0,0.0,0.0,0.0,0.0,0.0,0.0,0.0,0.0,0.0,0.0,0.0,0.0,0.0,0.0,0.0,0.0,0.0,0.0,0.0,0.0,0.0,0.0,0.0,0.0,0.0,0.0,0.0,0.0,0.0,0.0,0.0,0.0,0.0,0.0,0.0,0.0,0.0,0.0,0.0,0.0,0.0,0.0,0.0,0.0,0.0,0.0,0.0,0.0,0.0,0.0,0.0,0.0,0.0,0.0,0.0,0.0,0.0,0.0,0.0,0.0,0.0,0.0,0.0,0.0,0.0,0.0,0.0,-3.18,-3.18,-3.1455,-3.0748,-3.0714,-3.0317,0.0,0.0,0.0,0.0,0.0,0.0,0.0,0.0,0.0,0.0,0.0,0.0,0.0,0.0,0.0,0.0,0.0,0.0,0.0,0.0,0.0,0.0,0.0,0.0,0.0,0.0,0.0,0.0,0.0,0.0,0.0,0.0,0.0,0.0,0.0,0.0,0.0,0.0,0.0,0.0,0.0,0.0,0.0,0.0,0.0,0.0,0.0,0.0,0.0,0.0,0.0,0.0,0.0,0.0,0.0,0.0,0.0,0.0,0.0,0.0,0.0,0.0,0.0,0.0,0.0,0.0,0.0,0.0,0.0,0.0,0.0,0.0,0.0,0.0,0.0,0.0,0.0,0.0,0.0,0.0,0.0,0.0,0.0,0.0,0.0,0.0,0.0,0.0,0.0,0.0,0.0,0.0,0.0,0.0,0.0,0.0,0.0,0.0,0.0,0.0,0.0,0.0,0.0,0.0,0.0,0.0,0.0,0.0,0.0,-3.18,-3.18,-3.1576,-3.1127,-3.1128,-3.0886,-3.0386,0.0,0.0,0.0,0.0,0.0,0.0,0.0,0.0,0.0,0.0,0.0,0.0,0.0,0.0,0.0,0.0,0.0,0.0,0.0,0.0,0.0,0.0,0.0,0.0,0.0,0.0,0.0,0.0,0.0,0.0,0.0,0.0,0.0,0.0,0.0,0.0,0.0,0.0,0.0,0.0,0.0,0.0,0.0,0.0,0.0,0.0,0.0,0.0,0.0,0.0,0.0,0.0,0.0,0.0,0.0,0.0,0.0,0.0,0.0,0.0,0.0,0.0,0.0,0.0,0.0,0.0,0.0,0.0,0.0,0.0,0.0,0.0,0.0,0.0,0.0,0.0,0.0,0.0,0.0,0.0,0.0,0.0,0.0,0.0,0.0,0.0,0.0,0.0,0.0,0.0,0.0,0.0,0.0,0.0,0.0,0.0,0.0,0.0,0.0,0.0,0.0,0.0,0.0,0.0,0.0,0.0,0.0,0.0,-3.18,-3.18,-3.18,-3.1783,-3.1783,-3.18,0.0,0.0,0.0,0.0,0.0,0.0,0.0,0.0,0.0,0.0,0.0,0.0,0.0,0.0,0.0,0.0,0.0,0.0,0.0,0.0,0.0,0.0,0.0,0.0,0.0,0.0,0.0,0.0,0.0,0.0,0.0,0.0,0.0,0.0,0.0,0.0,0.0,0.0,0.0,0.0,0.0,0.0,0.0,0.0,0.0,0.0,0.0,0.0,0.0,0.0,0.0,0.0,0.0,0.0,0.0,0.0,0.0,0.0,0.0,0.0,0.0,0.0,0.0,0.0,0.0,0.0,0.0,0.0,0.0,0.0,0.0,0.0,0.0,0.0,0.0,0.0,0.0,0.0,0.0,0.0,0.0,0.0,0.0,0.0,0.0,0.0,0.0,0.0,0.0,0.0,0.0,0.0,0.0,0.0,0.0,0.0,0.0,0.0,0.0,0.0,0.0,0.0,0.0,0.0,0.0,0.0,0.0,0.0,0.0,-3.18,-3.18,-3.18,-3.18,-3.18,-3.18,0.0,0.0,0.0,0.0,0.0,0.0,0.0,0.0,0.0,0.0,0.0,0.0,0.0,0.0,0.0,0.0,0.0,0.0,0.0,0.0,0.0,0.0,0.0,0.0,0.0,0.0,0.0,0.0,0.0,0.0,0.0,0.0,0.0,0.0,0.0,0.0,0.0,0.0,0.0,0.0,0.0,0.0,0.0,0.0,0.0,0.0,0.0,0.0,0.0,0.0,0.0,0.0,0.0,0.0,0.0,0.0,0.0,0.0,0.0,0.0,0.0,0.0,0.0,0.0,0.0,0.0,0.0,0.0,0.0,0.0,0.0,0.0,0.0,0.0,0.0,0.0,0.0,0.0,0.0,0.0,0.0,0.0,0.0,0.0,0.0,0.0,0.0,0.0,0.0,0.0,0.0,0.0,0.0,0.0,0.0,0.0,0.0,0.0,0.0,0.0,0.0,0.0,0.0,0.0,0.0,0.0,0.0,0.0,-3.18,-3.18,-3.18,-3.18,-3.18,-3.18,-3.18,0.0,0.0,0.0,0.0,0.0,0.0,0.0,0.0,0.0,0.0,0.0,0.0,0.0,0.0,0.0,0.0,0.0,0.0,0.0,0.0,0.0,0.0,0.0,0.0,0.0,0.0,0.0,0.0,0.0,0.0,0.0,0.0,0.0,0.0,0.0,0.0,0.0,0.0,0.0,0.0,0.0,0.0,0.0,0.0,0.0,0.0,0.0,0.0,0.0,0.0,0.0,0.0,0.0,0.0,0.0,0.0,0.0,0.0,0.0,0.0,0.0,0.0,0.0,0.0,0.0,0.0,0.0,0.0,0.0,0.0,0.0,0.0,0.0,0.0,0.0,0.0,0.0,0.0,0.0,0.0,0.0,0.0,0.0,0.0,0.0,0.0,0.0,0.0,0.0,0.0,0.0,0.0,0.0,0.0,0.0,0.0,0.0,0.0,0.0,0.0,0.0,0.0,0.0,0.0,0.0,0.0,0.0,0.0,-3.18,-3.18,-3.18,-3.18,-3.18,-3.18,-3.18,0.0,0.0,0.0,0.0,0.0,0.0,0.0,0.0,0.0,0.0,0.0,0.0,0.0,0.0,0.0,0.0,0.0,0.0,0.0,0.0,0.0,0.0,0.0,0.0,0.0,0.0,0.0,0.0,0.0,0.0,0.0,0.0,0.0,0.0,0.0,0.0,0.0,0.0,0.0,0.0,0.0,0.0,0.0,0.0,0.0,0.0,0.0,0.0,0.0,0.0,0.0,0.0,0.0,0.0,0.0,0.0,0.0,0.0,0.0,0.0,0.0,0.0,0.0,0.0,0.0,0.0,0.0,0.0,0.0,0.0,0.0,0.0,0.0,0.0,0.0,0.0,0.0,0.0,0.0,0.0,0.0,0.0,0.0,0.0,0.0,0.0,0.0,0.0,0.0,0.0,0.0,0.0,0.0,0.0,0.0,0.0,0.0,0.0,0.0,0.0,0.0,0.0,0.0,0.0,0.0,0.0,0.0,0.0,-3.18,-3.18,-3.18,-3.18,-3.18,-3.18,-3.18,0.0,0.0,0.0,0.0,0.0,0.0,0.0,0.0,0.0,0.0,0.0,0.0,0.0,0.0,0.0,0.0,0.0,0.0,0.0,0.0,0.0,0.0,0.0,0.0,0.0,0.0,0.0,0.0,0.0,0.0,0.0,0.0,0.0,0.0,0.0,0.0,0.0,0.0,0.0,0.0,0.0,0.0,0.0,0.0,0.0,0.0,0.0,0.0,-3.1439,0.0,0.0,0.0,0.0,0.0,0.0,0.0,0.0,0.0,0.0,0.0,0.0,0.0,0.0,0.0,0.0,0.0,0.0,0.0,0.0,0.0,0.0,0.0,0.0,0.0,0.0,0.0,0.0,0.0,0.0,0.0,0.0,0.0,0.0,0.0,0.0,0.0,0.0,0.0,0.0,0.0,0.0,0.0,0.0,0.0,0.0,0.0,0.0,0.0,0.0,0.0,0.0,0.0,0.0,0.0,0.0,0.0,0.0,0.0,-3.18,-3.18,-3.18,-3.18,-3.18,-3.18,-3.18,0.0,0.0,0.0,0.0,0.0,0.0,0.0,0.0,0.0,0.0,0.0,0.0,0.0,0.0,0.0,0.0,0.0,0.0,0.0,0.0,0.0,0.0,0.0,0.0,0.0,0.0,0.0,0.0,0.0,0.0,0.0,0.0,0.0,0.0,0.0,0.0,0.0,0.0,0.0,0.0,0.0,0.0,0.0,0.0,0.0,0.0,0.0,0.0,0.0,0.0,0.0,0.0,0.0,0.0,0.0,0.0,0.0,0.0,0.0,0.0,0.0,0.0,0.0,0.0,0.0,0.0,0.0,0.0,0.0,0.0,0.0,0.0,0.0,0.0,0.0,0.0,0.0,0.0,0.0,0.0,0.0,0.0,0.0,0.0,0.0,0.0,0.0,0.0,0.0,0.0,0.0,0.0,0.0,0.0,0.0,0.0,0.0,0.0,0.0,0.0,0.0,0.0,0.0,0.0,0.0,0.0,0.0,-3.18,-3.18,-3.18,-3.18,-3.18,-3.18,-3.18,-3.18,-3.18,0.0,0.0,0.0,0.0,0.0,0.0,0.0,0.0,0.0,0.0,0.0,0.0,0.0,0.0,0.0,0.0,0.0,0.0,0.0,0.0,0.0,0.0,0.0,0.0,0.0,0.0,0.0,0.0,0.0,0.0,0.0,0.0,0.0,0.0,0.0,0.0,0.0,0.0,-3.0672,-3.1278,0.0,0.0,0.0,0.0,0.0,0.0,0.0,0.0,-3.2902,0.0,0.0,0.0,0.0,0.0,0.0,0.0,0.0,0.0,0.0,0.0,0.0,0.0,0.0,0.0,0.0,0.0,0.0,0.0,0.0,0.0,0.0,0.0,0.0,0.0,0.0,0.0,0.0,0.0,0.0,0.0,0.0,0.0,0.0,0.0,0.0,0.0,0.0,0.0,0.0,0.0,0.0,0.0,0.0,0.0,0.0,0.0,0.0,0.0,0.0,0.0,0.0,0.0,0.0,0.0,0.0,-3.18,-3.18,-3.18,-3.18,-3.18,-3.18,-3.18,-3.18,-3.18,-3.18,0.0,0.0,0.0,0.0,0.0,0.0,0.0,0.0,0.0,0.0,0.0,0.0,0.0,0.0,0.0,0.0,0.0,0.0,0.0,0.0,0.0,0.0,0.0,0.0,0.0,0.0,0.0,0.0,0.0,0.0,0.0,0.0,0.0,0.0,0.0,0.0,0.0,0.0,0.0,-3.1617,-3.1974,0.0,0.0,0.0,0.0,0.0,0.0,0.0,0.0,-3.2805,0.0,0.0,0.0,0.0,0.0,0.0,0.0,0.0,0.0,0.0,0.0,0.0,0.0,0.0,0.0,0.0,0.0,0.0,0.0,0.0,0.0,0.0,0.0,0.0,0.0,0.0,0.0,0.0,0.0,0.0,0.0,0.0,0.0,0.0,0.0,0.0,0.0,0.0,0.0,0.0,0.0,0.0,0.0,0.0,0.0,0.0,0.0,0.0,0.0,0.0,0.0,0.0,0.0,0.0,0.0,-3.18,-3.1727,-3.1709,-3.1673,-3.169,-3.169,-3.169,-3.1781,-3.18,0.0,0.0,0.0,0.0,0.0,0.0,0.0,0.0,0.0,0.0,0.0,0.0,0.0,0.0,0.0,0.0,0.0,0.0,0.0,0.0,0.0,0.0,0.0,0.0,0.0,0.0,0.0,0.0,0.0,0.0,0.0,0.0,0.0,0.0,0.0,0.0,0.0,0.0,0.0,0.0,-3.2268,-3.2376,-3.2684,0.0,0.0,0.0,0.0,0.0,0.0,-3.2722,-3.269,0.0,0.0,0.0,0.0,0.0,0.0,0.0,0.0,0.0,0.0,0.0,0.0,0.0,0.0,0.0,0.0,0.0,0.0,0.0,0.0,0.0,0.0,0.0,0.0,0.0,0.0,0.0,0.0,0.0,0.0,0.0,0.0,0.0,0.0,0.0,0.0,0.0,0.0,0.0,0.0,0.0,0.0,0.0,0.0,0.0,0.0,0.0,0.0,0.0,0.0,0.0,0.0,0.0,0.0,0.0,-3.1744,-3.1634,-3.1596,-3.1578,-3.1578,-3.1578,-3.1596,-3.1671,-3.1744,0.0,0.0,0.0,0.0,0.0,0.0,0.0,0.0,0.0,0.0,0.0,0.0,0.0,0.0,0.0,0.0,0.0,0.0,0.0,0.0,0.0,0.0,0.0,0.0,0.0,0.0,0.0,0.0,0.0,0.0,0.0,0.0,0.0,0.0,0.0,0.0,0.0,0.0,0.0,0.0,0.0,-3.2722,-3.2622,-3.2588,0.0,0.0,0.0,0.0,-3.2588,-3.2589,0.0,0.0,0.0,0.0,0.0,0.0,0.0,0.0,0.0,0.0,0.0,0.0,0.0,0.0,0.0,0.0,0.0,0.0,0.0,0.0,0.0,0.0,0.0,0.0,0.0,0.0,0.0,0.0,0.0,0.0,0.0,0.0,0.0,0.0,0.0,0.0,0.0,0.0,0.0,0.0,0.0,0.0,0.0,0.0,0.0,0.0,0.0,0.0,0.0,0.0,0.0,0.0,0.0,0.0,0.0,0.0,-3.1536,-3.1536,-3.1517,-3.1517,-3.1517,-3.15,-3.1517,-3.1536,-3.154,0.0,0.0,0.0,0.0,0.0,0.0,0.0,0.0,0.0,0.0,0.0,0.0,0.0,0.0,0.0,0.0,0.0,0.0,0.0,0.0,0.0,0.0,0.0,0.0,0.0,0.0,0.0,0.0,0.0,0.0,0.0,0.0,0.0,0.0,0.0,0.0,0.0,0.0,0.0,0.0,0.0,-3.2622,-3.2588,-3.2588,-3.2588,0.0,0.0,-3.2588,-3.2588,-3.2557,0.0,0.0,0.0,0.0,0.0,0.0,0.0,0.0,0.0,0.0,0.0,0.0,0.0,0.0,0.0,0.0,0.0,0.0,0.0,0.0,0.0,0.0,0.0,0.0,0.0,0.0,0.0,0.0,0.0,0.0,0.0,0.0,0.0,0.0,0.0,0.0,0.0,0.0,0.0,0.0,0.0,0.0,0.0,0.0,0.0,0.0,0.0,0.0,0.0,0.0,0.0,0.0,0.0,0.0,0.0,-3.1481,-3.1498,-3.1443,-3.137,-3.1387,-3.1387,-3.1387,-3.137,-3.1462,-3.1517,0.0,0.0,0.0,0.0,0.0,0.0,0.0,0.0,0.0,0.0,0.0,0.0,0.0,0.0,0.0,0.0,0.0,0.0,0.0,0.0,0.0,0.0,0.0,0.0,0.0,0.0,0.0,0.0,0.0,0.0,0.0,0.0,0.0,0.0,0.0,0.0,0.0,0.0,0.0,0.0,0.0,0.0,-3.2507,-3.249,0.0,0.0,0.0,-3.2473,-3.249,0.0,0.0,0.0,0.0,0.0,0.0,0.0,0.0,0.0,0.0,0.0,0.0,0.0,0.0,0.0,0.0,0.0,0.0,0.0,0.0,0.0,0.0,0.0,0.0,0.0,0.0,0.0,0.0,0.0,0.0,0.0,0.0,0.0,0.0,0.0,0.0,0.0,0.0,0.0,0.0,0.0,0.0,0.0,0.0,0.0,0.0,0.0,0.0,0.0,0.0,0.0,0.0,0.0,0.0,0.0,0.0,0.0,-3.1404,-3.1329,-3.1274,-3.1293,-3.1274,-3.1293,-3.1274,-3.1349,0.0,0.0,0.0,0.0,0.0,0.0,0.0,0.0,0.0,0.0,0.0,0.0,0.0,0.0,0.0,0.0,0.0,0.0,0.0,0.0,0.0,0.0,0.0,0.0,0.0,0.0,0.0,-3.115,0.0,0.0,0.0,0.0,0.0,0.0,0.0,0.0,0.0,0.0,0.0,0.0,0.0,0.0,-3.2474,-3.2405,-3.2406,-3.2406,0.0,0.0,-3.2406,-3.2406,-3.2406,-3.2406,0.0,0.0,0.0,0.0,0.0,0.0,0.0,0.0,0.0,0.0,0.0,0.0,0.0,0.0,0.0,0.0,0.0,0.0,0.0,0.0,0.0,0.0,0.0,0.0,0.0,0.0,0.0,0.0,0.0,0.0,0.0,0.0,0.0,0.0,0.0,0.0,0.0,0.0,0.0,0.0,0.0,0.0,0.0,0.0,0.0,0.0,0.0,0.0,0.0,0.0,0.0,0.0,0.0,0.0,-3.121,-3.121,-3.121,-3.1227,-3.121,-3.121,-3.121,-3.1193,-3.121,-3.1252,0.0,0.0,0.0,0.0,0.0,0.0,0.0,0.0,0.0,0.0,0.0,0.0,0.0,0.0,0.0,0.0,0.0,0.0,0.0,0.0,0.0,0.0,0.0,0.0,0.0,0.0,0.0,0.0,0.0,0.0,0.0,0.0,0.0,0.0,0.0,0.0,0.0,0.0,0.0,0.0,0.0,-3.2423,-3.2406,-3.2406,-3.2406,0.0,-3.2406,-3.2406,-3.2406,-3.2406,-3.2406,-3.2406,0.0,0.0,0.0,0.0,0.0,0.0,0.0,0.0,0.0,0.0,0.0,0.0,0.0,0.0,0.0,0.0,0.0,0.0,0.0,0.0,0.0,0.0,0.0,0.0,0.0,0.0,0.0,0.0,0.0,0.0,0.0,0.0,0.0,0.0,0.0,0.0,0.0,0.0,0.0,0.0,0.0,0.0,0.0,0.0,0.0,0.0,0.0,0.0,0.0,0.0,0.0,0.0,0.0,-3.141,-3.187,-3.187,-3.1887,-3.1887,-3.1887,-3.1667,-3.1207,-3.119,-3.121,0.0,0.0,0.0,0.0,0.0,0.0,0.0,0.0,0.0,0.0,0.0,0.0,0.0,0.0,0.0,0.0,0.0,0.0,0.0,0.0,0.0,0.0,0.0,0.0,0.0,0.0,0.0,0.0,-3.1912,-3.2019,-3.209,0.0,0.0,0.0,0.0,0.0,0.0,0.0,0.0,0.0,0.0,-3.2406,-3.2406,-3.2406,0.0,0.0,-3.2406,-3.2406,-3.2406,-3.2406,-3.2406,-3.2406,-3.2406,0.0,0.0,0.0,0.0,0.0,0.0,0.0,0.0,0.0,0.0,0.0,0.0,0.0,0.0,0.0,0.0,0.0,0.0,0.0,0.0,0.0,0.0,0.0,0.0,0.0,0.0,0.0,0.0,0.0,0.0,0.0,0.0,0.0,0.0,0.0,0.0,0.0,0.0,0.0,0.0,0.0,0.0,0.0,0.0,0.0,0.0,0.0,0.0,0.0,0.0,0.0,0.0,-3.2104,-3.2611,-3.2611,-3.2632,-3.2649,-3.2412,-3.2056,-3.1546,-3.1328,-3.119,0.0,0.0,0.0,0.0,0.0,0.0,0.0,0.0,0.0,0.0,0.0,0.0,0.0,0.0,0.0,0.0,0.0,0.0,0.0,0.0,0.0,0.0,0.0,0.0,0.0,0.0,0.0,0.0,-3.1838,-3.1912,-3.2037,0.0,0.0,0.0,0.0,0.0,0.0,0.0,0.0,0.0,0.0,-3.2406,-3.2406,-3.2406,-3.2406,-3.2406,-3.2406,-3.2406,-3.2406,-3.2406,-3.2476,-3.2704,0.0,0.0,0.0,0.0,0.0,0.0,0.0,0.0,0.0,0.0,0.0,0.0,0.0,0.0,0.0,0.0,0.0,0.0,0.0,0.0,0.0,0.0,0.0,0.0,0.0,0.0,0.0,0.0,0.0,0.0,-3.0539,0.0,0.0,0.0,0.0,0.0,0.0,0.0,0.0,0.0,0.0,0.0,0.0,0.0,0.0,0.0,0.0,0.0,0.0,0.0,0.0,0.0,0.0,-3.3355,-3.3368,-3.3389,-3.3372,-3.3372,-3.2699,-3.2327,-3.2242,-3.1579,-3.1207,-3.119,0.0,0.0,0.0,0.0,0.0,0.0,0.0,0.0,0.0,0.0,0.0,0.0,0.0,0.0,0.0,0.0,0.0,0.0,0.0,0.0,0.0,0.0,0.0,0.0,0.0,0.0,-3.18,-3.18,-3.1819,0.0,0.0,0.0,0.0,0.0,0.0,0.0,0.0,0.0,0.0,-3.2406,-3.2406,-3.2423,-3.2423,-3.2459,-3.2441,-3.2441,-3.2441,-3.2458,-3.2441,-3.2651,0.0,0.0,0.0,0.0,0.0,0.0,0.0,0.0,0.0,0.0,0.0,0.0,0.0,0.0,0.0,0.0,0.0,0.0,0.0,0.0,0.0,0.0,0.0,0.0,0.0,0.0,0.0,-3.1951,-3.1967,0.0,0.0,0.0,0.0,0.0,0.0,0.0,0.0,0.0,0.0,0.0,-3.1967,-3.226,0.0,0.0,0.0,0.0,0.0,0.0,0.0,0.0,0.0,0.0,0.0,0.0,-3.366,-3.4117,-3.4134,-3.4117,-3.4134,-3.388,-3.3309,-3.2327,-3.2056,-3.1701,-3.1207,0.0,0.0,0.0,0.0,0.0,0.0,0.0,0.0,0.0,0.0,0.0,0.0,0.0,0.0,0.0,0.0,0.0,0.0,0.0,0.0,0.0,0.0,0.0,0.0,0.0,-3.18,0.0,0.0,0.0,0.0,0.0,0.0,0.0,0.0,0.0,0.0,0.0,-3.2196,-3.2196,-3.2615,-3.2929,-3.2947,-3.3383,-3.3731,0.0,0.0,0.0,0.0,0.0,0.0,0.0,0.0,0.0,0.0,0.0,0.0,0.0,0.0,-3.2664,-3.2231,-3.2108,-3.209,-3.209,0.0,0.0,0.0,0.0,0.0,0.0,0.0,0.0,0.0,0.0,0.0,0.0,0.0,0.0,-3.2685,0.0,-3.2685,0.0,0.0,0.0,0.0,0.0,0.0,0.0,0.0,-3.2685,-3.2685,-3.2702,-3.2967,-3.31,0.0,-3.341,-3.3611,0.0,0.0,0.0,0.0,0.0,0.0,0.0,0.0,-3.4421,-3.4861,-3.4895,-3.4878,-3.4861,-3.4624,-3.4037,-3.3089,-3.2564,-3.1955,-3.1224,-3.119,-3.119,0.0,0.0,0.0,0.0,0.0,0.0,0.0,0.0,0.0,0.0,0.0,0.0,0.0,0.0,0.0,0.0,0.0,0.0,0.0,0.0,0.0,0.0,0.0,-3.18,0.0,0.0,0.0,0.0,0.0,0.0,0.0,0.0,0.0,-3.2523,-3.2716,-3.2891,-3.2908,-3.3326,-3.3621,-3.3621,0.0,0.0,0.0,0.0,0.0,0.0,0.0,-3.4588,-3.4926,-3.4887,-3.4936,-3.5233,-3.4979,-3.4501,-3.3685,0.0,0.0,-3.2141,-3.2019,-3.1983,-3.2018,-3.2,-3.2036,-3.2161,-3.2161,-3.2197,0.0,0.0,0.0,0.0,0.0,0.0,0.0,0.0,-3.2801,-3.2818,0.0,-3.2818,0.0,0.0,0.0,0.0,0.0,-3.2801,0.0,0.0,-3.2818,-3.2785,-3.2851,-3.3491,-3.3822,-3.3872,-3.4535,-3.4873,-3.4807,-3.3667,0.0,0.0,0.0,0.0,0.0,0.0,-3.5583,-3.5566,-3.5583,-3.56,-3.5566,-3.4912,-3.4523,-3.4443,-3.3072,-3.1972,-3.1275,-3.1224,-3.119,-3.119,-3.1092,0.0,0.0,0.0,0.0,0.0,0.0,0.0,0.0,0.0,0.0,0.0,0.0,0.0,0.0,0.0,0.0,0.0,0.0,0.0,0.0,-3.18,0.0,0.0,0.0,0.0,0.0,0.0,0.0,0.0,0.0,0.0,-3.328,-3.3859,-3.4384,-3.4366,0.0,0.0,0.0,0.0,-3.4471,-3.4488,-3.4471,-3.4488,-3.4488,-3.4471,-3.4733,-3.5431,0.0,0.0,-3.6525,-3.5977,-3.5151,-3.4337,-3.3515,-3.2734,-3.2032,-3.1839,-3.1818,-3.1818,-3.1818,-3.1856,-3.2037,-3.2108,-3.2144,-3.4899,0.0,0.0,0.0,0.0,-3.4352,-3.427,-3.4293,-3.427,-3.4293,-3.4253,-3.4253,0.0,0.0,0.0,0.0,0.0,0.0,-3.4253,-3.4253,-3.4253,-3.427,-3.427,-3.4468,-3.4584,-3.4601,-3.4783,-3.4899,-3.4883,-3.4539,-3.4432,-3.4564,0.0,0.0,0.0,0.0,-3.5566,-3.56,-3.5616,-3.5616,-3.56,-3.538,-3.5047,-3.4527,-3.3072,-3.2209,-3.1989,-3.1461,-3.1134,-3.1072,-3.1015,0.0,0.0,0.0,0.0,0.0,0.0,0.0,0.0,0.0,0.0,0.0,0.0,0.0,0.0,0.0,0.0,0.0,0.0,0.0,-3.18,-3.18,-3.2007,0.0,0.0,0.0,0.0,0.0,0.0,0.0,0.0,0.0,-3.4636,-3.4362,-3.4172,0.0,0.0,-3.4967,-3.4967,-3.5417,-3.5762,-3.5762,-3.5762,0.0,-3.5882,-3.5902,-3.5992,-3.6316,-3.6275,-3.6263,-3.6371,-3.6191,-3.5638,-3.4377,-3.3943,-3.3354,-3.213,-3.1818,-3.18,-3.18,-3.18,-3.1873,-3.2055,-3.209,-3.2161,-3.5514,-3.5168,-3.4967,-3.4875,-3.4828,-3.4811,-3.4804,-3.4739,-3.4739,-3.478,-3.4811,-3.4828,-3.4851,-3.4899,-3.4899,0.0,0.0,0.0,-3.4899,-3.4899,-3.4899,-3.4899,-3.4899,-3.4899,-3.4899,-3.4899,-3.4899,-3.4899,-3.4899,-3.4899,-3.4947,-3.5018,0.0,0.0,-3.5423,-3.5423,-3.5452,-3.5549,-3.5571,-3.5571,-3.5583,-3.5616,-3.5228,-3.4506,-3.3647,-3.2903,-3.231,-3.183,-3.1378,-3.1012,-3.0932,-3.1005,0.0,0.0,0.0,0.0,0.0,0.0,0.0,0.0,0.0,0.0,0.0,-3.2644,-3.1995,0.0,0.0,0.0,-3.1764,-3.18,-3.18,-3.2059,0.0,0.0,0.0,0.0,0.0,0.0,0.0,-3.4507,-3.518,-3.5645,-3.5628,-3.5249,-3.4956,-3.4993,-3.5373,-3.5645,-3.5628,0.0,-3.6284,-3.6284,-3.6284,-3.6322,-3.6402,-3.6423,-3.6444,-3.6523,-3.6482,-3.6402,-3.6322,-3.6284,-3.5766,-3.4527,-3.4096,-3.3613,-3.2076,-3.18,-3.18,-3.18,-3.18,-3.1856,-3.2055,-3.209,-3.2161,-3.6385,-3.5636,-3.5242,-3.4903,-3.4691,-3.4683,-3.4594,-3.4497,-3.4497,-3.457,-3.4683,-3.4683,-3.4763,-3.4875,-3.4883,0.0,-3.4899,-3.4899,-3.4899,-3.4899,-3.4899,-3.4899,-3.4899,-3.4899,-3.4899,-3.4899,-3.4899,-3.4899,-3.4899,-3.4899,-3.4932,-3.4982,-3.5117,-3.5202,-3.5285,-3.5268,-3.5354,-3.5508,-3.5492,-3.552,-3.56,-3.5616,-3.5261,-3.4607,-3.4523,-3.3846,-3.2547,-3.2289,-3.1873,-3.1211,-3.0978,-3.1191,-3.1853,0.0,0.0,0.0,0.0,0.0,0.0,0.0,0.0,0.0,0.0,0.0,0.0,0.0,0.0,0.0,-3.1862,0.0,-3.1954,-3.2574,0.0,0.0,0.0,-3.4217,-3.4286,-3.4852,-3.5283,-3.5266,0.0,0.0,-3.6284,-3.6284,-3.6284,-3.6284,-3.6284,-3.6284,-3.6284,-3.6266,-3.6284,-3.6284,-3.6284,-3.6284,-3.6305,-3.6305,-3.6305,-3.6305,-3.6284,-3.6301,-3.6301,-3.6284,-3.5697,-3.4493,-3.4148,-3.3645,-3.2163,-3.1886,-3.18,-3.18,-3.18,-3.1838,-3.2037,-3.209,-3.2161,-3.6544,-3.6364,-3.6235,-3.5571,-3.4562,-3.4546,-3.4521,-3.4497,-3.448,-3.4521,-3.4529,-3.4546,-3.4618,-3.4739,-3.4835,-3.4899,-3.4899,-3.4899,-3.4899,-3.4899,-3.4899,-3.4899,-3.4899,-3.4899,-3.4899,-3.4899,-3.4899,-3.4899,-3.4899,-3.4899,-3.5181,-3.5727,-3.5768,-3.5559,-3.5168,-3.5135,-3.5222,-3.5337,-3.5446,-3.552,-3.56,-3.5616,-3.5515,-3.5329,-3.4793,-3.4341,-3.3981,-3.3317,-3.2858,-3.2622,-3.2455,-3.2413,-3.2475,-3.3166,0.0,0.0,0.0,0.0,0.0,0.0,0.0,0.0,0.0,-3.3909,-3.3383,0.0,-3.3315,0.0,-3.3231,-3.3291,-3.3387,-3.3562,0.0,0.0,-3.4818,-3.5163,-3.5714,-3.5939,-3.6042,-3.6042,-3.6197,-3.6284,-3.6284,-3.6284,-3.6284,-3.6284,-3.6284,-3.6284,-3.6284,-3.6284,-3.6284,-3.6284,-3.6284,-3.6284,-3.6284,-3.6284,-3.6284,-3.6284,-3.6284,-3.6284,-3.6284,-3.6284,-3.599,-3.5094,-3.4458,-3.3749,-3.28,-3.2196,-3.1834,-3.18,-3.18,-3.1873,-3.2072,-3.209,-3.2161,-3.7269,-3.6906,-3.6906,-3.6287,-3.5319,-3.5337,-3.5328,-3.5286,-3.496,-3.4864,-3.4897,-3.4677,-3.4618,-3.4691,-3.4828,-3.4899,-3.4899,-3.4899,-3.4899,-3.4899,-3.4899,-3.4899,-3.4916,-3.523,-3.5379,-3.5396,-3.5711,-3.5876,-3.5893,-3.5876,-3.6092,-3.6489,-3.6489,-3.6315,-3.6007,-3.599,-3.6046,-3.6183,-3.6008,-3.5788,-3.5566,-3.5549,-3.5571,-3.5583,-3.5194,-3.4827,-3.4506,-3.3965,-3.3482,-3.3131,-3.2907,-3.2929,-3.316,-3.358,-3.3938,0.0,0.0,0.0,0.0,0.0,0.0,0.0,0.0,0.0,0.0,0.0,-3.3846,-3.3673,-3.368,-3.3741,-3.3802,-3.4148,-3.4545,-3.5019,-3.5383,-3.5727,-3.622,-3.6255,-3.6276,-3.6301,-3.6284,-3.6284,-3.6284,-3.6284,-3.6284,-3.6284,-3.6284,-3.6284,-3.6284,-3.6284,-3.6284,-3.6284,-3.6284,-3.6284,-3.6284,-3.6284,-3.6284,-3.6284,-3.6284,-3.6284,-3.6284,-3.6284,-3.6059,-3.5318,-3.4614,-3.3835,-3.3059,-3.23,-3.1817,-3.18,-3.18,-3.1892,-3.2055,-3.209,-3.2161,-3.8131,-3.7441,-3.7425,-3.7085,-3.6578,-3.6637,-3.6512,-3.6254,-3.5606,-3.5393,-3.5489,-3.5095,-3.4939,-3.4987,-3.5109,-3.5157,-3.5181,-3.5181,-3.5181,-3.5181,-3.5181,-3.5164,-3.5197,-3.5843,-3.6141,-3.6174,-3.6804,-3.7119,-3.7119,-3.7119,-3.7152,-3.7251,-3.7251,-3.7301,-3.7384,-3.7384,-3.7352,-3.7295,-3.6684,-3.6142,-3.5643,-3.5542,-3.552,-3.56,-3.5616,-3.5318,-3.4675,-3.4438,-3.4058,-3.3411,-3.3145,-3.3259,-3.3912,-3.3922,-3.422,0.0,-3.4899,0.0,0.0,0.0,0.0,0.0,0.0,0.0,0.0,-3.4426,-3.4262,-3.3867,-3.3887,-3.3949,-3.3953,-3.4605,-3.5019,-3.5074,-3.5604,-3.6058,-3.6144,-3.6182,-3.6208,-3.6297,-3.628,-3.628,-3.6284,-3.6284,-3.6284,-3.6284,-3.6284,-3.6284,-3.6284,-3.6284,-3.6284,-3.6284,-3.6284,-3.6284,-3.6284,-3.6284,-3.6284,-3.6284,-3.6284,-3.6284,-3.6284,-3.6284,-3.6094,-3.5456,-3.48,-3.4024,-3.3197,-3.2472,-3.1938,-3.1817,-3.18,-3.1873,-3.2037,-3.209,-3.2179,-3.8339,-3.8181,-3.8197,-3.8116,-3.8003,-3.8015,-3.7383,-3.6303,-3.6157,-3.6119,-3.6129,-3.6098,-3.6163,-3.6317,-3.6461,-3.6588,-3.6688,-3.6688,-3.6688,-3.6688,-3.6688,-3.6688,-3.6704,-3.6837,-3.6903,-3.6903,-3.7011,-3.7119,-3.7119,-3.7119,-3.7417,-3.798,-3.7996,-3.8295,-3.8868,0.0,0.0,0.0,-3.6587,-3.6257,-3.6286,-3.5795,-3.552,-3.56,-3.5616,0.0,-3.5397,-3.5194,-3.5006,-3.4889,-3.4625,0.0,0.0,0.0,0.0,0.0,0.0,0.0,0.0,0.0,0.0,0.0,-3.497,-3.4998,-3.5113,-3.5103,-3.5115,-3.5116,-3.5161,-3.5233,-3.5392,-3.5533,-3.5679,-3.5788,-3.5912,-3.6019,-3.6041,-3.6019,-3.6101,-3.6208,-3.6208,-3.6251,-3.628,-3.6284,-3.6284,-3.6284,-3.6284,-3.6284,-3.6284,-3.6284,-3.6284,-3.6284,-3.6284,-3.6284,-3.6284,-3.6284,-3.6284,-3.6284,-3.6284,-3.6284,-3.6284,-3.6284,-3.6284,-3.6025,-3.5511,-3.4731,-3.399,-3.3231,-3.2472,-3.1903,-3.18,-3.1873,-3.2055,-3.209,-3.2144,-3.8391,0.0,-3.8391,-3.8391,0.0,-3.8391,-3.8003,-3.7307,-3.6967,-3.661,-3.6319,-3.6377,-3.6519,-3.6718,-3.6847,-3.6975,-3.7119,-3.7119,-3.7119,-3.7119,-3.7119,-3.7119,-3.7119,-3.7457,-3.7649,-3.7682,-3.7996,-3.8179,-3.8179,-3.8179,-3.8377,-3.8725,-3.8742,-3.8907,-3.9299,-3.9315,-3.8795,-3.7725,-3.702,-3.6546,-3.6339,-3.5723,-3.5469,-3.5566,-3.5577,0.0,0.0,0.0,0.0,0.0,0.0,0.0,0.0,-3.4899,0.0,-3.4899,-3.4899,-3.4899,-3.4899,-3.4899,-3.4899,-3.4899,-3.4899,-3.497,-3.5198,-3.5268,-3.5331,-3.54,-3.5469,-3.552,-3.5633,-3.5684,-3.5751,-3.5783,-3.58,-3.5822,-3.5905,-3.5888,-3.5949,-3.6079,-3.6165,-3.6208,-3.6233,-3.6297,-3.6284,-3.6284,-3.6284,-3.6284,-3.6284,-3.6284,-3.6284,-3.6284,-3.6284,-3.6284,-3.6284,-3.6284,-3.6284,-3.6284,-3.6284,-3.6284,-3.6284,-3.6284,-3.6284,-3.6232,-3.5697,-3.4956,-3.4234,-3.3457,-3.2679,-3.2007,-3.18,-3.1873,-3.2055,-3.209,-3.2161,-3.8391,-3.8391,-3.8391,-3.8391,-3.8391,-3.8391,-3.8391,-3.8359,0.0,0.0,0.0,-3.6734,-3.6894,-3.7095,-3.7225,-3.7355,-3.75,-3.7483,-3.7483,-3.7483,-3.75,-3.7483,-3.7533,-3.8096,-3.8411,-3.8427,-3.9017,-3.9315,-3.9315,-3.9315,-3.9315,-3.9315,-3.9315,-3.9315,-3.9315,-3.9315,-3.895,-3.8212,-3.7483,-3.6854,-3.6404,-3.5649,-3.5354,-3.5492,-3.5549,-3.5577,-3.5583,-3.5412,-3.5308,-3.5291,-3.5041,-3.4899,-3.4899,-3.4899,-3.4899,-3.4899,-3.4899,-3.4899,-3.4899,-3.4899,-3.4899,-3.4899,-3.4899,-3.4947,-3.5041,-3.5175,-3.5245,-3.5268,-3.5377,-3.5446,-3.5492,-3.5566,-3.5577,-3.56,-3.5616,-3.5644,-3.5751,-3.5773,-3.5817,-3.5949,-3.6058,-3.6144,-3.6204,-3.6251,-3.628,-3.6284,-3.6284,-3.6284,-3.6284,-3.6284,-3.6284,-3.6284,-3.6284,-3.6284,-3.6284,-3.6284,-3.6284,-3.6284,-3.6284,-3.6284,-3.6284,-3.6284,-3.6284,-3.6284,-3.5766,-3.5094,-3.4286,-3.3593,-3.2817,-3.1955,-3.1801,-3.1892,-3.2054,-3.2126,-3.2179,-3.8408,-3.8391,-3.8391,-3.8391,-3.8391,-3.8391,-3.8391,-3.8391,-3.8294,-3.8181,-3.81,-3.824,-3.8362,-3.851,-3.8646,-3.8824,-3.9,-3.9,-3.9,-3.9,-3.8984,-3.9,-3.9,-3.91,-3.9149,-3.9166,-3.9249,-3.9315,-3.9315,-3.9315,-3.9315,-3.9315,-3.9315,-3.9315,-3.9315,-3.9315,-3.895,-3.8202,-3.7483,-3.7119,-3.7112,-3.5821,-3.5261,-3.5469,-3.5514,-3.5543,-3.56,-3.5429,-3.5308,-3.5308,-3.5041,-3.4899,-3.4899,-3.4899,-3.4899,-3.4899,-3.4899,-3.4899,-3.4899,-3.4899,-3.4899,-3.4899,-3.4899,-3.4899,-3.4923,-3.4947,-3.4994,-3.5111,-3.5152,-3.5245,-3.5469,-3.5514,-3.5543,-3.56,-3.5616,-3.5622,-3.5622,-3.5644,-3.5689,-3.5817,-3.5839,-3.5966,-3.6122,-3.6204,-3.6251,-3.628,-3.6284,-3.6284,-3.6284,-3.6284,-3.6284,-3.6284,-3.6284,-3.6284,-3.6284,-3.6284,-3.6284,-3.6284,-3.6266,-3.6197,-3.6197,-3.6128,-3.6111,-3.6249,-3.599,-3.5456,-3.4318,-3.4044,-3.3248,-3.2127,-3.182,-3.193,-3.209,-3.2144,-3.2214,-3.8764,-3.8408,-3.8391,-3.8391,-3.8391,-3.8391,-3.8448,-3.8504,-3.8504,-3.8504,-3.852,-3.8655,-3.8794,-3.8914,-3.8969,-3.9121,-3.9315,-3.9315,-3.9315,-3.9315,-3.9315,-3.9315,-3.9315,-3.9315,-3.9315,-3.9315,-3.9315,-3.9315,-3.9315,-3.9315,-3.9315,-3.9315,-3.9315,-3.9315,-3.9315,-3.9315,-3.895,-3.8202,-3.7483,-3.6928,-3.658,-3.563,-3.5198,-3.54,-3.5446,-3.5537,-3.5583,-3.5406,-3.5308,-3.5308,-3.5041,-3.4899,-3.4899,-3.4899,-3.4899,-3.4899,-3.4899,-3.4899,-3.4899,-3.4899,-3.4899,-3.4899,-3.4899,-3.4899,-3.4899,-3.4899,-3.4939,-3.4994,-3.5041,-3.5175,-3.5377,-3.5446,-3.5537,-3.5583,-3.5616,-3.5616,-3.5616,-3.5616,-3.5622,-3.5706,-3.5751,-3.5839,-3.5971,-3.6101,-3.6225,-3.6251,-3.6276,-3.6284,-3.6284,-3.6276,-3.6233,-3.6272,-3.6276,-3.6297,-3.6255,-3.628,-3.6284,-3.6284,-3.5956,-3.5732,-3.5663,-3.5439,-3.5163,-3.5111,-3.5094,-3.4663,-3.3647,-3.3438,-3.2921,-3.2198,-3.1857,-3.1948,-3.2073,-3.2214,-3.2319,-3.9072,-3.8408,-3.8391,-3.8391,-3.8408,-3.8436,-3.8504,-3.8588,-3.8655,-3.8699,-3.8683,-3.8805,-3.8914,-3.8996,-3.905,-3.9148,-3.9299,-3.9315,-3.9315,-3.9315,-3.9315,-3.9315,-3.9315,-3.9315,-3.9315,-3.9315,-3.9315,-3.9315,-3.9315,-3.9315,-3.9315,-3.9315,-3.9315,-3.9315,-3.9315,-3.9315,-3.8841,-3.798,-3.74,-3.6738,-3.6025,-3.5376,-3.5111,-3.5245,-3.54,-3.5498,-3.5571,-3.5429,-3.5314,-3.5308,-3.5081,-3.4906,-3.4899,-3.4899,-3.4899,-3.4899,-3.4899,-3.4899,-3.4899,-3.4899,-3.4899,-3.4899,-3.4899,-3.4899,-3.4899,-3.4899,-3.4899,-3.4923,-3.4994,-3.5128,-3.5268,-3.5383,-3.5498,-3.5577,-3.5616,-3.5616,-3.5616,-3.5616,-3.5616,-3.5622,-3.5706,-3.5773,-3.5839,-3.5971,-3.6118,-3.6144,-3.6191,-3.6233,-3.6216,-3.6187,-3.6144,-3.6122,-3.6187,-3.6233,-3.6187,-3.6044,-3.5983,-3.6021,-3.5421,-3.5025,-3.4852,-3.4438,-3.4162,-3.4217,-3.4182,-3.3869,-3.3145,-3.2921,-3.2628,-3.199,-3.1893,-3.2002,-3.2161,-3.2301,-3.2405,-3.9084,-3.844,-3.8391,-3.8391,-3.842,-3.8548,-3.8588,-3.8644,-3.8849,-3.8942,-3.8985,-3.8969,-3.8996,-3.904,-3.9175,-3.9272,-3.9315,-3.9315,-3.9315,-3.9315,-3.9315,-3.9315,-3.9315,-3.9315,-3.9315,-3.9315,-3.9315,-3.9315,-3.9315,-3.9315,-3.9315,-3.9315,-3.9315,-3.9315,-3.9315,-3.9315,-3.8593,-3.7251,-3.711,-3.6729,-3.6009,-3.5304,-3.497,-3.5111,-3.5245,-3.54,-3.5514,-3.5492,-3.5423,-3.5331,-3.5158,-3.5018,-3.4923,-3.4899,-3.4899,-3.4923,-3.4899,-3.4899,-3.4899,-3.4899,-3.4899,-3.4899,-3.4899,-3.4899,-3.4899,-3.4899,-3.4923,-3.4923,-3.4923,-3.5041,-3.5245,-3.5331,-3.5412,-3.5577,-3.5616,-3.5616,-3.5616,-3.5616,-3.5616,-3.5616,-3.5622,-3.5644,-3.5773,-3.5839,-3.5905,-3.6019,-3.6062,-3.6062,-3.6062,-3.6041,-3.5975,-3.5905,-3.5932,-3.6011,-3.6007,-3.5551,-3.5249,-3.5228,-3.468,-3.4286,-3.4148,-3.4096,-3.4061,-3.3628,-3.3906,-3.3578,-3.311,-3.2869,-3.2593,-3.2061,-3.1946,-3.2143,-3.2319,-3.2422,-3.2473,-3.9716,-3.8644,-3.8655,-3.8628,-3.8655,-3.8711,-3.8766,-3.8849,-3.8942,-3.9067,-3.9191,-3.9175,-3.9175,-3.9191,-3.9272,-3.9315,-3.9315,-3.9315,-3.9315,-3.9315,-3.9315,-3.9315,-3.9315,-3.9315,-3.9315,-3.9315,-3.9315,-3.9315,-3.9315,-3.9315,-3.9315,-3.9315,-3.9315,-3.9315,-3.9315,-3.9315,-3.8801,-3.7781,-3.7317,-3.6754,-3.6009,-3.528,-3.497,-3.5088,-3.5222,-3.5377,-3.5469,-3.5492,-3.5486,-3.5406,-3.5291,-3.5198,-3.5135,-3.5065,-3.5001,-3.5018,-3.4947,-3.4899,-3.4899,-3.4899,-3.4899,-3.4899,-3.4899,-3.4899,-3.4899,-3.4987,-3.5018,-3.5018,-3.5018,-3.5088,-3.5268,-3.536,-3.5475,-3.5577,-3.5616,-3.5616,-3.5616,-3.5616,-3.5616,-3.5616,-3.5616,-3.5622,-3.5667,-3.5751,-3.5861,-3.5993,-3.5997,-3.5997,-3.5997,-3.5932,-3.5861,-3.5766,-3.546,-3.5219,-3.5318,-3.484,-3.449,-3.4364,-3.3886,-3.3404,-3.3352,-3.2955,-3.2714,-3.2766,-3.2835,-3.2766,-3.2317,-3.2248,-3.2093,-3.1855,-3.1982,-3.2161,-3.2371,-3.2439,-3.2489,-4.0132,-3.8903,-3.8805,-3.8805,-3.8805,-3.8832,-3.8914,-3.8996,-3.905,-3.9175,-3.9315,-3.9315,-3.9315,-3.9315,-3.9315,-3.9315,-3.9315,-3.9315,-3.9315,-3.9315,-3.9315,-3.9315,-3.9315,-3.9315,-3.9315,-3.9315,-3.9315,-3.9315,-3.9315,-3.9315,-3.9315,-3.9315,-3.9315,-3.9315,-3.9315,-3.9315,-3.8924,-3.8212,-3.7483,-3.6754,-3.6009,-3.528,-3.493,-3.5041,-3.5222,-3.5354,-3.5446,-3.5475,-3.5498,-3.5492,-3.5423,-3.5354,-3.5308,-3.5182,-3.5152,-3.5105,-3.5018,-3.4947,-3.4923,-3.4899,-3.4899,-3.4899,-3.4923,-3.497,-3.497,-3.5065,-3.5152,-3.5135,-3.5175,-3.5268,-3.5337,-3.5446,-3.552,-3.5616,-3.5616,-3.5616,-3.5616,-3.5616,-3.5616,-3.5616,-3.5616,-3.5616,-3.5622,-3.5667,-3.5773,-3.5844,-3.5888,-3.5888,-3.5888,-3.58,-3.5683,-3.5445,-3.4718,-3.4478,-3.4703,-3.409,-3.3765,-3.3554,-3.311,-3.261,-3.2593,-3.2076,-3.1817,-3.2231,-3.1903,-3.1834,-3.1955,-3.1869,-3.1872,-3.191,-3.2018,-3.2179,-3.2371,-3.2456,-3.254,-4.0132,-3.8887,-3.8821,-3.8805,-3.8805,-3.8942,-3.8996,-3.9023,-3.9218,-3.9299,-3.9315,-3.9315,-3.9315,-3.9315,-3.9315,-3.9315,-3.9315,-3.9315,-3.9315,-3.9315,-3.9315,-3.9315,-3.9315,-3.9315,-3.9315,-3.9315,-3.9315,-3.9315,-3.9315,-3.9315,-3.9315,-3.9315,-3.9315,-3.9315,-3.9315,-3.9315,-3.895,-3.8295,-3.75,-3.6771,-3.6025,-3.5297,-3.4899,-3.4947,-3.5175,-3.5314,-3.5354,-3.5487,-3.5571,-3.5492,-3.5492,-3.5446,-3.5331,-3.5291,-3.5222,-3.5128,-3.5088,-3.5058,-3.4947,-3.4923,-3.4923,-3.4923,-3.5034,-3.5105,-3.5105,-3.5222,-3.5291,-3.5291,-3.5383,-3.5469,-3.5492,-3.5498,-3.5543,-3.5616,-3.5616,-3.5616,-3.5616,-3.5616,-3.5616,-3.5616,-3.5616,-3.5616,-3.5616,-3.5616,-3.5639,-3.5644,-3.5644,-3.5644,-3.5667,-3.5622,-3.5351,-3.473,-3.4121,-3.3795,-3.4482,-3.3604,-3.288,-3.2792,-3.249,-3.1938,-3.1869,-3.18,-3.18,-3.18,-3.18,-3.18,-3.18,-3.1837,-3.191,-3.1982,-3.2037,-3.2196,-3.2354,-3.2489,-3.2573,-4.0441,-3.9137,-3.9121,-3.9121,-3.9121,-3.9191,-3.9175,-3.9202,-3.9272,-3.9315,-3.9315,-3.9315,-3.9315,-3.9315,-3.9315,-3.9315,-3.9315,-3.9315,-3.9315,-3.9315,-3.9315,-3.9315,-3.9315,-3.9315,-3.9315,-3.9315,-3.9315,-3.9315,-3.9315,-3.9315,-3.9315,-3.9315,-3.9315,-3.9315,-3.9315,-3.9315,-3.9149,-3.8808,-3.7731,-3.697,-3.6622,-3.5528,-3.4899,-3.4923,-3.5175,-3.5308,-3.5308,-3.5503,-3.5577,-3.5571,-3.5571,-3.5549,-3.5503,-3.5452,-3.536,-3.5245,-3.5222,-3.5182,-3.5158,-3.5135,-3.5152,-3.5175,-3.5198,-3.5222,-3.5245,-3.5337,-3.5406,-3.5446,-3.552,-3.5571,-3.5588,-3.5571,-3.5554,-3.56,-3.5616,-3.5616,-3.5616,-3.5616,-3.5616,-3.5616,-3.5616,-3.5616,-3.5616,-3.5616,-3.5616,-3.5616,-3.5616,-3.5616,-3.5616,-3.5616,-3.5329,-3.459,-3.3897,-3.3363,-3.322,-3.2588,-3.195,-3.2068,-3.1955,-3.1886,-3.18,-3.18,-3.18,-3.18,-3.18,-3.18,-3.18,-3.1818,-3.1892,-3.2019,-3.209,-3.2179,-3.2354,-3.2489,-3.2573,-4.0382,-3.9398,-3.9315,-3.9315,-3.9315,-3.9315,-3.9315,-3.9315,-3.9315,-3.9315,-3.9315,-3.9315,-3.9315,-3.9315,-3.9315,-3.9315,-3.9315,-3.9315,-3.9315,-3.9315,-3.9315,-3.9315,-3.9315,-3.9315,-3.9315,-3.9315,-3.9315,-3.9315,-3.9315,-3.9315,-3.9315,-3.9315,-3.9315,-3.9315,-3.9315,-3.9315,-3.9315,-3.905,-3.7847,-3.7102,-3.6936,-3.5661,-3.4899,-3.4947,-3.5175,-3.5308,-3.5308,-3.5503,-3.5616,-3.5616,-3.5616,-3.5616,-3.5616,-3.5549,-3.5475,-3.54,-3.536,-3.5354,-3.5314,-3.5308,-3.5308,-3.5308,-3.5354,-3.536,-3.536,-3.5469,-3.552,-3.5526,-3.5571,-3.5616,-3.5616,-3.56,-3.5616,-3.5616,-3.5616,-3.5616,-3.5616,-3.5616,-3.5616,-3.5616,-3.5616,-3.5616,-3.5616,-3.5616,-3.5616,-3.5616,-3.5616,-3.5616,-3.5616,-3.5583,-3.5194,-3.4336,-3.3744,-3.2991,-3.2533,-3.183,-3.1637,-3.1737,-3.1868,-3.1799,-3.18,-3.18,-3.18,-3.18,-3.18,-3.18,-3.18,-3.18,-3.191,-3.2055,-3.2108,-3.2179,-3.2336,-3.2489,-3.2556,-3.9995,-3.9348,-3.9315,-3.9315,-3.9315,-3.9315,-3.9315,-3.9315,-3.9315,-3.9315,-3.9315,-3.9315,-3.9315,-3.9315,-3.9315,-3.9315,-3.9315,-3.9315,-3.9315,-3.9315,-3.9315,-3.9315,-3.9315,-3.9315,-3.9315,-3.9315,-3.9315,-3.9315,-3.9315,-3.9315,-3.9315,-3.9315,-3.9315,-3.9315,-3.9315,-3.9315,-3.9315,-3.9,-3.7847,-3.7119,-3.6936,-3.5661,-3.4899,-3.4923,-3.5175,-3.5308,-3.5308,-3.5503,-3.5616,-3.5616,-3.5616,-3.5616,-3.5616,-3.5616,-3.5588,-3.5514,-3.5492,-3.5429,-3.5337,-3.5331,-3.5337,-3.536,-3.5423,-3.5492,-3.5475,-3.5549,-3.5577,-3.5594,-3.56,-3.5616,-3.5616,-3.5616,-3.5616,-3.5616,-3.5616,-3.5616,-3.5616,-3.5616,-3.5616,-3.5616,-3.5616,-3.5616,-3.5616,-3.5616,-3.5616,-3.5616,-3.5616,-3.5616,-3.5616,-3.5616,-3.494,-3.3914,-3.3389,-3.297,-3.2103,-3.1332,-3.1447,-3.1578,-3.1707,-3.1746,-3.18,-3.18,-3.18,-3.18,-3.18,-3.18,-3.18,-3.1818,-3.191,-3.2036,-3.2073,-3.2179,-3.2336,-3.249,-3.2556,-3.9978,-3.9332,-3.9315,-3.9315,-3.9315,-3.9315,-3.9315,-3.9315,-3.9315,-3.9315,-3.9315,-3.9315,-3.9315,-3.9315,-3.9315,-3.9315,-3.9315,-3.9315,-3.9315,-3.9315,-3.9315,-3.9315,-3.9315,-3.9315,-3.9315,-3.9315,-3.9315,-3.9315,-3.9315,-3.9315,-3.9315,-3.9315,-3.9315,-3.9315,-3.9315,-3.9315,-3.9315,-3.9133,-3.7847,-3.7119,-3.6986,-3.5661,-3.4916,-3.4923,-3.5152,-3.5308,-3.5331,-3.5503,-3.56,-3.5616,-3.5616,-3.5616,-3.5616,-3.5616,-3.5577,-3.5571,-3.5571,-3.5571,-3.5526,-3.5503,-3.5503,-3.5526,-3.5549,-3.5571,-3.5571,-3.5594,-3.5616,-3.5616,-3.5616,-3.5616,-3.5616,-3.5616,-3.5616,-3.5616,-3.5616,-3.5616,-3.5616,-3.5616,-3.5616,-3.5616,-3.5616,-3.5616,-3.5616,-3.5616,-3.5616,-3.5616,-3.5616,-3.5616,-3.5616,-3.5616,-3.5025,-3.3744,-3.344,-3.2882,-3.1859,-3.1274,-3.1351,-3.1466,-3.1579,-3.1709,-3.1746,-3.18,-3.18,-3.18,-3.18,-3.18,-3.18,-3.1837,-3.1928,-3.2001,-3.209,-3.2214,-3.2371,-3.2473,-3.2556,-3.9978,-3.9332,-3.9315,-3.9315,-3.9315,-3.9315,-3.9315,-3.9315,-3.9315,-3.9315,-3.9315,-3.9315,-3.9315,-3.9315,-3.9315,-3.9315,-3.9315,-3.9315,-3.9315,-3.9315,-3.9315,-3.9315,-3.9315,-3.9315,-3.9315,-3.9315,-3.9315,-3.9315,-3.9315,-3.9315,-3.9315,-3.9315,-3.9315,-3.9315,-3.9315,-3.9315,-3.9315,-3.91,-3.7864,-3.7119,-3.6804,-3.5661,-3.4899,-3.4947,-3.5175,-3.5308,-3.5314,-3.5487,-3.5616,-3.5616,-3.5616,-3.5616,-3.5616,-3.5616,-3.5616,-3.5616,-3.5616,-3.56,-3.5616,-3.5616,-3.5616,-3.5616,-3.5616,-3.5616,-3.56,-3.5616,-3.5616,-3.5616,-3.5616,-3.5616,-3.5616,-3.5616,-3.5616,-3.5616,-3.5616,-3.5616,-3.5616,-3.5616,-3.5616,-3.5616,-3.5616,-3.5616,-3.5616,-3.5616,-3.5616,-3.5616,-3.5616,-3.5616,-3.5616,-3.5616,-3.4721,-3.3931,-3.3457,-3.2645,-3.1515,-3.1232,-3.1291,-3.137,-3.1485,-3.1598,-3.169,-3.1781,-3.18,-3.18,-3.18,-3.18,-3.18,-3.18,-3.1856,-3.1965,-3.2108,-3.2214,-3.2354,-3.2506,-3.2606,-3.9978,-3.9332,-3.9315,-3.9315,-3.9315,-3.9315,-3.9315,-3.9315,-3.9315,-3.9315,-3.9315,-3.9315,-3.9315,-3.9315,-3.9315,-3.9315,-3.9315,-3.9315,-3.9315,-3.9315,-3.9315,-3.9315,-3.9315,-3.9315,-3.9315,-3.9315,-3.9315,-3.9315,-3.9315,-3.9315,-3.9315,-3.9315,-3.9315,-3.9315,-3.9315,-3.9315,-3.9315,-3.9116,-3.7847,-3.7119,-3.7036,-3.5661,-3.4923,-3.4947,-3.5175,-3.5331,-3.5377,-3.5503,-3.5616,-3.5616,-3.5616,-3.5616,-3.5616,-3.5616,-3.5616,-3.5616,-3.5616,-3.5616,-3.5616,-3.5616,-3.5616,-3.5616,-3.5616,-3.5616,-3.5616,-3.5616,-3.5616,-3.5616,-3.5616,-3.5616,-3.5616,-3.5616,-3.5616,-3.5616,-3.5616,-3.5616,-3.5616,-3.5616,-3.5616,-3.5616,-3.5616,-3.5616,-3.5616,-3.5616,-3.5616,-3.5616,-3.5616,-3.5616,-3.5549,-3.5363,-3.4788,-3.4095,-3.3355,-3.2476,-3.1376,-3.1193,-3.1252,-3.1332,-3.1447,-3.1559,-3.1635,-3.1727,-3.18,-3.18,-3.18,-3.18,-3.18,-3.1801,-3.1874,-3.2019,-3.2126,-3.2214,-3.2353,-3.2506,-3.2606,-3.9978,-3.9315,-3.9315,-3.9315,-3.9315,-3.9315,-3.9315,-3.9315,-3.9315,-3.9315,-3.9315,-3.9315,-3.9315,-3.9315,-3.9315,-3.9315,-3.9315,-3.9315,-3.9315,-3.9315,-3.9315,-3.9315,-3.9315,-3.9315,-3.9315,-3.9315,-3.9315,-3.9315,-3.9315,-3.9315,-3.9315,-3.9315,-3.9315,-3.9315,-3.9315,-3.9315,-3.9315,-3.9116,-3.7847,-3.7119,-3.6887,-3.5661,-3.4963,-3.5041,-3.5205,-3.5337,-3.5446,-3.5549,-3.5616,-3.5616,-3.5616,-3.5616,-3.5616,-3.5616,-3.5616,-3.5616,-3.5616,-3.5616,-3.5616,-3.5616,-3.5616,-3.5616,-3.5616,-3.5616,-3.5616,-3.5616,-3.5616,-3.5616,-3.5616,-3.5616,-3.5616,-3.5616,-3.5616,-3.5616,-3.5616,-3.5616,-3.5616,-3.5616,-3.5616,-3.5616,-3.5616,-3.5616,-3.5616,-3.5616,-3.5616,-3.5616,-3.5616,-3.56,-3.5549,-3.5098,-3.4523,-3.3711,-3.2933,-3.2171,-3.1529,-3.1292,-3.1213,-3.1312,-3.1426,-3.1557,-3.1634,-3.171,-3.1764,-3.18,-3.1801,-3.1819,-3.1801,-3.1801,-3.1929,-3.209,-3.2126,-3.2196,-3.2353,-3.2506,-3.2589,-3.968,-3.9315,-3.9315,-3.9315,-3.9315,-3.9315,-3.9315,-3.9315,-3.9315,-3.9315,-3.9315,-3.9315,-3.9315,-3.9315,-3.9315,-3.9315,-3.9315,-3.9315,-3.9315,-3.9315,-3.9315,-3.9315,-3.9315,-3.9315,-3.9315,-3.9315,-3.9315,-3.9315,-3.9315,-3.9315,-3.9315,-3.9315,-3.9315,-3.9315,-3.9315,-3.9315,-3.9315,-3.905,-3.788,-3.7119,-3.7003,-3.571,-3.5134,-3.5111,-3.5268,-3.5446,-3.5543,-3.5594,-3.56,-3.5616,-3.5616,-3.5616,-3.5616,-3.5616,-3.5616,-3.5616,-3.5616,-3.5616,-3.5616,-3.5616,-3.5616,-3.5616,-3.5616,-3.5616,-3.5616,-3.5616,-3.5616,-3.5616,-3.5616,-3.5616,-3.5616,-3.5616,-3.5616,-3.5616,-3.5616,-3.5616,-3.5616,-3.5616,-3.5616,-3.5616,-3.5616,-3.5616,-3.5616,-3.5616,-3.5616,-3.5616,-3.5616,-3.5616,-3.5532,-3.4895,-3.4184,-3.3406,-3.2696,-3.1985,-3.1512,-3.1278,-3.1252,-3.1332,-3.1466,-3.1595,-3.1671,-3.1728,-3.1764,-3.1818,-3.1819,-3.1838,-3.1856,-3.1893,-3.2001,-3.2108,-3.2126,-3.2214,-3.2388,-3.2506,-3.2573,-3.9315,-3.9315,-3.9315,-3.9315,-3.9315,-3.9315,-3.9315,-3.9315,-3.9315,-3.9315,-3.9315,-3.9315,-3.9315,-3.9315,-3.9315,-3.9315,-3.9315,-3.9315,-3.9315,-3.9315,-3.9315,-3.9315,-3.9315,-3.9315,-3.9315,-3.9315,-3.9315,-3.9315,-3.9315,-3.9315,-3.9315,-3.9315,-3.9315,-3.9315,-3.9315,-3.9315,-3.9315,-3.905,-3.7847,-3.716,-3.6887,-3.5848,-3.5161,-3.5222,-3.5383,-3.552,-3.5594,-3.56,-3.5616,-3.5616,-3.5616,-3.5616,-3.5616,-3.5616,-3.5616,-3.5616,-3.5616,-3.5616,-3.5616,-3.5616,-3.5616,-3.5616,-3.5616,-3.5616,-3.5616,-3.5616,-3.5616,-3.5616,-3.5616,-3.5616,-3.5616,-3.5616,-3.5616,-3.5616,-3.5616,-3.5616,-3.5616,-3.5616,-3.5616,-3.5616,-3.5616,-3.5616,-3.5616,-3.5616,-3.5616,-3.5616,-3.5566,-3.5464,-3.5199,-3.4539,-3.3863,-3.3169,-3.2493,-3.1884,-3.1532,-3.1227,-3.1291,-3.1389,-3.1542,-3.1671,-3.1764,-3.1819,-3.1837,-3.1855,-3.1893,-3.1912,-3.193,-3.2002,-3.2108,-3.2144,-3.2161,-3.2301,-3.2456,-3.2522,-3.2606,-3.9315,-3.9315,-3.9315,-3.9315,-3.9315,-3.9315,-3.9315,-3.9315,-3.9315,-3.9315,-3.9315,-3.9315,-3.9315,-3.9315,-3.9315,-3.9315,-3.9315,-3.9315,-3.9315,-3.9315,-3.9315,-3.9315,-3.9315,-3.9315,-3.9315,-3.9315,-3.9315,-3.9315,-3.9315,-3.9315,-3.9315,-3.9315,-3.9315,-3.9315,-3.9315,-3.9315,-3.9315,-3.905,-3.7847,-3.7202,-3.6962,-3.5887,-3.5222,-3.54,-3.5503,-3.5594,-3.5616,-3.5616,-3.5616,-3.5616,-3.5616,-3.5616,-3.5616,-3.5616,-3.5616,-3.5616,-3.5616,-3.5616,-3.5616,-3.5616,-3.5616,-3.5616,-3.5616,-3.5616,-3.5616,-3.5616,-3.5616,-3.5616,-3.5616,-3.5616,-3.5616,-3.5616,-3.5616,-3.5616,-3.5616,-3.5616,-3.5616,-3.5616,-3.5616,-3.5616,-3.5616,-3.5616,-3.5616,-3.5616,-3.5616,-3.5616,-3.5464,-3.5318,-3.4793,-3.4167,-3.3474,-3.2801,-3.2138,-3.1562,-3.1484,-3.1269,-3.1368,-3.1466,-3.1617,-3.1728,-3.182,-3.1911,-3.1929,-3.1947,-3.1984,-3.2002,-3.2037,-3.209,-3.2179,-3.2196,-3.2214,-3.2353,-3.2473,-3.2556,-3.2655,-3.9315,-3.9315,-3.9315,-3.9315,-3.9315,-3.9315,-3.9315,-3.9315,-3.9315,-3.9315,-3.9315,-3.9315,-3.9315,-3.9315,-3.9315,-3.9315,-3.9315,-3.9315,-3.9315,-3.9315,-3.9315,-3.9315,-3.9315,-3.9315,-3.9315,-3.9315,-3.9315,-3.9315,-3.9315,-3.9315,-3.9315,-3.9315,-3.9315,-3.9315,-3.9315,-3.9315,-3.9315,-3.9033,-3.7958,-3.7245,-3.7062,-3.6007,-3.536,-3.552,-3.5577,-3.5616,-3.5616,-3.5616,-3.5616,-3.5616,-3.5616,-3.5616,-3.5616,-3.5616,-3.5616,-3.5616,-3.5616,-3.5616,-3.5616,-3.5616,-3.5616,-3.5616,-3.5616,-3.5616,-3.5616,-3.5616,-3.5616,-3.5616,-3.5616,-3.5616,-3.5616,-3.5616,-3.5616,-3.5616,-3.5616,-3.5616,-3.5616,-3.5616,-3.5616,-3.5616,-3.5616,-3.5616,-3.5616,-3.5616,-3.5616,-3.5616,-3.503,-3.4827,-3.4438,-3.3795,-3.3038,-3.2344,-3.1681,-3.1312,-3.1297,-3.1308,-3.1445,-3.156,-3.1693,-3.1785,-3.1858,-3.1966,-3.202,-3.2055,-3.209,-3.2108,-3.2161,-3.2196,-3.2249,-3.2284,-3.2353,-3.2422,-3.2489,-3.264,-3.2721,-3.9315,-3.9315,-3.9315,-3.9315,-3.9315,-3.9315,-3.9315,-3.9315,-3.9315,-3.9315,-3.9315,-3.9315,-3.9315,-3.9315,-3.9315,-3.9315,-3.9315,-3.9315,-3.9315,-3.9315,-3.9315,-3.9315,-3.9315,-3.9315,-3.9315,-3.9315,-3.9315,-3.9315,-3.9315,-3.9315,-3.9315,-3.9315,-3.9315,-3.9315,-3.9315,-3.9315,-3.9342,-3.9169,-3.7992,-3.7328,-3.7144,-3.6182,-3.5565,-3.5594,-3.56,-3.5616,-3.5616,-3.5616,-3.5616,-3.5616,-3.5616,-3.5616,-3.5616,-3.5616,-3.5616,-3.5616,-3.5616,-3.5616,-3.5616,-3.5616,-3.5616,-3.5616,-3.5616,-3.5616,-3.5616,-3.5616,-3.5616,-3.5616,-3.5616,-3.5616,-3.5616,-3.5616,-3.5616,-3.5616,-3.5616,-3.5616,-3.5616,-3.5616,-3.5616,-3.5616,-3.5616,-3.5616,-3.5616,-3.5616,-3.5616,-3.5481,-3.4878,-3.4336,-3.3947,-3.3393,-3.2598,-3.2039,-3.1444,-3.132,-3.1325,-3.1387,-3.1504,-3.1654,-3.1785,-3.1858,-3.193,-3.2037,-3.2126,-3.2144,-3.2179,-3.2232,-3.2301,-3.2353,-3.2405,-3.2422,-3.2473,-3.2523,-3.2623,-3.274,-3.2804,-3.9315,-3.9315,-3.9315,-3.9315,-3.9315,-3.9315,-3.9315,-3.9315,-3.9315,-3.9315,-3.9315,-3.9315,-3.9315,-3.9315,-3.9315,-3.9315,-3.9315,-3.9315,-3.9315,-3.9315,-3.9315,-3.9315,-3.9315,-3.9315,-3.9315,-3.9315,-3.9315,-3.9315,-3.9315,-3.9315,-3.9315,-3.9315,-3.9315,-3.9315,-3.9315,-3.9315,-3.9369,-3.9265,-3.8169,-3.7577,-3.7273,-3.631,-3.5543,-3.5616,-3.5616,-3.5616,-3.5616,-3.5616,-3.5616,-3.5616,-3.5616,-3.5616,-3.5616,-3.5616,-3.5616,-3.5616,-3.5616,-3.5616,-3.5616,-3.5616,-3.5616,-3.5616,-3.5616,-3.5616,-3.5616,-3.5616,-3.5616,-3.5616,-3.5616,-3.5616,-3.5616,-3.5616,-3.5616,-3.5616,-3.5616,-3.5616,-3.5616,-3.5616,-3.5616,-3.5616,-3.5616,-3.5616,-3.5616,-3.5616,-3.5616,-3.5329,-3.4726,-3.415,-3.3694,-3.2966,-3.2141,-3.1684,-3.1292,-3.1325,-3.144,-3.1519,-3.1598,-3.1728,-3.1857,-3.1948,-3.202,-3.2126,-3.2197,-3.2249,-3.2318,-3.2387,-3.2456,-3.2506,-3.2523,-3.2523,-3.2574,-3.264,-3.2706,-3.2789,-3.282,-3.9315,-3.9315,-3.9315,-3.9315,-3.9315,-3.9315,-3.9315,-3.9315,-3.9315,-3.9315,-3.9315,-3.9315,-3.9315,-3.9315,-3.9315,-3.9315,-3.9315,-3.9315,-3.9315,-3.9315,-3.9315,-3.9315,-3.9315,-3.9315,-3.9315,-3.9315,-3.9315,-3.9315,-3.9315,-3.9315,-3.9315,-3.9315,-3.9315,-3.9315,-3.9342,-3.9395,-3.9448,-3.9261,-3.858,-3.7902,-3.7595,-3.6295,-3.5673,-3.5594,-3.5616,-3.5616,-3.5616,-3.5616,-3.5616,-3.5616,-3.5616,-3.5616,-3.5616,-3.5616,-3.5616,-3.5616,-3.5616,-3.5616,-3.5616,-3.5616,-3.5616,-3.5616,-3.5616,-3.5616,-3.5616,-3.5616,-3.5616,-3.5616,-3.5616,-3.5616,-3.5616,-3.5616,-3.5616,-3.5616,-3.5616,-3.5616,-3.5616,-3.5616,-3.5616,-3.5616,-3.5616,-3.5616,-3.5616,-3.5616,-3.5616,-3.5194,-3.4573,-3.3998,-3.3474,-3.2544,-3.1684,-3.1517,-3.1249,-3.1366,-3.1481,-3.1596,-3.1673,-3.1802,-3.193,-3.2037,-3.2144,-3.2232,-3.2301,-3.2388,-3.2456,-3.2523,-3.2557,-3.2573,-3.2589,-3.2622,-3.269,-3.2722,-3.2773,-3.2821,-3.2852,-3.9315,-3.9315,-3.9315,-3.9315,-3.9315,-3.9315,-3.9315,-3.9315,-3.9315,-3.9315,-3.9315,-3.9315,-3.9315,-3.9315,-3.9315,-3.9315,-3.9315,-3.9315,-3.9315,-3.9315,-3.9315,-3.9315,-3.9315,-3.9315,-3.9315,-3.9315,-3.9315,-3.9315,-3.9315,-3.9315,-3.9315,-3.9315,-3.9315,-3.9325,-3.9352,-3.9432,-3.9501,-3.9441,-3.9042,-3.842,-3.7408,-3.6331,-3.5616,-3.5616,-3.5616,-3.5616,-3.5616,-3.5616,-3.5616,-3.5616,-3.5616,-3.5616,-3.5616,-3.5616,-3.5616,-3.5616,-3.5616,-3.5616,-3.5616,-3.5616,-3.5616,-3.5616,-3.5616,-3.5616,-3.5616,-3.5616,-3.5616,-3.5616,-3.5616,-3.5616,-3.5616,-3.5616,-3.5616,-3.5616,-3.5616,-3.5616,-3.5616,-3.5616,-3.5616,-3.5616,-3.5616,-3.5616,-3.5616,-3.5616,-3.5616,-3.516,-3.4535,-3.3863,-3.3237,-3.2087,-3.1362,-3.137,-3.1308,-3.1406,-3.1521,-3.1653,-3.1747,-3.184,-3.1984,-3.2108,-3.2232,-3.2336,-3.2404,-3.2489,-3.2574,-3.2623,-3.264,-3.2655,-3.2705,-3.2737,-3.2787,-3.2821,-3.2854,-3.2852,-3.2884,-3.9315,-3.9315,-3.9315,-3.9315,-3.9315,-3.9315,-3.9315,-3.9315,-3.9315,-3.9315,-3.9315,-3.9315,-3.9315,-3.9315,-3.9315,-3.9315,-3.9315,-3.9315,-3.9315,-3.9315,-3.9315,-3.9315,-3.9315,-3.9315,-3.9315,-3.9315,-3.9315,-3.9315,-3.9299,-3.9299,-3.9299,-3.9299,-3.9342,-3.9352,-3.9458,-3.9537,-3.9633,-3.9664,-3.9152,-3.8216,-3.7097,-3.614,-3.5752,-3.5616,-3.5616,-3.5616,-3.5616,-3.5616,-3.5616,-3.5616,-3.5616,-3.5616,-3.5616,-3.5616,-3.5616,-3.5616,-3.5616,-3.5616,-3.5616,-3.5616,-3.5616,-3.5616,-3.5616,-3.5616,-3.5616,-3.5616,-3.5616,-3.5616,-3.5616,-3.5616,-3.5616,-3.5616,-3.5616,-3.5616,-3.5616,-3.5616,-3.5616,-3.5616,-3.5616,-3.5616,-3.5616,-3.5616,-3.5616,-3.5616,-3.5549,-3.5042,-3.4501,-3.3812,-3.3034,-3.1935,-3.1247,-3.1271,-3.1349,-3.1462,-3.156,-3.1691,-3.182,-3.1912,-3.2037,-3.2197,-3.2301,-3.2404,-3.2506,-3.259,-3.2657,-3.2722,-3.2739,-3.277,-3.2818,-3.2852,-3.2852,-3.2868,-3.29,-3.29,-3.29,-3.9432,-3.9315,-3.9315,-3.9315,-3.9315,-3.9315,-3.9315,-3.9315,-3.9315,-3.9315,-3.9315,-3.9315,-3.9315,-3.9315,-3.9315,-3.9315,-3.9315,-3.9315,-3.9315,-3.9315,-3.9315,-3.9315,-3.9315,-3.9315,-3.9315,-3.9315,-3.9315,-3.9352,-3.9352,-3.9352,-3.9325,-3.9405,-3.9405,-3.9484,-3.9616,-3.9694,-3.9772,-3.9673,-3.9236,-3.8432,-3.7499,-3.6688,-3.6062,-3.5656,-3.5616,-3.5616,-3.5616,-3.5616,-3.5616,-3.5616,-3.5616,-3.5616,-3.5616,-3.5616,-3.5616,-3.5616,-3.5616,-3.5616,-3.5616,-3.5616,-3.5616,-3.5616,-3.5616,-3.5616,-3.5616,-3.5616,-3.5616,-3.5616,-3.5616,-3.5616,-3.5616,-3.5616,-3.5616,-3.5616,-3.5616,-3.5616,-3.5616,-3.5616,-3.5616,-3.5616,-3.5616,-3.5616,-3.5622,-3.5622,-3.5571,-3.5284,-3.4506,-3.363,-3.2903,-3.2019,-3.152,-3.1293,-3.1406,-3.15,-3.1617,-3.173,-3.1893,-3.2002,-3.2091,-3.2232,-3.237,-3.2489,-3.2574,-3.2673,-3.2771,-3.282,-3.2836,-3.2852,-3.2866,-3.2884,-3.29,-3.29,-3.29,-3.29,-3.29,-3.9616,-3.9405,-3.9352,-3.9325,-3.9315,-3.9315,-3.9315,-3.9315,-3.9315,-3.9315,-3.9315,-3.9315,-3.9315,-3.9315,-3.9315,-3.9315,-3.9315,-3.9315,-3.9315,-3.9315,-3.9315,-3.9315,-3.9299,-3.9325,-3.9369,-3.9352,-3.9432,-3.9484,-3.9484,-3.9484,-3.9484,-3.9554,-3.9537,-3.9616,-3.9729,-3.9824,-3.9901,-3.9893,-3.931,-3.8616,-3.7838,-3.7134,-3.6366,-3.5876,-3.5616,-3.5616,-3.5616,-3.5616,-3.5616,-3.5616,-3.5616,-3.5616,-3.5616,-3.5616,-3.5616,-3.5616,-3.5616,-3.5616,-3.5616,-3.5616,-3.5616,-3.5616,-3.5616,-3.5616,-3.5616,-3.5616,-3.5616,-3.5616,-3.5616,-3.5616,-3.5616,-3.5616,-3.5616,-3.5616,-3.5616,-3.5616,-3.5616,-3.5616,-3.5616,-3.5616,-3.5616,-3.5616,-3.5622,-3.5644,-3.556,-3.5402,-3.459,-3.3516,-3.2656,-3.1876,-3.1667,-3.1389,-3.1447,-3.1578,-3.1728,-3.1857,-3.1984,-3.209,-3.2179,-3.2284,-3.2422,-3.254,-3.2606,-3.2739,-3.2854,-3.2868,-3.2884,-3.29,-3.29,-3.29,-3.29,-3.29,-3.29,-3.29,-3.29,-3.9807,-3.9651,-3.9537,-3.9448,-3.9342,-3.9315,-3.9299,-3.9325,-3.9315,-3.9315,-3.9315,-3.9315,-3.9315,-3.9315,-3.9315,-3.9315,-3.9315,-3.9315,-3.9315,-3.9315,-3.9315,-3.9325,-3.9379,-3.9432,-3.9501,-3.9501,-3.9563,-3.9625,-3.9694,-3.9668,-3.9651,-3.9703,-3.9677,-3.9772,-3.9858,-3.991,-3.9986,-3.9902,-3.9445,-3.87,-3.7956,-3.7212,-3.6468,-3.5825,-3.5616,-3.5616,-3.5616,-3.5616,-3.5616,-3.5616,-3.5616,-3.5616,-3.5616,-3.5616,-3.5616,-3.5616,-3.5616,-3.5616,-3.5616,-3.5616,-3.5616,-3.5616,-3.5616,-3.5616,-3.5616,-3.5616,-3.5616,-3.5616,-3.5616,-3.5616,-3.5616,-3.5616,-3.5616,-3.5616,-3.5616,-3.5616,-3.5616,-3.5616,-3.5616,-3.5616,-3.5616,-3.5639,-3.5667,-3.5689,-3.5689,-3.5531,-3.4465,-3.3369,-3.2338,-3.1626,-3.1634,-3.1523,-3.1542,-3.1654,-3.1857,-3.1966,-3.2073,-3.2161,-3.2284,-3.237,-3.2473,-3.2574,-3.269,-3.2771,-3.287,-3.2884,-3.29,-3.29,-3.29,-3.29,-3.29,-3.29,-3.29,-3.29,-3.29,-4.0062,-3.9918,-3.9781,-3.9668,-3.9563,-3.9475,-3.9422,-3.9405,-3.9342,-3.9315,-3.9299,-3.9315,-3.9315,-3.9315,-3.9315,-3.9315,-3.9315,-3.9315,-3.9369,-3.9422,-3.9448,-3.9458,-3.9537,-3.959,-3.9642,-3.9642,-3.9677,-3.9755,-3.9807,-3.9807,-3.9884,-3.991,-3.9858,-3.991,-3.9986,-4.0011,-4.0045,-4.002,-3.974,-3.914,-3.8041,-3.7635,-3.6891,-3.5701,-3.5616,-3.5616,-3.5616,-3.5616,-3.5616,-3.5616,-3.5616,-3.5616,-3.5616,-3.5616,-3.5616,-3.5616,-3.5616,-3.5616,-3.5616,-3.5616,-3.5616,-3.5616,-3.5616,-3.5616,-3.5616,-3.5616,-3.5616,-3.5616,-3.5616,-3.5616,-3.5616,-3.5616,-3.5616,-3.5616,-3.5616,-3.5616,-3.5616,-3.5616,-3.5616,-3.5616,-3.5622,-3.5622,-3.5689,-3.5756,-3.5734,-3.5615,-3.4393,-3.3236,-3.2217,-3.1538,-3.1595,-3.1615,-3.1635,-3.1728,-3.1912,-3.202,-3.2126,-3.2249,-3.2353,-3.2439,-3.254,-3.2674,-3.2773,-3.2838,-3.2868,-3.2884,-3.29,-3.29,-3.29,-3.29,-3.29,-3.29,-3.29,-3.29,-3.29,-4.0313,-4.0196,-4.0079,-3.9884,-3.9703,-3.9616,-3.958,-3.9537,-3.9484,-3.9432,-3.9415,-3.9432,-3.9432,-3.9432,-3.9432,-3.9432,-3.9458,-3.9458,-3.9484,-3.9537,-3.9563,-3.9599,-3.9694,-3.9746,-3.9772,-3.9755,-3.979,-3.9884,-3.9935,-3.9961,-4.0011,-4.0037,-4.0011,-4.0037,-4.0045,-4.0113,-4.0113,-4.0113,-3.9994,-3.9343,-3.8108,-3.7838,-3.7127,-3.5853,-3.5616,-3.5616,-3.5616,-3.5616,-3.5616,-3.5616,-3.5616,-3.5616,-3.5616,-3.5616,-3.5616,-3.5616,-3.5616,-3.5616,-3.5616,-3.5616,-3.5616,-3.5616,-3.5616,-3.5616,-3.5616,-3.5616,-3.5616,-3.5616,-3.5616,-3.5616,-3.5616,-3.5616,-3.5616,-3.5616,-3.5616,-3.5616,-3.5616,-3.5616,-3.5616,-3.5616,-3.5661,-3.5706,-3.5778,-3.5781,-3.5369,-3.5211,-3.4383,-3.322,-3.213,-3.1651,-3.1651,-3.169,-3.171,-3.182,-3.193,-3.2055,-3.2196,-3.2301,-3.2405,-3.2489,-3.259,-3.274,-3.2821,-3.2868,-3.29,-3.29,-3.29,-3.29,-3.29,-3.29,-3.29,-3.29,-3.29,-3.29,-3.29,-4.0458,-4.0485,-4.0337,-4.0062,-3.9781,-3.9687,-3.9703,-3.9677,-3.9651,-3.9651,-3.9651,-3.9651,-3.9651,-3.9651,-3.9625,-3.9625,-3.9625,-3.9651,-3.9677,-3.9677,-3.9677,-3.9703,-3.9755,-3.9849,-3.9884,-3.9926,-3.9961,-4.0037,-4.0087,-4.0062,-4.0087,-4.0113,-4.0087,-4.0087,-4.0113,-4.0113,-4.0113,-4.0113,-4.0113,-3.9225,-3.8227,-3.7882,-3.7036,-3.5971,-3.5616,-3.5616,-3.5616,-3.5616,-3.5616,-3.5616,-3.5616,-3.5616,-3.5616,-3.5616,-3.5616,-3.5616,-3.5616,-3.5616,-3.5616,-3.5616,-3.5616,-3.5616,-3.5616,-3.5616,-3.5616,-3.5616,-3.5616,-3.5616,-3.5616,-3.5616,-3.5616,-3.5616,-3.5616,-3.5616,-3.5616,-3.5616,-3.5616,-3.5616,-3.5616,-3.5661,-3.5728,-3.5817,-3.5888,-3.577,-3.5145,-3.4672,-3.414,-3.3235,-3.2106,-3.18,-3.1818,-3.1819,-3.1839,-3.193,-3.2037,-3.2126,-3.2232,-3.2336,-3.2456,-3.254,-3.264,-3.2756,-3.2838,-3.2884,-3.29,-3.29,-3.29,-3.29,-3.29,-3.29,-3.29,-3.29,-3.29,-3.29,-3.29,-4.0065,-3.9999,-4.0401,-4.0453,-4.0196,-3.9935,-3.9849,-3.9807,-3.9755,-3.9703,-3.9703,-3.9703,-3.9703,-3.9703,-3.9703,-3.9729,-3.9729,-3.9703,-3.9729,-3.9833,-3.9833,-3.991,-3.9961,-3.9986,-4.002,-4.0037,-4.0087,-4.0113,-4.0113,-4.0113,-4.0113,-4.0113,-4.0113,-4.0113,-4.0113,-4.0113,-4.0113,-4.0113,-3.9977,-3.9411,-3.8125,-3.7838,-3.7172,-3.5718,-3.5616,-3.5616,-3.5616,-3.5616,-3.5616,-3.5616,-3.5616,-3.5616,-3.5616,-3.5616,-3.5616,-3.5616,-3.5616,-3.5616,-3.5616,-3.5616,-3.5616,-3.5616,-3.5616,-3.5616,-3.5616,-3.5616,-3.5616,-3.5616,-3.5616,-3.5616,-3.5616,-3.5616,-3.5616,-3.5616,-3.5616,-3.5616,-3.5616,-3.5616,-3.5639,-3.5728,-3.5795,-3.5949,-3.6058,-3.5874,-3.5328,-3.4685,-3.4185,-3.3252,-3.2151,-3.2016,-3.2018,-3.2001,-3.2019,-3.2073,-3.2144,-3.2214,-3.2301,-3.2422,-3.2524,-3.2623,-3.2706,-3.2805,-3.2836,-3.29,-3.29,-3.29,-3.29,-3.29,-3.29,-3.29,-3.29,-3.29,-3.29,-3.29,-3.29,-3.965,-3.9871,-4.0261,-4.0528,-4.0566,-4.0263,-4.0062,-4.0011,-3.991,-3.9833,-3.9858,-3.9858,-3.9858,-3.9858,-3.9833,-3.9858,-3.9858,-3.9841,-3.9858,-3.9961,-3.9961,-4.0011,-4.0087,-4.0113,-4.0087,-4.0113,-4.0113,-4.0113,-4.0113,-4.0113,-4.0113,-4.0113,-4.0113,-4.0113,-4.0113,-4.0113,-4.0113,-4.0113,-3.9977,-3.9402,-3.8345,-3.7719,-3.7161,-3.6056,-3.5616,-3.5616,-3.5616,-3.5616,-3.5616,-3.5616,-3.5616,-3.5616,-3.5616,-3.5616,-3.5616,-3.5616,-3.5616,-3.5616,-3.5616,-3.5616,-3.5616,-3.5616,-3.5616,-3.5616,-3.5616,-3.5616,-3.5616,-3.5616,-3.5616,-3.5616,-3.5616,-3.5616,-3.5616,-3.5616,-3.5616,-3.5616,-3.5622,-3.5622,-3.5706,-3.5773,-3.5949,-3.6079,-3.6178,-3.587,-3.5526,-3.4894,-3.4278,-3.3253,-3.2296,-3.2194,-3.2143,-3.2126,-3.2126,-3.2161,-3.2197,-3.2249,-3.2353,-3.249,-3.2574,-3.2655,-3.2739,-3.2838,-3.2868,-3.29,-3.29,-3.29,-3.29,-3.29,-3.29,-3.29,-3.29,-3.29,-3.29,-3.2916,-3.2916,-3.9325,-3.9964,-3.9926,-4.0245,-4.075,-4.0597,-4.0436,-4.0305,-4.0146,-4.0096,-4.0096,-4.0096,-4.0062,-4.0087,-4.0087,-4.0062,-4.0045,-4.0045,-4.0045,-4.0087,-4.0062,-4.0113,-4.0113,-4.0113,-4.0113,-4.0113,-4.0113,-4.0113,-4.0113,-4.0113,-4.0113,-4.0113,-4.0113,-4.0113,-4.0113,-4.0113,-4.0113,-4.0113,-4.0028,-3.9266,-3.8227,-3.7872,-3.7019,-3.6107,-3.5616,-3.5616,-3.5616,-3.5616,-3.5616,-3.5616,-3.5616,-3.5616,-3.5616,-3.5616,-3.5616,-3.5616,-3.5616,-3.5616,-3.5616,-3.5616,-3.5616,-3.5616,-3.5616,-3.5616,-3.5616,-3.5616,-3.5616,-3.5616,-3.5616,-3.5616,-3.5616,-3.5616,-3.5616,-3.5616,-3.5616,-3.5639,-3.5622,-3.5684,-3.5773,-3.5905,-3.6101,-3.6251,-3.6346,-3.6125,-3.5653,-3.484,-3.4167,-3.3401,-3.2598,-3.2231,-3.2196,-3.2196,-3.2197,-3.2214,-3.2249,-3.2336,-3.2456,-3.2591,-3.2607,-3.2688,-3.2771,-3.2836,-3.2884,-3.29,-3.29,-3.29,-3.29,-3.29,-3.29,-3.29,-3.29,-3.29,-3.29,-3.2916,-3.2932,-3.8454,-3.8649,-3.9116,-3.9712,-4.0342,-4.0758,-4.0745,-4.0461,-4.0395,-4.0337,-4.0255,-4.0238,-4.0213,-4.0113,-4.0113,-4.0113,-4.0113,-4.0113,-4.0113,-4.0113,-4.0113,-4.0113,-4.0113,-4.0113,-4.0113,-4.0113,-4.0113,-4.0113,-4.0113,-4.0113,-4.0113,-4.0113,-4.0113,-4.0113,-4.0113,-4.0113,-4.0113,-4.0062,-4.0062,-3.914,-3.8261,-3.7855,-3.6867,-3.6022,-3.5616,-3.5616,-3.5616,-3.5616,-3.5616,-3.5616,-3.5616,-3.5616,-3.5616,-3.5616,-3.5616,-3.5616,-3.5616,-3.5616,-3.5616,-3.5616,-3.5616,-3.5616,-3.5616,-3.5616,-3.5616,-3.5616,-3.5616,-3.5616,-3.5616,-3.5616,-3.5616,-3.5616,-3.5616,-3.5616,-3.56,-3.5622,-3.5644,-3.5734,-3.5839,-3.6058,-3.6251,-3.6398,-3.6471,-3.6269,-3.5721,-3.4836,-3.4052,-3.3406,-3.2827,-3.2459,-3.2301,-3.2319,-3.2319,-3.2336,-3.2387,-3.2439,-3.2574,-3.2674,-3.269,-3.2739,-3.282,-3.2884,-3.29,-3.29,-3.29,-3.29,-3.29,-3.29,-3.29,-3.29,-3.29,-3.29,-3.2916,-3.2932,-3.2979,-3.7925,-3.8175,-3.8596,-3.914,-3.9774,-4.0428,-4.0556,-4.038,-4.0535,-4.051,-4.0387,-4.0379,-4.0337,-4.0288,-4.0213,-4.0188,-4.0188,-4.0138,-4.0113,-4.0113,-4.0113,-4.0113,-4.0113,-4.0113,-4.0113,-4.0113,-4.0113,-4.0113,-4.0113,-4.0113,-4.0113,-4.0113,-4.0113,-4.0113,-4.0113,-4.0113,-4.0113,-3.9977,-3.9665,-3.8954,-3.8294,-3.7618,-3.6654,-3.5904,-3.5633,-3.5616,-3.5616,-3.5616,-3.5616,-3.5616,-3.5616,-3.5616,-3.5616,-3.5616,-3.5616,-3.5616,-3.5616,-3.5616,-3.5616,-3.5616,-3.5616,-3.5616,-3.5616,-3.5616,-3.5616,-3.5616,-3.5616,-3.5616,-3.5616,-3.5616,-3.5616,-3.5616,-3.5616,-3.5616,-3.5622,-3.5622,-3.5711,-3.58,-3.5975,-3.6191,-3.636,-3.6523,-3.6475,-3.6267,-3.5842,-3.504,-3.4339,-3.3741,-3.3106,-3.2578,-3.2455,-3.2455,-3.2473,-3.2489,-3.2523,-3.2557,-3.2623,-3.2724,-3.2756,-3.2805,-3.2884,-3.29,-3.29,-3.29,-3.29,-3.29,-3.29,-3.29,-3.29,-3.2916,-3.2932,-3.2948,-3.2948,-3.2963,-3.3011,-3.7644,-3.8201,-3.8269,-3.8588,-3.9105,-3.9761,-4.0043,-4.0085,-4.0446,-4.0604,-4.0524,-4.0558,-4.0534,-4.0419,-4.0345,-4.0313,-4.0288,-4.0213,-4.0163,-4.0113,-4.0113,-4.0113,-4.0138,-4.0138,-4.0188,-4.0163,-4.0163,-4.0213,-4.0138,-4.0113,-4.0113,-4.0113,-4.0113,-4.0113,-4.0113,-4.0113,-4.0079,-3.9994,-3.9309,-3.8514,-3.7922,-3.7195,-3.6417,-3.5769,-3.5616,-3.5616,-3.5616,-3.5616,-3.5616,-3.5616,-3.5616,-3.5616,-3.5616,-3.5616,-3.5616,-3.5616,-3.5616,-3.5616,-3.5616,-3.5616,-3.5616,-3.5616,-3.5616,-3.5616,-3.5616,-3.5616,-3.5616,-3.5616,-3.5616,-3.5616,-3.5616,-3.5616,-3.5616,-3.5622,-3.5644,-3.5667,-3.5734,-3.591,-3.6148,-3.6339,-3.6547,-3.6687,-3.6774,-3.6597,-3.6346,-3.5399,-3.4677,-3.4146,-3.3455,-3.2818,-3.2589,-3.2589,-3.2556,-3.2574,-3.2623,-3.2657,-3.269,-3.2773,-3.2805,-3.2838,-3.2884,-3.29,-3.29,-3.29,-3.29,-3.29,-3.29,-3.29,-3.2916,-3.2932,-3.2948,-3.3013,-3.3028,-3.3044,-3.3091,-3.7384,-3.7575,-3.808,-3.839,-3.8576,-3.9207,-3.9437,-3.9425,-4.0087,-4.0504,-4.0778,-4.0758,-4.0704,-4.0558,-4.0468,-4.0461,-4.0412,-4.0313,-4.0263,-4.0213,-4.0188,-4.0213,-4.0255,-4.0263,-4.0313,-4.0387,-4.0412,-4.0337,-4.0263,-4.0188,-4.0113,-4.0113,-4.0138,-4.0163,-4.0146,-4.0146,-4.0112,-3.9943,-3.8918,-3.8241,-3.776,-3.7151,-3.6457,-3.5893,-3.5616,-3.5616,-3.5616,-3.5616,-3.5616,-3.5616,-3.5616,-3.5616,-3.5616,-3.5616,-3.5616,-3.5616,-3.5616,-3.5616,-3.5616,-3.5616,-3.5616,-3.5616,-3.5616,-3.5616,-3.5616,-3.5616,-3.5616,-3.5639,-3.5616,-3.5616,-3.5639,-3.5639,-3.5622,-3.5667,-3.5689,-3.5756,-3.5817,-3.6041,-3.6297,-3.6527,-3.6748,-3.6869,-3.6968,-3.6874,-3.6601,-3.6039,-3.5332,-3.4658,-3.3858,-3.3183,-3.2741,-3.2672,-3.2622,-3.264,-3.2706,-3.2739,-3.2771,-3.282,-3.2852,-3.2884,-3.29,-3.29,-3.29,-3.29,-3.29,-3.29,-3.29,-3.29,-3.2916,-3.2948,-3.3028,-3.3075,-3.317,-3.3216,-3.3232,-3.741,-3.7388,-3.7699,-3.7854,-3.7976,-3.8581,-3.8799,-3.8898,-3.9536,-3.9944,-4.0243,-4.0666,-4.0888,-4.0728,-4.0655,-4.0583,-4.0558,-4.0436,-4.0412,-4.0362,-4.0337,-4.0337,-4.0362,-4.0387,-4.0412,-4.051,-4.051,-4.0436,-4.0387,-4.0337,-4.0288,-4.0288,-4.0263,-4.0246,-4.0271,-4.0271,-4.0093,-3.9744,-3.8581,-3.7946,-3.7549,-3.6757,-3.6163,-3.565,-3.5616,-3.56,-3.5616,-3.5616,-3.5616,-3.5616,-3.5616,-3.5616,-3.5616,-3.5616,-3.5616,-3.5616,-3.5616,-3.5616,-3.5622,-3.5622,-3.5622,-3.5622,-3.5684,-3.5706,-3.5751,-3.5751,-3.5689,-3.5689,-3.5639,-3.5616,-3.5706,-3.5728,-3.5778,-3.5822,-3.5866,-3.5932,-3.6062,-3.6255,-3.6506,-3.6751,-3.6911,-3.7007,-3.7105,-3.7222,-3.6874,-3.6237,-3.5616,-3.494,-3.4155,-3.3406,-3.2999,-3.2753,-3.2705,-3.2721,-3.2804,-3.2836,-3.2852,-3.2884,-3.29,-3.29,-3.29,-3.29,-3.29,-3.29,-3.29,-3.29,-3.29,-3.2916,-3.2948,-3.2963,-3.3075,-3.3186,-3.328,-3.334,-3.3337,-3.7522,-3.7429,-3.7353,-3.7316,-3.7385,-3.7907,-3.8166,-3.8249,-3.8854,-3.9105,-3.9167,-4.0259,-4.0793,-4.0868,-4.0881,-4.0793,-4.0697,-4.0583,-4.0534,-4.051,-4.0468,-4.0485,-4.051,-4.0551,-4.0558,-4.0558,-4.0558,-4.0558,-4.051,-4.0485,-4.0461,-4.051,-4.051,-4.051,-4.051,-4.04,-4.0205,-3.9481,-3.8594,-3.7826,-3.7024,-3.6186,-3.5847,-3.5684,-3.5622,-3.5622,-3.5622,-3.5639,-3.5639,-3.5616,-3.5616,-3.5616,-3.5639,-3.5661,-3.5644,-3.5644,-3.5711,-3.5711,-3.5689,-3.5711,-3.5689,-3.5689,-3.5773,-3.5839,-3.5861,-3.5844,-3.5822,-3.5778,-3.5711,-3.5728,-3.5795,-3.5839,-3.591,-3.5958,-3.6041,-3.6127,-3.6276,-3.6482,-3.671,-3.697,-3.7048,-3.7126,-3.7241,-3.7354,-3.7074,-3.6434,-3.5722,-3.5027,-3.4313,-3.3546,-3.2941,-3.2834,-3.2818,-3.2868,-3.29,-3.29,-3.2866,-3.29,-3.29,-3.29,-3.29,-3.29,-3.29,-3.29,-3.29,-3.2916,-3.2932,-3.2963,-3.2979,-3.3026,-3.3122,-3.3247,-3.3307,-3.3367,-3.3364,-3.7594,-3.7558,-3.7429,-3.7373,-3.7409,-3.7474,-3.7432,-3.7478,-3.8164,-3.8418,-3.8506,-3.9066,-3.9743,-4.0306,-4.0868,-4.0879,-4.0573,-4.0569,-4.0662,-4.0673,-4.0597,-4.0614,-4.0655,-4.0728,-4.0728,-4.0752,-4.0728,-4.0655,-4.0728,-4.059,-4.0517,-4.0541,-4.0558,-4.0534,-4.0517,-4.038,-4.0086,-3.9339,-3.8579,-3.7786,-3.7096,-3.6432,-3.6034,-3.5905,-3.58,-3.5795,-3.5751,-3.5644,-3.5622,-3.5616,-3.5622,-3.5644,-3.5684,-3.5728,-3.5734,-3.5778,-3.5822,-3.5866,-3.5866,-3.5866,-3.5844,-3.5866,-3.5949,-3.5971,-3.5975,-3.5997,-3.5997,-3.5997,-3.5954,-3.5932,-3.5993,-3.5971,-3.6019,-3.6084,-3.6148,-3.6318,-3.6464,-3.669,-3.6928,-3.7087,-3.7185,-3.7261,-3.7354,-3.7466,-3.7504,-3.6791,-3.5847,-3.5186,-3.4793,-3.3901,-3.29,-3.29,-3.29,-3.29,-3.29,-3.29,-3.29,-3.29,-3.29,-3.29,-3.29,-3.29,-3.29,-3.29,-3.2916,-3.2932,-3.2948,-3.3028,-3.3106,-3.3152,-3.3232,-3.3292,-3.3352,-3.3382,-3.3393]},{"header":{"parameterUnit":"m.s-1","parameterCategory":1,"la1":31.0,"la2":29.5877,"lo1":-88.7671,"lo2":-86.6584,"dy":0.0162,"dx":0.0185,"nx":115,"ny":88,"refTime":"2023-06-08T18:00:00:Z","depth":0,"parameterNumber":3,"parameterNumberName":"V-component_of_WINDS"},"data":[0.0,0.0,0.0,0.0,0.0,0.0,0.0,0.0,0.0,0.0,0.0,0.0,0.0,0.0,0.0,0.0,0.0,0.0,0.0,0.0,0.0,0.0,0.0,0.0,0.0,0.0,0.0,0.0,0.0,0.0,0.0,0.0,0.0,0.0,0.0,0.0,0.0,0.0,0.0,0.0,0.0,0.0,0.0,0.0,0.0,0.0,0.0,0.0,0.0,0.0,0.0,0.0,0.0,0.0,0.0,0.0,0.0,0.0,0.0,0.0,0.0,0.0,0.0,0.0,0.0,0.0,0.0,0.0,0.0,0.0,0.0,0.0,0.0,0.0,0.0,0.0,0.0,0.0,0.0,0.0,0.0,0.0,0.0,0.0,0.0,0.0,0.0,0.0,0.0,0.0,0.0,0.0,0.0,0.0,0.0,0.0,0.0,0.0,0.0,0.0,0.0,0.0,0.0,0.0,0.0,0.0,0.0,0.0,0.0,0.0,0.0,0.0,0.0,0.0,0.0,0.0,0.0,0.0,0.0,0.0,0.0,0.0,0.0,0.0,0.0,0.0,0.0,0.0,0.0,0.0,0.0,0.0,0.0,0.0,0.0,0.0,0.0,0.0,0.0,0.0,0.0,0.0,0.0,0.0,0.0,0.0,0.0,0.0,0.0,0.0,0.0,0.0,0.0,0.0,0.0,0.0,0.0,0.0,0.0,0.0,0.0,0.0,0.0,0.0,0.0,0.0,0.0,0.0,0.0,0.0,0.0,0.0,0.0,0.0,0.0,0.0,0.0,0.0,0.0,0.0,0.0,0.0,0.0,0.0,0.0,0.0,0.0,0.0,0.0,0.0,0.0,0.0,0.0,0.0,0.0,0.0,0.0,0.0,0.0,0.0,0.0,0.0,0.0,0.0,0.0,0.0,0.0,0.0,0.0,0.0,0.0,0.0,0.0,0.0,0.0,0.0,0.0,0.0,0.0,0.0,0.0,0.0,0.0,0.0,0.0,0.0,0.0,0.0,0.0,0.0,0.0,0.0,0.0,0.0,0.0,0.0,0.0,0.0,0.0,0.0,0.0,0.0,0.0,0.0,0.0,0.0,0.0,0.0,0.0,0.0,0.0,0.0,0.0,0.0,0.0,0.0,0.0,0.0,0.0,0.0,0.0,0.0,0.0,0.0,0.0,0.0,0.0,0.0,0.0,0.0,0.0,0.0,0.0,0.0,0.0,0.0,0.0,0.0,0.0,0.0,0.0,0.0,0.0,0.0,0.0,0.0,0.0,0.0,0.0,0.0,0.0,0.0,0.0,0.0,0.0,0.0,0.0,0.0,0.0,0.0,0.0,0.0,0.0,0.0,0.0,0.0,0.0,0.0,0.0,0.0,0.0,0.0,0.0,0.0,0.0,0.0,0.0,0.0,0.0,0.0,0.0,0.0,0.0,0.0,0.0,0.0,0.0,0.0,0.0,0.0,0.0,0.0,0.0,0.0,0.0,0.0,0.0,0.0,0.0,0.0,0.0,0.0,0.0,0.0,0.0,0.0,0.0,0.0,0.0,0.0,0.0,0.0,0.0,0.0,0.0,0.0,0.0,0.0,0.0,0.0,0.0,0.0,0.0,0.0,0.0,0.0,0.0,0.0,0.0,0.0,0.0,0.0,0.0,0.0,0.0,0.0,0.0,0.0,0.0,0.0,0.0,0.0,0.0,0.0,0.0,0.0,0.0,0.0,0.0,0.0,0.0,0.0,0.0,0.0,0.0,0.0,0.0,0.0,0.0,0.0,0.0,0.0,0.0,0.0,0.0,0.0,0.0,0.0,0.0,0.0,0.0,0.0,0.0,0.0,0.0,0.0,0.0,0.0,0.0,0.0,0.0,0.0,0.0,0.0,0.0,0.0,0.0,0.0,0.0,0.0,0.0,0.0,0.0,0.0,0.0,0.0,0.0,0.0,0.0,0.0,0.0,0.0,0.0,0.0,0.0,0.0,0.0,0.0,0.0,0.0,0.0,0.0,0.0,0.0,0.0,0.0,0.0,0.0,0.0,0.0,0.0,0.0,0.0,0.0,0.0,0.0,0.0,0.0,0.0,0.0,0.0,0.0,0.0,0.0,0.0,0.0,0.0,0.0,0.0,0.0,0.0,0.0,0.0,0.0,0.0,0.0,0.0,0.0,0.0,0.0,0.0,0.0,0.0,0.0,0.0,0.0,0.0,0.0,0.0,0.0,0.0,0.0,0.0,0.0,0.0,0.0,0.0,0.0,0.0,0.0,0.0,0.0,0.0,0.0,0.0,0.0,0.0,0.0,0.0,0.0,0.0,0.0,0.0,0.0,0.0,0.0,0.0,0.0,0.0,0.0,0.0,0.0,0.0,0.0,0.0,0.0,0.0,0.0,0.0,0.0,0.0,0.0,0.0,0.0,0.0,0.0,0.0,0.0,0.0,0.0,0.0,0.0,0.0,0.0,0.0,0.0,0.0,0.0,0.0,0.0,0.0,0.0,0.0,0.0,0.0,0.0,0.0,0.0,0.0,0.0,0.0,0.0,0.0,0.0,0.0,0.0,0.0,0.0,0.0,0.0,0.0,0.0,0.0,0.0,0.0,0.0,0.0,0.0,0.0,0.0,0.0,0.0,0.0,0.0,0.0,0.0,0.0,0.0,0.0,0.0,0.0,0.0,0.0,0.0,0.0,0.0,0.0,0.0,0.0,0.0,0.0,0.0,0.0,0.0,0.0,0.0,0.0,0.0,0.0,0.0,0.0,0.0,0.0,0.0,0.0,0.0,0.0,0.0,0.0,0.0,0.0,0.0,0.0,0.0,0.0,0.0,0.0,0.0,0.0,0.0,0.0,0.0,0.0,0.0,0.0,0.0,0.0,0.0,0.0,0.0,0.0,0.0,0.0,0.0,0.0,0.0,0.0,0.0,0.0,0.0,0.0,0.0,0.0,0.0,0.0,0.0,0.0,0.0,0.0,0.0,0.0,0.0,0.0,0.0,0.0,0.0,0.0,0.0,0.0,0.0,0.0,0.0,0.0,0.0,0.0,0.0,0.0,0.0,0.0,0.0,0.0,0.0,0.0,0.0,0.0,0.0,0.0,0.0,0.0,0.0,0.0,0.0,0.0,0.0,0.0,0.0,0.0,0.0,0.0,0.0,0.0,0.0,0.0,0.0,0.0,0.0,0.0,0.0,0.0,0.0,0.0,0.0,0.0,0.0,0.0,0.0,0.0,0.0,0.0,0.0,0.0,0.0,0.0,0.0,0.0,0.0,0.0,0.0,0.0,0.0,0.0,0.0,0.0,0.0,0.0,0.0,0.0,0.0,0.0,0.0,0.0,0.0,0.0,0.0,0.0,0.0,0.0,0.0,0.0,0.0,0.0,0.0,0.0,0.0,0.0,0.0,0.0,0.0,0.0,0.0,0.0,0.0,0.0,0.0,0.0,0.0,0.0,0.0,0.0,0.0,0.0,0.0,0.0,0.0,0.0,0.0,0.0,0.0,0.0,0.0,0.0,0.0,0.0,0.0,0.0,0.0,0.0,0.0,0.0,0.0,0.0,0.0,0.0,0.0,0.0,0.0,0.0,0.0,0.0,0.0,0.0,0.0,0.0,0.0,0.0,0.0,0.0,0.0,0.0,0.0,0.0,0.0,0.0,0.0,0.0,0.0,0.0,0.0,0.0,0.0,0.0,0.0,0.0,0.0,0.0,0.0,0.0,0.0,0.0,0.0,0.0,0.0,0.0,0.0,0.0,0.0,0.0,0.0,0.0,0.0,0.0,0.0,0.0,0.0,0.0,0.0,0.0,0.0,0.0,0.0,0.0,0.0,0.0,0.0,0.0,0.0,0.0,0.0,0.0,0.0,0.0,0.0,0.0,0.0,0.0,0.0,0.0,0.0,0.0,0.0,0.0,0.0,0.0,0.0,0.0,0.0,0.0,0.0,0.0,0.0,0.0,0.0,0.0,0.0,0.0,0.0,0.0,0.0,0.0,0.0,0.0,0.0,0.0,0.0,0.0,0.0,0.0,0.0,0.0,0.0,0.0,0.0,0.0,0.0,0.0,0.0,0.0,0.0,0.0,0.0,0.0,0.0,0.0,0.0,0.0,0.0,0.0,0.0,0.0,0.0,0.0,0.0,0.0,0.0,0.0,0.0,0.0,0.0,0.0,0.0,0.0,0.0,0.0,0.0,0.0,0.0,0.0,0.0,0.0,0.0,0.0,0.0,0.0,0.0,0.0,0.0,0.0,0.0,0.0,0.0,0.0,0.0,0.0,0.0,0.0,0.0,-1.4417,0.0,0.0,0.0,0.0,0.0,0.0,0.0,0.0,0.0,0.0,0.0,0.0,0.0,0.0,0.0,0.0,0.0,0.0,0.0,0.0,0.0,0.0,0.0,0.0,0.0,0.0,0.0,0.0,0.0,0.0,0.0,0.0,0.0,0.0,0.0,0.0,0.0,0.0,0.0,0.0,0.0,0.0,0.0,0.0,0.0,0.0,0.0,0.0,0.0,0.0,0.0,0.0,0.0,0.0,0.0,0.0,0.0,0.0,0.0,0.0,0.0,0.0,0.0,0.0,0.0,0.0,0.0,0.0,0.0,0.0,0.0,0.0,0.0,0.0,0.0,0.0,0.0,0.0,0.0,0.0,0.0,0.0,0.0,0.0,0.0,0.0,0.0,0.0,0.0,0.0,0.0,0.0,0.0,0.0,0.0,0.0,0.0,0.0,0.0,0.0,0.0,0.0,0.0,0.0,0.0,0.0,0.0,0.0,0.0,0.0,-1.4909,-1.4533,-1.4485,-1.4485,-1.4485,0.0,0.0,0.0,0.0,0.0,0.0,0.0,0.0,0.0,0.0,0.0,0.0,0.0,0.0,0.0,0.0,0.0,0.0,0.0,0.0,0.0,0.0,0.0,0.0,0.0,0.0,0.0,0.0,0.0,0.0,0.0,0.0,0.0,0.0,0.0,0.0,0.0,0.0,0.0,0.0,0.0,0.0,0.0,0.0,0.0,0.0,0.0,0.0,0.0,0.0,0.0,0.0,0.0,0.0,0.0,0.0,0.0,0.0,0.0,0.0,0.0,0.0,0.0,0.0,0.0,0.0,0.0,0.0,0.0,0.0,0.0,0.0,0.0,0.0,0.0,0.0,0.0,0.0,0.0,0.0,0.0,0.0,0.0,0.0,0.0,0.0,0.0,0.0,0.0,0.0,0.0,0.0,0.0,0.0,0.0,0.0,0.0,0.0,0.0,0.0,0.0,0.0,0.0,0.0,0.0,0.0,0.0,0.0,0.0,0.0,0.0,0.0,-1.4531,-1.4485,-1.4485,0.0,0.0,0.0,0.0,0.0,0.0,0.0,0.0,0.0,0.0,0.0,0.0,0.0,0.0,0.0,0.0,0.0,0.0,0.0,0.0,0.0,0.0,0.0,0.0,0.0,0.0,0.0,0.0,0.0,0.0,0.0,0.0,0.0,0.0,0.0,0.0,0.0,0.0,0.0,0.0,0.0,0.0,0.0,0.0,0.0,0.0,0.0,0.0,0.0,0.0,0.0,0.0,0.0,0.0,0.0,0.0,0.0,0.0,0.0,0.0,0.0,0.0,0.0,0.0,0.0,0.0,0.0,0.0,0.0,0.0,0.0,0.0,0.0,0.0,0.0,0.0,0.0,0.0,0.0,0.0,0.0,0.0,0.0,0.0,0.0,0.0,0.0,0.0,0.0,0.0,0.0,0.0,0.0,0.0,0.0,0.0,0.0,0.0,0.0,0.0,0.0,0.0,0.0,0.0,0.0,0.0,0.0,0.0,0.0,0.0,-1.545,-1.5056,-1.4698,0.0,-1.4485,0.0,0.0,0.0,0.0,0.0,0.0,0.0,0.0,0.0,0.0,0.0,0.0,0.0,0.0,0.0,0.0,0.0,0.0,0.0,0.0,0.0,0.0,0.0,0.0,0.0,0.0,0.0,0.0,0.0,0.0,0.0,0.0,0.0,0.0,0.0,0.0,0.0,0.0,0.0,0.0,0.0,0.0,0.0,0.0,0.0,0.0,0.0,0.0,0.0,0.0,0.0,0.0,0.0,0.0,0.0,0.0,0.0,0.0,0.0,0.0,0.0,0.0,0.0,0.0,0.0,0.0,0.0,0.0,0.0,0.0,0.0,0.0,0.0,0.0,0.0,0.0,0.0,0.0,0.0,0.0,0.0,0.0,0.0,0.0,0.0,0.0,0.0,0.0,0.0,0.0,0.0,0.0,0.0,0.0,0.0,0.0,0.0,0.0,0.0,0.0,0.0,0.0,0.0,0.0,0.0,0.0,0.0,0.0,0.0,0.0,-1.5753,-1.512,-1.4717,-1.4485,0.0,0.0,0.0,0.0,0.0,0.0,0.0,0.0,0.0,0.0,0.0,0.0,0.0,0.0,0.0,0.0,0.0,0.0,0.0,0.0,0.0,0.0,0.0,0.0,0.0,0.0,0.0,0.0,0.0,0.0,0.0,0.0,0.0,0.0,0.0,0.0,0.0,0.0,0.0,0.0,0.0,0.0,0.0,0.0,0.0,0.0,0.0,0.0,0.0,0.0,0.0,0.0,0.0,0.0,0.0,0.0,0.0,0.0,0.0,0.0,0.0,0.0,0.0,0.0,0.0,0.0,0.0,0.0,0.0,0.0,0.0,0.0,0.0,0.0,0.0,0.0,0.0,0.0,0.0,0.0,0.0,0.0,0.0,0.0,0.0,0.0,0.0,0.0,0.0,0.0,0.0,0.0,0.0,0.0,0.0,0.0,0.0,0.0,0.0,0.0,0.0,0.0,0.0,0.0,0.0,0.0,0.0,0.0,0.0,0.0,-1.6334,-1.5927,-1.5139,-1.4827,-1.4625,-1.4494,0.0,0.0,0.0,0.0,0.0,0.0,0.0,0.0,0.0,0.0,0.0,0.0,0.0,0.0,0.0,0.0,0.0,0.0,0.0,0.0,0.0,0.0,0.0,0.0,0.0,0.0,0.0,0.0,0.0,0.0,0.0,0.0,0.0,0.0,0.0,0.0,0.0,0.0,0.0,0.0,0.0,0.0,0.0,0.0,0.0,0.0,0.0,0.0,0.0,0.0,0.0,0.0,0.0,0.0,0.0,0.0,0.0,0.0,0.0,0.0,0.0,0.0,0.0,0.0,0.0,0.0,0.0,0.0,0.0,0.0,0.0,0.0,0.0,0.0,0.0,0.0,0.0,0.0,0.0,0.0,0.0,0.0,0.0,0.0,0.0,0.0,0.0,0.0,0.0,0.0,0.0,0.0,0.0,0.0,0.0,0.0,0.0,0.0,0.0,0.0,0.0,0.0,0.0,0.0,0.0,0.0,0.0,0.0,-1.6862,-1.6514,-1.5927,-1.5148,-1.5074,-1.49,0.0,0.0,0.0,0.0,0.0,0.0,0.0,0.0,0.0,0.0,0.0,0.0,0.0,0.0,0.0,0.0,0.0,0.0,0.0,0.0,0.0,0.0,0.0,0.0,0.0,0.0,0.0,0.0,0.0,0.0,0.0,0.0,0.0,0.0,0.0,0.0,0.0,0.0,0.0,0.0,0.0,0.0,0.0,0.0,0.0,0.0,0.0,0.0,0.0,0.0,0.0,0.0,0.0,0.0,0.0,0.0,0.0,0.0,0.0,0.0,0.0,0.0,0.0,0.0,0.0,0.0,0.0,0.0,0.0,0.0,0.0,0.0,0.0,0.0,0.0,0.0,0.0,0.0,0.0,0.0,0.0,0.0,0.0,0.0,0.0,0.0,0.0,0.0,0.0,0.0,0.0,0.0,0.0,0.0,0.0,0.0,0.0,0.0,0.0,0.0,0.0,0.0,0.0,0.0,0.0,0.0,0.0,0.0,0.0,-1.689,-1.6514,-1.6046,-1.5496,-1.523,-1.4919,0.0,0.0,0.0,0.0,0.0,0.0,0.0,0.0,0.0,0.0,0.0,0.0,0.0,0.0,0.0,0.0,0.0,0.0,0.0,0.0,0.0,0.0,0.0,0.0,0.0,0.0,0.0,0.0,0.0,0.0,0.0,0.0,0.0,0.0,0.0,0.0,0.0,0.0,0.0,0.0,0.0,0.0,0.0,0.0,0.0,0.0,0.0,0.0,0.0,0.0,0.0,0.0,0.0,0.0,0.0,0.0,0.0,0.0,0.0,0.0,0.0,0.0,0.0,0.0,0.0,0.0,0.0,0.0,0.0,0.0,0.0,0.0,0.0,0.0,0.0,0.0,0.0,0.0,0.0,0.0,0.0,0.0,0.0,0.0,0.0,0.0,0.0,0.0,0.0,0.0,0.0,0.0,0.0,0.0,0.0,0.0,0.0,0.0,0.0,0.0,0.0,0.0,0.0,0.0,0.0,0.0,0.0,0.0,0.0,-1.689,0.0,-1.6303,-1.5909,-1.5634,-1.5313,0.0,0.0,0.0,0.0,0.0,0.0,0.0,0.0,0.0,0.0,0.0,0.0,0.0,0.0,0.0,0.0,0.0,0.0,0.0,0.0,0.0,0.0,0.0,0.0,0.0,0.0,0.0,0.0,0.0,0.0,0.0,0.0,0.0,0.0,0.0,0.0,0.0,0.0,0.0,0.0,0.0,0.0,0.0,0.0,0.0,0.0,0.0,0.0,0.0,0.0,0.0,0.0,0.0,0.0,0.0,0.0,0.0,0.0,0.0,0.0,0.0,0.0,0.0,0.0,0.0,0.0,0.0,0.0,0.0,0.0,0.0,0.0,0.0,0.0,0.0,0.0,0.0,0.0,0.0,0.0,0.0,0.0,0.0,0.0,0.0,0.0,0.0,0.0,0.0,0.0,0.0,0.0,0.0,0.0,0.0,0.0,0.0,0.0,0.0,0.0,0.0,0.0,0.0,0.0,0.0,0.0,0.0,0.0,-1.6908,-1.6908,-1.6899,-1.6688,-1.6297,-1.6251,-1.6092,0.0,0.0,0.0,0.0,0.0,0.0,0.0,0.0,0.0,0.0,0.0,0.0,0.0,0.0,0.0,0.0,0.0,0.0,0.0,0.0,0.0,0.0,0.0,0.0,0.0,0.0,0.0,0.0,0.0,0.0,0.0,0.0,0.0,0.0,0.0,0.0,0.0,0.0,0.0,0.0,0.0,0.0,0.0,0.0,0.0,0.0,0.0,0.0,0.0,0.0,0.0,0.0,0.0,0.0,0.0,0.0,0.0,0.0,0.0,0.0,0.0,0.0,0.0,0.0,0.0,0.0,0.0,0.0,0.0,0.0,0.0,0.0,0.0,0.0,0.0,0.0,0.0,0.0,0.0,0.0,0.0,0.0,0.0,0.0,0.0,0.0,0.0,0.0,0.0,0.0,0.0,0.0,0.0,0.0,0.0,0.0,0.0,0.0,0.0,0.0,0.0,0.0,0.0,0.0,0.0,0.0,0.0,0.0,0.0,-1.6908,-1.6908,-1.6725,-1.6306,-1.6288,-1.612,0.0,0.0,0.0,0.0,0.0,0.0,0.0,0.0,0.0,0.0,0.0,0.0,0.0,0.0,0.0,0.0,0.0,0.0,0.0,0.0,0.0,0.0,0.0,0.0,0.0,0.0,0.0,0.0,0.0,0.0,0.0,0.0,0.0,0.0,0.0,0.0,0.0,0.0,0.0,0.0,0.0,0.0,0.0,0.0,0.0,0.0,0.0,0.0,0.0,0.0,0.0,0.0,0.0,0.0,0.0,0.0,0.0,0.0,0.0,0.0,0.0,0.0,0.0,0.0,0.0,0.0,0.0,0.0,0.0,0.0,0.0,0.0,0.0,0.0,0.0,0.0,0.0,0.0,0.0,0.0,0.0,0.0,0.0,0.0,0.0,0.0,0.0,0.0,0.0,0.0,0.0,0.0,0.0,0.0,0.0,0.0,0.0,0.0,0.0,0.0,0.0,0.0,0.0,0.0,0.0,0.0,0.0,0.0,0.0,-1.6908,-1.6908,-1.6789,-1.6551,-1.6508,-1.6422,-1.6156,0.0,0.0,0.0,0.0,0.0,0.0,0.0,0.0,0.0,0.0,0.0,0.0,0.0,0.0,0.0,0.0,0.0,0.0,0.0,0.0,0.0,0.0,0.0,0.0,0.0,0.0,0.0,0.0,0.0,0.0,0.0,0.0,0.0,0.0,0.0,0.0,0.0,0.0,0.0,0.0,0.0,0.0,0.0,0.0,0.0,0.0,0.0,0.0,0.0,0.0,0.0,0.0,0.0,0.0,0.0,0.0,0.0,0.0,0.0,0.0,0.0,0.0,0.0,0.0,0.0,0.0,0.0,0.0,0.0,0.0,0.0,0.0,0.0,0.0,0.0,0.0,0.0,0.0,0.0,0.0,0.0,0.0,0.0,0.0,0.0,0.0,0.0,0.0,0.0,0.0,0.0,0.0,0.0,0.0,0.0,0.0,0.0,0.0,0.0,0.0,0.0,0.0,0.0,0.0,0.0,0.0,0.0,0.0,-1.6908,-1.6908,-1.6908,-1.6899,-1.6899,-1.6908,0.0,0.0,0.0,0.0,0.0,0.0,0.0,0.0,0.0,0.0,0.0,0.0,0.0,0.0,0.0,0.0,0.0,0.0,0.0,0.0,0.0,0.0,0.0,0.0,0.0,0.0,0.0,0.0,0.0,0.0,0.0,0.0,0.0,0.0,0.0,0.0,0.0,0.0,0.0,0.0,0.0,0.0,0.0,0.0,0.0,0.0,0.0,0.0,0.0,0.0,0.0,0.0,0.0,0.0,0.0,0.0,0.0,0.0,0.0,0.0,0.0,0.0,0.0,0.0,0.0,0.0,0.0,0.0,0.0,0.0,0.0,0.0,0.0,0.0,0.0,0.0,0.0,0.0,0.0,0.0,0.0,0.0,0.0,0.0,0.0,0.0,0.0,0.0,0.0,0.0,0.0,0.0,0.0,0.0,0.0,0.0,0.0,0.0,0.0,0.0,0.0,0.0,0.0,0.0,0.0,0.0,0.0,0.0,0.0,-1.6908,-1.6908,-1.6908,-1.6908,-1.6908,-1.6908,0.0,0.0,0.0,0.0,0.0,0.0,0.0,0.0,0.0,0.0,0.0,0.0,0.0,0.0,0.0,0.0,0.0,0.0,0.0,0.0,0.0,0.0,0.0,0.0,0.0,0.0,0.0,0.0,0.0,0.0,0.0,0.0,0.0,0.0,0.0,0.0,0.0,0.0,0.0,0.0,0.0,0.0,0.0,0.0,0.0,0.0,0.0,0.0,0.0,0.0,0.0,0.0,0.0,0.0,0.0,0.0,0.0,0.0,0.0,0.0,0.0,0.0,0.0,0.0,0.0,0.0,0.0,0.0,0.0,0.0,0.0,0.0,0.0,0.0,0.0,0.0,0.0,0.0,0.0,0.0,0.0,0.0,0.0,0.0,0.0,0.0,0.0,0.0,0.0,0.0,0.0,0.0,0.0,0.0,0.0,0.0,0.0,0.0,0.0,0.0,0.0,0.0,0.0,0.0,0.0,0.0,0.0,0.0,-1.6908,-1.6908,-1.6908,-1.6908,-1.6908,-1.6908,-1.6908,0.0,0.0,0.0,0.0,0.0,0.0,0.0,0.0,0.0,0.0,0.0,0.0,0.0,0.0,0.0,0.0,0.0,0.0,0.0,0.0,0.0,0.0,0.0,0.0,0.0,0.0,0.0,0.0,0.0,0.0,0.0,0.0,0.0,0.0,0.0,0.0,0.0,0.0,0.0,0.0,0.0,0.0,0.0,0.0,0.0,0.0,0.0,0.0,0.0,0.0,0.0,0.0,0.0,0.0,0.0,0.0,0.0,0.0,0.0,0.0,0.0,0.0,0.0,0.0,0.0,0.0,0.0,0.0,0.0,0.0,0.0,0.0,0.0,0.0,0.0,0.0,0.0,0.0,0.0,0.0,0.0,0.0,0.0,0.0,0.0,0.0,0.0,0.0,0.0,0.0,0.0,0.0,0.0,0.0,0.0,0.0,0.0,0.0,0.0,0.0,0.0,0.0,0.0,0.0,0.0,0.0,0.0,0.0,-1.6908,-1.6908,-1.6908,-1.6908,-1.6908,-1.6908,-1.6908,0.0,0.0,0.0,0.0,0.0,0.0,0.0,0.0,0.0,0.0,0.0,0.0,0.0,0.0,0.0,0.0,0.0,0.0,0.0,0.0,0.0,0.0,0.0,0.0,0.0,0.0,0.0,0.0,0.0,0.0,0.0,0.0,0.0,0.0,0.0,0.0,0.0,0.0,0.0,0.0,0.0,0.0,0.0,0.0,0.0,0.0,0.0,0.0,0.0,0.0,0.0,0.0,0.0,0.0,0.0,0.0,0.0,0.0,0.0,0.0,0.0,0.0,0.0,0.0,0.0,0.0,0.0,0.0,0.0,0.0,0.0,0.0,0.0,0.0,0.0,0.0,0.0,0.0,0.0,0.0,0.0,0.0,0.0,0.0,0.0,0.0,0.0,0.0,0.0,0.0,0.0,0.0,0.0,0.0,0.0,0.0,0.0,0.0,0.0,0.0,0.0,0.0,0.0,0.0,0.0,0.0,0.0,0.0,-1.6908,-1.6908,-1.6908,-1.6908,-1.6908,-1.6908,-1.6908,0.0,0.0,0.0,0.0,0.0,0.0,0.0,0.0,0.0,0.0,0.0,0.0,0.0,0.0,0.0,0.0,0.0,0.0,0.0,0.0,0.0,0.0,0.0,0.0,0.0,0.0,0.0,0.0,0.0,0.0,0.0,0.0,0.0,0.0,0.0,0.0,0.0,0.0,0.0,0.0,0.0,0.0,0.0,0.0,0.0,0.0,0.0,0.0,-1.3997,0.0,0.0,0.0,0.0,0.0,0.0,0.0,0.0,0.0,0.0,0.0,0.0,0.0,0.0,0.0,0.0,0.0,0.0,0.0,0.0,0.0,0.0,0.0,0.0,0.0,0.0,0.0,0.0,0.0,0.0,0.0,0.0,0.0,0.0,0.0,0.0,0.0,0.0,0.0,0.0,0.0,0.0,0.0,0.0,0.0,0.0,0.0,0.0,0.0,0.0,0.0,0.0,0.0,0.0,0.0,0.0,0.0,0.0,0.0,-1.6908,-1.6908,-1.6908,-1.6908,-1.6908,-1.6908,-1.6908,0.0,0.0,0.0,0.0,0.0,0.0,0.0,0.0,0.0,0.0,0.0,0.0,0.0,0.0,0.0,0.0,0.0,0.0,0.0,0.0,0.0,0.0,0.0,0.0,0.0,0.0,0.0,0.0,0.0,0.0,0.0,0.0,0.0,0.0,0.0,0.0,0.0,0.0,0.0,0.0,0.0,0.0,0.0,0.0,0.0,0.0,0.0,0.0,0.0,0.0,0.0,0.0,0.0,0.0,0.0,0.0,0.0,0.0,0.0,0.0,0.0,0.0,0.0,0.0,0.0,0.0,0.0,0.0,0.0,0.0,0.0,0.0,0.0,0.0,0.0,0.0,0.0,0.0,0.0,0.0,0.0,0.0,0.0,0.0,0.0,0.0,0.0,0.0,0.0,0.0,0.0,0.0,0.0,0.0,0.0,0.0,0.0,0.0,0.0,0.0,0.0,0.0,0.0,0.0,0.0,0.0,0.0,-1.6908,-1.6908,-1.6908,-1.6908,-1.6908,-1.6908,-1.6908,-1.6908,-1.6908,0.0,0.0,0.0,0.0,0.0,0.0,0.0,0.0,0.0,0.0,0.0,0.0,0.0,0.0,0.0,0.0,0.0,0.0,0.0,0.0,0.0,0.0,0.0,0.0,0.0,0.0,0.0,0.0,0.0,0.0,0.0,0.0,0.0,0.0,0.0,0.0,0.0,0.0,-1.3656,-1.3926,0.0,0.0,0.0,0.0,0.0,0.0,0.0,0.0,-1.4649,0.0,0.0,0.0,0.0,0.0,0.0,0.0,0.0,0.0,0.0,0.0,0.0,0.0,0.0,0.0,0.0,0.0,0.0,0.0,0.0,0.0,0.0,0.0,0.0,0.0,0.0,0.0,0.0,0.0,0.0,0.0,0.0,0.0,0.0,0.0,0.0,0.0,0.0,0.0,0.0,0.0,0.0,0.0,0.0,0.0,0.0,0.0,0.0,0.0,0.0,0.0,0.0,0.0,0.0,0.0,0.0,-1.6908,-1.6908,-1.6908,-1.6908,-1.6908,-1.6908,-1.6908,-1.6908,-1.6908,-1.6908,0.0,0.0,0.0,0.0,0.0,0.0,0.0,0.0,0.0,0.0,0.0,0.0,0.0,0.0,0.0,0.0,0.0,0.0,0.0,0.0,0.0,0.0,0.0,0.0,0.0,0.0,0.0,0.0,0.0,0.0,0.0,0.0,0.0,0.0,0.0,0.0,0.0,0.0,0.0,-1.4077,-1.4236,0.0,0.0,0.0,0.0,0.0,0.0,0.0,0.0,-1.4864,0.0,0.0,0.0,0.0,0.0,0.0,0.0,0.0,0.0,0.0,0.0,0.0,0.0,0.0,0.0,0.0,0.0,0.0,0.0,0.0,0.0,0.0,0.0,0.0,0.0,0.0,0.0,0.0,0.0,0.0,0.0,0.0,0.0,0.0,0.0,0.0,0.0,0.0,0.0,0.0,0.0,0.0,0.0,0.0,0.0,0.0,0.0,0.0,0.0,0.0,0.0,0.0,0.0,0.0,0.0,-1.6908,-1.7003,-1.7038,-1.7063,-1.7072,-1.7072,-1.7072,-1.6943,-1.6908,0.0,0.0,0.0,0.0,0.0,0.0,0.0,0.0,0.0,0.0,0.0,0.0,0.0,0.0,0.0,0.0,0.0,0.0,0.0,0.0,0.0,0.0,0.0,0.0,0.0,0.0,0.0,0.0,0.0,0.0,0.0,0.0,0.0,0.0,0.0,0.0,0.0,0.0,0.0,0.0,-1.4536,-1.4627,-1.4895,0.0,0.0,0.0,0.0,0.0,0.0,-1.4999,-1.507,0.0,0.0,0.0,0.0,0.0,0.0,0.0,0.0,0.0,0.0,0.0,0.0,0.0,0.0,0.0,0.0,0.0,0.0,0.0,0.0,0.0,0.0,0.0,0.0,0.0,0.0,0.0,0.0,0.0,0.0,0.0,0.0,0.0,0.0,0.0,0.0,0.0,0.0,0.0,0.0,0.0,0.0,0.0,0.0,0.0,0.0,0.0,0.0,0.0,0.0,0.0,0.0,0.0,0.0,0.0,-1.7012,-1.7176,-1.7245,-1.7279,-1.7279,-1.7279,-1.7245,-1.7107,-1.7012,0.0,0.0,0.0,0.0,0.0,0.0,0.0,0.0,0.0,0.0,0.0,0.0,0.0,0.0,0.0,0.0,0.0,0.0,0.0,0.0,0.0,0.0,0.0,0.0,0.0,0.0,0.0,0.0,0.0,0.0,0.0,0.0,0.0,0.0,0.0,0.0,0.0,0.0,0.0,0.0,0.0,-1.4999,-1.5169,-1.5196,0.0,0.0,0.0,0.0,-1.5196,-1.524,0.0,0.0,0.0,0.0,0.0,0.0,0.0,0.0,0.0,0.0,0.0,0.0,0.0,0.0,0.0,0.0,0.0,0.0,0.0,0.0,0.0,0.0,0.0,0.0,0.0,0.0,0.0,0.0,0.0,0.0,0.0,0.0,0.0,0.0,0.0,0.0,0.0,0.0,0.0,0.0,0.0,0.0,0.0,0.0,0.0,0.0,0.0,0.0,0.0,0.0,0.0,0.0,0.0,0.0,0.0,0.0,-1.7436,-1.7436,-1.747,-1.747,-1.747,-1.7461,-1.747,-1.7436,-1.7348,0.0,0.0,0.0,0.0,0.0,0.0,0.0,0.0,0.0,0.0,0.0,0.0,0.0,0.0,0.0,0.0,0.0,0.0,0.0,0.0,0.0,0.0,0.0,0.0,0.0,0.0,0.0,0.0,0.0,0.0,0.0,0.0,0.0,0.0,0.0,0.0,0.0,0.0,0.0,0.0,0.0,-1.5169,-1.5196,-1.5196,-1.5196,0.0,0.0,-1.5196,-1.5196,-1.5355,0.0,0.0,0.0,0.0,0.0,0.0,0.0,0.0,0.0,0.0,0.0,0.0,0.0,0.0,0.0,0.0,0.0,0.0,0.0,0.0,0.0,0.0,0.0,0.0,0.0,0.0,0.0,0.0,0.0,0.0,0.0,0.0,0.0,0.0,0.0,0.0,0.0,0.0,0.0,0.0,0.0,0.0,0.0,0.0,0.0,0.0,0.0,0.0,0.0,0.0,0.0,0.0,0.0,0.0,0.0,-1.7495,-1.7505,-1.7564,-1.7613,-1.7623,-1.7623,-1.7623,-1.7613,-1.7529,-1.747,0.0,0.0,0.0,0.0,0.0,0.0,0.0,0.0,0.0,0.0,0.0,0.0,0.0,0.0,0.0,0.0,0.0,0.0,0.0,0.0,0.0,0.0,0.0,0.0,0.0,0.0,0.0,0.0,0.0,0.0,0.0,0.0,0.0,0.0,0.0,0.0,0.0,0.0,0.0,0.0,0.0,0.0,-1.5505,-1.5541,0.0,0.0,0.0,-1.5532,-1.5541,0.0,0.0,0.0,0.0,0.0,0.0,0.0,0.0,0.0,0.0,0.0,0.0,0.0,0.0,0.0,0.0,0.0,0.0,0.0,0.0,0.0,0.0,0.0,0.0,0.0,0.0,0.0,0.0,0.0,0.0,0.0,0.0,0.0,0.0,0.0,0.0,0.0,0.0,0.0,0.0,0.0,0.0,0.0,0.0,0.0,0.0,0.0,0.0,0.0,0.0,0.0,0.0,0.0,0.0,0.0,0.0,0.0,-1.7632,-1.7725,-1.7784,-1.775,-1.7784,-1.775,-1.7784,-1.7691,0.0,0.0,0.0,0.0,0.0,0.0,0.0,0.0,0.0,0.0,0.0,0.0,0.0,0.0,0.0,0.0,0.0,0.0,0.0,0.0,0.0,0.0,0.0,0.0,0.0,0.0,0.0,-1.6001,0.0,0.0,0.0,0.0,0.0,0.0,0.0,0.0,0.0,0.0,0.0,0.0,0.0,0.0,-1.562,-1.5761,-1.5805,-1.5805,0.0,0.0,-1.5805,-1.5805,-1.5805,-1.5805,0.0,0.0,0.0,0.0,0.0,0.0,0.0,0.0,0.0,0.0,0.0,0.0,0.0,0.0,0.0,0.0,0.0,0.0,0.0,0.0,0.0,0.0,0.0,0.0,0.0,0.0,0.0,0.0,0.0,0.0,0.0,0.0,0.0,0.0,0.0,0.0,0.0,0.0,0.0,0.0,0.0,0.0,0.0,0.0,0.0,0.0,0.0,0.0,0.0,0.0,0.0,0.0,0.0,0.0,-1.7974,-1.7974,-1.7974,-1.7983,-1.7974,-1.7974,-1.7974,-1.7964,-1.7974,-1.7862,0.0,0.0,0.0,0.0,0.0,0.0,0.0,0.0,0.0,0.0,0.0,0.0,0.0,0.0,0.0,0.0,0.0,0.0,0.0,0.0,0.0,0.0,0.0,0.0,0.0,0.0,0.0,0.0,0.0,0.0,0.0,0.0,0.0,0.0,0.0,0.0,0.0,0.0,0.0,0.0,0.0,-1.577,-1.5805,-1.5805,-1.5805,0.0,-1.5805,-1.5805,-1.5805,-1.5805,-1.5805,-1.5805,0.0,0.0,0.0,0.0,0.0,0.0,0.0,0.0,0.0,0.0,0.0,0.0,0.0,0.0,0.0,0.0,0.0,0.0,0.0,0.0,0.0,0.0,0.0,0.0,0.0,0.0,0.0,0.0,0.0,0.0,0.0,0.0,0.0,0.0,0.0,0.0,0.0,0.0,0.0,0.0,0.0,0.0,0.0,0.0,0.0,0.0,0.0,0.0,0.0,0.0,0.0,0.0,0.0,-1.8135,-1.8354,-1.8354,-1.8364,-1.8364,-1.8364,-1.8237,-1.8018,-1.8008,-1.7974,0.0,0.0,0.0,0.0,0.0,0.0,0.0,0.0,0.0,0.0,0.0,0.0,0.0,0.0,0.0,0.0,0.0,0.0,0.0,0.0,0.0,0.0,0.0,0.0,0.0,0.0,0.0,0.0,-1.6612,-1.6447,-1.6307,0.0,0.0,0.0,0.0,0.0,0.0,0.0,0.0,0.0,0.0,-1.5805,-1.5805,-1.5805,0.0,0.0,-1.5805,-1.5805,-1.5805,-1.5805,-1.5805,-1.5805,-1.5805,0.0,0.0,0.0,0.0,0.0,0.0,0.0,0.0,0.0,0.0,0.0,0.0,0.0,0.0,0.0,0.0,0.0,0.0,0.0,0.0,0.0,0.0,0.0,0.0,0.0,0.0,0.0,0.0,0.0,0.0,0.0,0.0,0.0,0.0,0.0,0.0,0.0,0.0,0.0,0.0,0.0,0.0,0.0,0.0,0.0,0.0,0.0,0.0,0.0,0.0,0.0,0.0,-1.8535,-1.8828,-1.8828,-1.8792,-1.8802,-1.8666,-1.8461,-1.8213,-1.8042,-1.8008,0.0,0.0,0.0,0.0,0.0,0.0,0.0,0.0,0.0,0.0,0.0,0.0,0.0,0.0,0.0,0.0,0.0,0.0,0.0,0.0,0.0,0.0,0.0,0.0,0.0,0.0,0.0,0.0,-1.6795,-1.6612,-1.6412,0.0,0.0,0.0,0.0,0.0,0.0,0.0,0.0,0.0,0.0,-1.5805,-1.5805,-1.5805,-1.5805,-1.5805,-1.5805,-1.5805,-1.5805,-1.5805,-1.584,-1.5951,0.0,0.0,0.0,0.0,0.0,0.0,0.0,0.0,0.0,0.0,0.0,0.0,0.0,0.0,0.0,0.0,0.0,0.0,0.0,0.0,0.0,0.0,0.0,0.0,0.0,0.0,0.0,0.0,0.0,0.0,-1.9129,0.0,0.0,0.0,0.0,0.0,0.0,0.0,0.0,0.0,0.0,0.0,0.0,0.0,0.0,0.0,0.0,0.0,0.0,0.0,0.0,0.0,0.0,-1.9258,-1.9314,-1.9277,-1.9268,-1.9268,-1.8831,-1.8617,-1.8568,-1.8232,-1.8018,-1.8008,0.0,0.0,0.0,0.0,0.0,0.0,0.0,0.0,0.0,0.0,0.0,0.0,0.0,0.0,0.0,0.0,0.0,0.0,0.0,0.0,0.0,0.0,0.0,0.0,0.0,0.0,-1.6908,-1.6908,-1.683,0.0,0.0,0.0,0.0,0.0,0.0,0.0,0.0,0.0,0.0,-1.5805,-1.5805,-1.5814,-1.5814,-1.5875,-1.5866,-1.5822,-1.5822,-1.5831,-1.5822,-1.5925,0.0,0.0,0.0,0.0,0.0,0.0,0.0,0.0,0.0,0.0,0.0,0.0,0.0,0.0,0.0,0.0,0.0,0.0,0.0,0.0,0.0,0.0,0.0,0.0,0.0,0.0,0.0,-1.9965,-1.9975,0.0,0.0,0.0,0.0,0.0,0.0,0.0,0.0,0.0,0.0,0.0,-1.9975,-2.006,0.0,0.0,0.0,0.0,0.0,0.0,0.0,0.0,0.0,0.0,0.0,0.0,-1.9434,-1.9697,-1.9707,-1.9697,-1.9707,-1.9561,-1.9182,-1.8617,-1.8461,-1.8256,-1.8018,0.0,0.0,0.0,0.0,0.0,0.0,0.0,0.0,0.0,0.0,0.0,0.0,0.0,0.0,0.0,0.0,0.0,0.0,0.0,0.0,0.0,0.0,0.0,0.0,0.0,-1.6908,0.0,0.0,0.0,0.0,0.0,0.0,0.0,0.0,0.0,0.0,0.0,-1.614,-1.614,-1.635,-1.6553,-1.6517,-1.6781,-1.7002,0.0,0.0,0.0,0.0,0.0,0.0,0.0,0.0,0.0,0.0,0.0,0.0,0.0,0.0,-1.6688,-1.629,-1.6272,-1.6307,-1.6307,0.0,0.0,0.0,0.0,0.0,0.0,0.0,0.0,0.0,0.0,0.0,0.0,0.0,0.0,-2.0374,0.0,-2.0374,0.0,0.0,0.0,0.0,0.0,0.0,0.0,0.0,-2.0374,-2.0374,-2.0385,-2.055,-2.0633,0.0,-2.0725,-2.0698,0.0,0.0,0.0,0.0,0.0,0.0,0.0,0.0,-1.9873,-2.0127,-2.0146,-2.0137,-2.0127,-1.999,-1.9602,-1.9056,-1.8754,-1.8403,-1.8027,-1.8008,-1.8008,0.0,0.0,0.0,0.0,0.0,0.0,0.0,0.0,0.0,0.0,0.0,0.0,0.0,0.0,0.0,0.0,0.0,0.0,0.0,0.0,0.0,0.0,0.0,-1.6908,0.0,0.0,0.0,0.0,0.0,0.0,0.0,0.0,0.0,-1.6706,-1.6714,-1.6759,-1.6767,-1.698,-1.7131,-1.7131,0.0,0.0,0.0,0.0,0.0,0.0,0.0,-1.7339,-1.7319,-1.7441,-1.7561,-1.7711,-1.7823,-1.7769,-1.7349,0.0,0.0,-1.6509,-1.6447,-1.6517,-1.6491,-1.6525,-1.6456,-1.6211,-1.6167,-1.6096,0.0,0.0,0.0,0.0,0.0,0.0,0.0,0.0,-2.0447,-2.0457,0.0,-2.0457,0.0,0.0,0.0,0.0,0.0,-2.0447,0.0,0.0,-2.0457,-2.0436,-2.0478,-2.0928,-2.1135,-2.1166,-2.158,-2.1738,-2.1697,-2.0531,0.0,0.0,0.0,0.0,0.0,0.0,-2.0595,-2.0586,-2.0595,-2.0605,-2.0586,-2.0156,-1.9932,-1.9835,-1.9046,-1.8412,-1.8057,-1.8027,-1.8008,-1.8008,-1.8178,0.0,0.0,0.0,0.0,0.0,0.0,0.0,0.0,0.0,0.0,0.0,0.0,0.0,0.0,0.0,0.0,0.0,0.0,0.0,0.0,-1.6908,0.0,0.0,0.0,0.0,0.0,0.0,0.0,0.0,0.0,0.0,-1.7325,-1.7439,-1.7614,-1.7605,0.0,0.0,0.0,0.0,-1.7658,-1.7667,-1.7658,-1.7667,-1.7667,-1.7658,-1.7745,-1.8053,0.0,0.0,-1.8661,-1.853,-1.8299,-1.7875,-1.7633,-1.7314,-1.6719,-1.6751,-1.6874,-1.6874,-1.6874,-1.676,-1.6412,-1.6272,-1.6202,-2.1807,0.0,0.0,0.0,0.0,-2.1466,-2.1414,-2.1377,-2.1414,-2.1377,-2.1404,-2.1404,0.0,0.0,0.0,0.0,0.0,0.0,-2.1404,-2.1404,-2.1404,-2.1414,-2.1414,-2.1538,-2.1611,-2.1621,-2.1735,-2.1807,-2.1797,-2.1425,-2.1152,-2.0974,0.0,0.0,0.0,0.0,-2.0741,-2.0605,-2.0615,-2.0615,-2.0605,-2.0478,-2.0234,-1.9884,-1.9046,-1.8549,-1.8422,-1.8164,-1.8066,-1.8212,-1.8269,0.0,0.0,0.0,0.0,0.0,0.0,0.0,0.0,0.0,0.0,0.0,0.0,0.0,0.0,0.0,0.0,0.0,0.0,0.0,-1.6908,-1.6908,-1.7018,0.0,0.0,0.0,0.0,0.0,0.0,0.0,0.0,0.0,-1.8271,-1.8079,-1.7979,0.0,0.0,-1.8397,-1.8397,-1.8634,-1.8816,-1.8816,-1.8816,0.0,-1.8629,-1.859,-1.8587,-1.8554,-1.8633,-1.8827,-1.9085,-1.9091,-1.88,-1.8135,-1.7953,-1.7688,-1.6994,-1.6874,-1.6908,-1.6908,-1.6908,-1.6769,-1.6377,-1.6307,-1.6211,-2.2408,-2.2297,-2.1956,-2.1845,-2.1921,-2.1911,-2.1959,-2.2025,-2.2025,-2.1997,-2.1911,-2.1921,-2.1883,-2.1807,-2.1807,0.0,0.0,0.0,-2.1807,-2.1807,-2.1807,-2.1807,-2.1807,-2.1807,-2.1807,-2.1807,-2.1807,-2.1807,-2.1807,-2.1807,-2.1731,-2.1617,0.0,0.0,-2.1022,-2.1022,-2.0935,-2.0731,-2.0693,-2.0693,-2.0595,-2.0615,-2.039,-1.9922,-1.9377,-1.8948,-1.8607,-1.8423,-1.8345,-1.8313,-1.8448,-1.863,0.0,0.0,0.0,0.0,0.0,0.0,0.0,0.0,0.0,0.0,0.0,-1.8375,-1.7735,0.0,0.0,0.0,-1.6934,-1.6908,-1.6908,-1.7046,0.0,0.0,0.0,0.0,0.0,0.0,0.0,-1.8348,-1.8705,-1.8953,-1.8944,-1.8742,-1.8586,-1.8557,-1.8759,-1.8953,-1.8944,0.0,-1.9292,-1.9292,-1.9292,-1.9262,-1.9152,-1.9112,-1.9073,-1.8962,-1.9042,-1.9152,-1.9262,-1.9292,-1.9017,-1.831,-1.8081,-1.7825,-1.7055,-1.6908,-1.6908,-1.6908,-1.6908,-1.676,-1.6377,-1.6307,-1.6211,-2.3403,-2.3087,-2.229,-2.2022,-2.2101,-2.2149,-2.2252,-2.2402,-2.2402,-2.2289,-2.2149,-2.2149,-2.1987,-2.1845,-2.1797,0.0,-2.1807,-2.1807,-2.1807,-2.1807,-2.1807,-2.1807,-2.1807,-2.1807,-2.1807,-2.1807,-2.1807,-2.1807,-2.1807,-2.1807,-2.1828,-2.1859,-2.1678,-2.1466,-2.1254,-2.1244,-2.1138,-2.0916,-2.0906,-2.0819,-2.0605,-2.0615,-2.041,-1.998,-1.9932,-1.9541,-1.8744,-1.8878,-1.8775,-1.8476,-1.8751,-1.9114,-1.9567,0.0,0.0,0.0,0.0,0.0,0.0,0.0,0.0,0.0,0.0,0.0,0.0,0.0,0.0,0.0,-1.7165,0.0,-1.7035,-1.7366,0.0,0.0,0.0,-1.8145,-1.8182,-1.8531,-1.876,-1.8751,0.0,0.0,-1.9292,-1.9292,-1.9292,-1.9292,-1.9292,-1.9292,-1.9292,-1.9283,-1.9292,-1.9292,-1.9292,-1.9292,-1.9253,-1.9253,-1.9253,-1.9253,-1.9292,-1.9301,-1.9301,-1.9292,-1.8981,-1.8292,-1.8109,-1.7889,-1.7057,-1.6954,-1.6908,-1.6908,-1.6908,-1.6795,-1.6412,-1.6307,-1.6211,-2.3732,-2.3615,-2.3419,-2.2935,-2.2338,-2.2327,-2.2365,-2.2402,-2.2392,-2.2365,-2.2317,-2.2327,-2.2214,-2.2025,-2.1873,-2.1807,-2.1807,-2.1807,-2.1807,-2.1807,-2.1807,-2.1807,-2.1807,-2.1807,-2.1807,-2.1807,-2.1807,-2.1807,-2.1807,-2.1807,-2.1983,-2.2325,-2.2296,-2.2004,-2.1446,-2.1425,-2.132,-2.1128,-2.0984,-2.0819,-2.0605,-2.0615,-2.0556,-2.0449,-2.0088,-1.9777,-1.9619,-1.9479,-1.9451,-1.9504,-1.9743,-1.996,-2.0194,-2.0674,0.0,0.0,0.0,0.0,0.0,0.0,0.0,0.0,0.0,-1.9627,-1.8935,0.0,-1.8657,0.0,-1.8326,-1.8217,-1.8081,-1.8128,0.0,0.0,-1.8513,-1.8696,-1.899,-1.9109,-1.9164,-1.9164,-1.9246,-1.9292,-1.9292,-1.9292,-1.9292,-1.9292,-1.9292,-1.9292,-1.9292,-1.9292,-1.9292,-1.9292,-1.9292,-1.9292,-1.9292,-1.9292,-1.9292,-1.9292,-1.9292,-1.9292,-1.9292,-1.9292,-1.9136,-1.866,-1.8274,-1.7944,-1.744,-1.7119,-1.6927,-1.6908,-1.6908,-1.6769,-1.6386,-1.6307,-1.6211,-2.4551,-2.4427,-2.4427,-2.4018,-2.3322,-2.3223,-2.3272,-2.33,-2.3085,-2.2912,-2.2825,-2.2412,-2.2214,-2.2101,-2.1921,-2.1807,-2.1807,-2.1807,-2.1807,-2.1807,-2.1807,-2.1807,-2.1818,-2.2014,-2.2108,-2.2118,-2.2315,-2.2418,-2.2428,-2.2418,-2.2553,-2.2801,-2.2801,-2.2637,-2.2282,-2.2272,-2.2143,-2.1957,-2.1529,-2.1134,-2.0741,-2.0731,-2.0693,-2.0595,-2.037,-2.0107,-1.9922,-1.9957,-1.9969,-1.9907,-2.0165,-2.0427,-2.0721,-2.0932,-2.1207,0.0,0.0,0.0,0.0,0.0,0.0,0.0,0.0,0.0,0.0,0.0,-1.9345,-1.8858,-1.8765,-1.8655,-1.8544,-1.8686,-1.8854,-1.8964,-1.9112,-1.9297,-1.9411,-1.9429,-1.939,-1.9301,-1.9292,-1.9292,-1.9292,-1.9292,-1.9292,-1.9292,-1.9292,-1.9292,-1.9292,-1.9292,-1.9292,-1.9292,-1.9292,-1.9292,-1.9292,-1.9292,-1.9292,-1.9292,-1.9292,-1.9292,-1.9292,-1.9292,-1.9173,-1.8779,-1.8356,-1.799,-1.7578,-1.7174,-1.6917,-1.6908,-1.6908,-1.6735,-1.6377,-1.6307,-1.6211,-2.5478,-2.5314,-2.5303,-2.5073,-2.4672,-2.448,-2.4454,-2.4454,-2.4017,-2.3705,-2.349,-2.2737,-2.2366,-2.2289,-2.2098,-2.2022,-2.1983,-2.1983,-2.1983,-2.1983,-2.1983,-2.1973,-2.1994,-2.2397,-2.2584,-2.2604,-2.2998,-2.3194,-2.3194,-2.3194,-2.3215,-2.3277,-2.3277,-2.3308,-2.336,-2.336,-2.3227,-2.291,-2.2261,-2.1609,-2.0995,-2.0936,-2.0819,-2.0605,-2.0615,-2.0391,-2.0019,-2.0387,-2.0413,-2.0125,-2.0411,-2.0783,-2.1139,-2.1197,-2.1383,0.0,-2.1807,0.0,0.0,0.0,0.0,0.0,0.0,0.0,0.0,-2.0329,-2.0031,-1.9308,-1.9075,-1.8964,-1.8917,-1.9231,-1.9411,-1.9392,-1.9685,-1.9833,-1.9676,-1.9645,-1.9557,-1.935,-1.9341,-1.9341,-1.9292,-1.9292,-1.9292,-1.9292,-1.9292,-1.9292,-1.9292,-1.9292,-1.9292,-1.9292,-1.9292,-1.9292,-1.9292,-1.9292,-1.9292,-1.9292,-1.9292,-1.9292,-1.9292,-1.9292,-1.9191,-1.8852,-1.8504,-1.8091,-1.7651,-1.7266,-1.6982,-1.6917,-1.6908,-1.6769,-1.6412,-1.6307,-1.6175,-2.5799,-2.5753,-2.5764,-2.571,-2.5633,-2.5581,-2.5156,-2.4486,-2.4388,-2.4305,-2.4255,-2.3949,-2.3709,-2.3472,-2.3284,-2.3085,-2.2925,-2.2925,-2.2925,-2.2925,-2.2925,-2.2925,-2.2936,-2.3018,-2.306,-2.306,-2.3183,-2.3194,-2.3194,-2.3194,-2.3381,-2.3732,-2.3743,-2.3929,-2.4228,0.0,0.0,0.0,-2.242,-2.1947,-2.1481,-2.1085,-2.0819,-2.0605,-2.0615,0.0,-2.0488,-2.0834,-2.1034,-2.0964,-2.1322,0.0,0.0,0.0,0.0,0.0,0.0,0.0,0.0,0.0,0.0,0.0,-2.1693,-2.1499,-2.1046,-2.0988,-2.0891,-2.0582,-2.0505,-2.0342,-2.0024,-2.0052,-2.0032,-1.9837,-1.9855,-1.9863,-1.9824,-1.9863,-1.9754,-1.9557,-1.9557,-1.9478,-1.9341,-1.9292,-1.9292,-1.9292,-1.9292,-1.9292,-1.9292,-1.9292,-1.9292,-1.9292,-1.9292,-1.9292,-1.9292,-1.9292,-1.9292,-1.9292,-1.9292,-1.9292,-1.9292,-1.9292,-1.9292,-1.9155,-1.8832,-1.8467,-1.8073,-1.7669,-1.7266,-1.6963,-1.6908,-1.6769,-1.6377,-1.6307,-1.6202,-2.5895,0.0,-2.5895,-2.5895,0.0,-2.5895,-2.5633,-2.5164,-2.4934,-2.4694,-2.4497,-2.4306,-2.4057,-2.3788,-2.3587,-2.3386,-2.3194,-2.3194,-2.3194,-2.3194,-2.3194,-2.3194,-2.3194,-2.3463,-2.3525,-2.3546,-2.3743,-2.3857,-2.3857,-2.3857,-2.3981,-2.4198,-2.4209,-2.4312,-2.4497,-2.4507,-2.4124,-2.3402,-2.2909,-2.245,-2.1888,-2.1359,-2.0945,-2.0741,-2.0644,0.0,0.0,0.0,0.0,0.0,0.0,0.0,0.0,-2.1807,0.0,-2.1807,-2.1807,-2.1807,-2.1807,-2.1807,-2.1807,-2.1807,-2.1807,-2.1693,-2.1359,-2.1244,-2.1177,-2.1061,-2.0945,-2.0819,-2.0625,-2.0498,-2.0381,-2.0245,-2.0255,-2.0216,-2.0108,-2.0098,-2.0029,-1.9794,-1.9636,-1.9557,-1.9469,-1.935,-1.9292,-1.9292,-1.9292,-1.9292,-1.9292,-1.9292,-1.9292,-1.9292,-1.9292,-1.9292,-1.9292,-1.9292,-1.9292,-1.9292,-1.9292,-1.9292,-1.9292,-1.9292,-1.9292,-1.9265,-1.8981,-1.8586,-1.8155,-1.7743,-1.7376,-1.7018,-1.6908,-1.6769,-1.6377,-1.6307,-1.6211,-2.5895,-2.5895,-2.5895,-2.5895,-2.5895,-2.5895,-2.5895,-2.5874,0.0,0.0,0.0,-2.4545,-2.4304,-2.4032,-2.3829,-2.3626,-2.3432,-2.3422,-2.3422,-2.3422,-2.3432,-2.3422,-2.3453,-2.3805,-2.4002,-2.4012,-2.4321,-2.4507,-2.4507,-2.4507,-2.4507,-2.4507,-2.4507,-2.4507,-2.4507,-2.4507,-2.428,-2.3877,-2.3422,-2.2917,-2.2308,-2.1632,-2.1138,-2.0906,-2.0731,-2.0644,-2.0595,-2.0964,-2.1215,-2.1205,-2.1578,-2.1807,-2.1807,-2.1807,-2.1807,-2.1807,-2.1807,-2.1807,-2.1807,-2.1807,-2.1807,-2.1807,-2.1807,-2.1731,-2.1578,-2.1397,-2.1282,-2.1244,-2.1099,-2.0984,-2.0906,-2.0741,-2.0644,-2.0605,-2.0615,-2.0527,-2.0381,-2.0342,-2.0264,-2.0029,-1.9833,-1.9676,-1.9606,-1.9478,-1.9341,-1.9292,-1.9292,-1.9292,-1.9292,-1.9292,-1.9292,-1.9292,-1.9292,-1.9292,-1.9292,-1.9292,-1.9292,-1.9292,-1.9292,-1.9292,-1.9292,-1.9292,-1.9292,-1.9292,-1.9017,-1.866,-1.8182,-1.7862,-1.7449,-1.6991,-1.6864,-1.6735,-1.6421,-1.6281,-1.6175,-2.5906,-2.5895,-2.5895,-2.5895,-2.5895,-2.5895,-2.5895,-2.5895,-2.583,-2.5753,-2.5699,-2.5491,-2.5271,-2.5009,-2.4798,-2.4555,-2.4311,-2.4311,-2.4311,-2.4311,-2.4301,-2.4311,-2.4311,-2.4373,-2.4404,-2.4414,-2.4466,-2.4507,-2.4507,-2.4507,-2.4507,-2.4507,-2.4507,-2.4507,-2.4507,-2.4507,-2.428,-2.3929,-2.3422,-2.3082,-2.2798,-2.1951,-2.1292,-2.0945,-2.0867,-2.078,-2.0605,-2.0974,-2.1215,-2.1215,-2.1578,-2.1807,-2.1807,-2.1807,-2.1807,-2.1807,-2.1807,-2.1807,-2.1807,-2.1807,-2.1807,-2.1807,-2.1807,-2.1807,-2.1769,-2.1731,-2.1655,-2.1464,-2.1436,-2.1282,-2.0945,-2.0867,-2.078,-2.0605,-2.0615,-2.0566,-2.0566,-2.0527,-2.045,-2.0264,-2.0225,-2.0039,-1.9715,-1.9606,-1.9478,-1.9341,-1.9292,-1.9292,-1.9292,-1.9292,-1.9292,-1.9292,-1.9292,-1.9292,-1.9292,-1.9292,-1.9292,-1.9292,-1.9283,-1.9246,-1.9246,-1.921,-1.9201,-1.9274,-1.9136,-1.8852,-1.8247,-1.8054,-1.7678,-1.7082,-1.6786,-1.6577,-1.6351,-1.6202,-1.6061,-2.6147,-2.5906,-2.5895,-2.5895,-2.5895,-2.5895,-2.5812,-2.5728,-2.5728,-2.5728,-2.5738,-2.5464,-2.5253,-2.5031,-2.4946,-2.4743,-2.4507,-2.4507,-2.4507,-2.4507,-2.4507,-2.4507,-2.4507,-2.4507,-2.4507,-2.4507,-2.4507,-2.4507,-2.4507,-2.4507,-2.4507,-2.4507,-2.4507,-2.4507,-2.4507,-2.4507,-2.428,-2.3929,-2.3422,-2.3019,-2.2692,-2.1888,-2.1359,-2.1061,-2.0984,-2.0829,-2.0595,-2.1012,-2.1215,-2.1215,-2.1578,-2.1807,-2.1807,-2.1807,-2.1807,-2.1807,-2.1807,-2.1807,-2.1807,-2.1807,-2.1807,-2.1807,-2.1807,-2.1807,-2.1807,-2.1807,-2.178,-2.1655,-2.1578,-2.1397,-2.1099,-2.0984,-2.0829,-2.0595,-2.0615,-2.0615,-2.0615,-2.0615,-2.0566,-2.0459,-2.0381,-2.0225,-1.999,-1.9754,-1.9566,-1.9478,-1.939,-1.9292,-1.9292,-1.939,-1.9469,-1.9439,-1.939,-1.935,-1.9429,-1.9341,-1.9292,-1.9292,-1.9118,-1.8999,-1.8962,-1.8843,-1.8696,-1.8669,-1.866,-1.843,-1.7844,-1.7779,-1.7504,-1.7075,-1.6716,-1.6542,-1.6342,-1.6105,-1.5894,-2.6354,-2.5906,-2.5895,-2.5895,-2.5906,-2.5864,-2.5728,-2.5601,-2.5464,-2.5433,-2.5422,-2.52,-2.5031,-2.4903,-2.4818,-2.47,-2.4497,-2.4507,-2.4507,-2.4507,-2.4507,-2.4507,-2.4507,-2.4507,-2.4507,-2.4507,-2.4507,-2.4507,-2.4507,-2.4507,-2.4507,-2.4507,-2.4507,-2.4507,-2.4507,-2.4507,-2.4271,-2.3732,-2.337,-2.2956,-2.2511,-2.1891,-2.1464,-2.1282,-2.1061,-2.0858,-2.0693,-2.0974,-2.1167,-2.1215,-2.155,-2.1759,-2.1807,-2.1807,-2.1807,-2.1807,-2.1807,-2.1807,-2.1807,-2.1807,-2.1807,-2.1807,-2.1807,-2.1807,-2.1807,-2.1807,-2.1807,-2.1769,-2.1655,-2.1474,-2.1244,-2.1051,-2.0858,-2.0644,-2.0615,-2.0615,-2.0615,-2.0615,-2.0615,-2.0566,-2.0459,-2.0342,-2.0225,-1.999,-1.9764,-1.9676,-1.9548,-1.9469,-1.946,-1.9597,-1.9676,-1.9715,-1.9597,-1.9469,-1.9597,-1.9367,-1.9233,-1.9203,-1.8834,-1.8623,-1.8531,-1.8311,-1.8164,-1.8145,-1.8127,-1.8009,-1.7623,-1.7504,-1.7348,-1.7009,-1.6691,-1.6438,-1.6211,-1.5929,-1.5761,-2.6301,-2.5928,-2.5895,-2.5895,-2.5853,-2.5696,-2.5601,-2.5517,-2.5168,-2.4988,-2.4956,-2.4946,-2.4903,-2.4871,-2.4658,-2.454,-2.4507,-2.4507,-2.4507,-2.4507,-2.4507,-2.4507,-2.4507,-2.4507,-2.4507,-2.4507,-2.4507,-2.4507,-2.4507,-2.4507,-2.4507,-2.4507,-2.4507,-2.4507,-2.4507,-2.4507,-2.4115,-2.3277,-2.3245,-2.3007,-2.2501,-2.2007,-2.1693,-2.1464,-2.1282,-2.1061,-2.0867,-2.0906,-2.1022,-2.1177,-2.1387,-2.1617,-2.1769,-2.1807,-2.1807,-2.1769,-2.1807,-2.1807,-2.1807,-2.1807,-2.1807,-2.1807,-2.1807,-2.1807,-2.1807,-2.1807,-2.1769,-2.1769,-2.1769,-2.1578,-2.1282,-2.1177,-2.0964,-2.0644,-2.0615,-2.0615,-2.0615,-2.0615,-2.0615,-2.0615,-2.0566,-2.0527,-2.0342,-2.0225,-2.0108,-1.9863,-1.9784,-1.9784,-1.9784,-1.9824,-1.9942,-2.0108,-2.002,-1.9756,-1.9601,-1.9253,-1.899,-1.8781,-1.844,-1.8182,-1.8109,-1.8081,-1.8063,-1.788,-1.7981,-1.7807,-1.7605,-1.7477,-1.733,-1.6958,-1.663,-1.6246,-1.5938,-1.5682,-1.5576,-2.6163,-2.5517,-2.5464,-2.5506,-2.5464,-2.538,-2.5295,-2.5168,-2.4988,-2.4828,-2.4668,-2.4658,-2.4658,-2.4668,-2.454,-2.4507,-2.4507,-2.4507,-2.4507,-2.4507,-2.4507,-2.4507,-2.4507,-2.4507,-2.4507,-2.4507,-2.4507,-2.4507,-2.4507,-2.4507,-2.4507,-2.4507,-2.4507,-2.4507,-2.4507,-2.4507,-2.4187,-2.3608,-2.3318,-2.2967,-2.2501,-2.2045,-2.1693,-2.1502,-2.132,-2.1099,-2.0945,-2.0906,-2.0955,-2.1012,-2.1205,-2.1359,-2.1425,-2.154,-2.1606,-2.1617,-2.1731,-2.1807,-2.1807,-2.1807,-2.1807,-2.1807,-2.1807,-2.1807,-2.1807,-2.1703,-2.1617,-2.1617,-2.1617,-2.1502,-2.1244,-2.1089,-2.0896,-2.0644,-2.0615,-2.0615,-2.0615,-2.0615,-2.0615,-2.0615,-2.0615,-2.0566,-2.0489,-2.0381,-2.0186,-1.9951,-1.9902,-1.9902,-1.9902,-2.002,-2.0186,-2.0235,-2.0062,-1.9774,-1.9476,-1.8966,-1.8629,-1.8368,-1.8018,-1.7761,-1.7734,-1.7523,-1.7394,-1.7422,-1.7458,-1.7422,-1.7183,-1.7147,-1.7064,-1.6804,-1.656,-1.6211,-1.5876,-1.5647,-1.5497,-2.6062,-2.5264,-2.52,-2.52,-2.52,-2.5158,-2.5031,-2.4903,-2.4818,-2.4658,-2.4507,-2.4507,-2.4507,-2.4507,-2.4507,-2.4507,-2.4507,-2.4507,-2.4507,-2.4507,-2.4507,-2.4507,-2.4507,-2.4507,-2.4507,-2.4507,-2.4507,-2.4507,-2.4507,-2.4507,-2.4507,-2.4507,-2.4507,-2.4507,-2.4507,-2.4507,-2.4322,-2.3877,-2.3422,-2.2967,-2.2501,-2.2045,-2.1721,-2.1578,-2.132,-2.1138,-2.0984,-2.0896,-2.0858,-2.0906,-2.1022,-2.1138,-2.1215,-2.1349,-2.1436,-2.1512,-2.1617,-2.1731,-2.1769,-2.1807,-2.1807,-2.1807,-2.1769,-2.1693,-2.1693,-2.154,-2.1436,-2.1425,-2.1397,-2.1244,-2.1128,-2.0984,-2.0819,-2.0615,-2.0615,-2.0615,-2.0615,-2.0615,-2.0615,-2.0615,-2.0615,-2.0615,-2.0566,-2.0489,-2.0342,-2.0177,-2.0098,-2.0098,-2.0098,-2.0255,-2.0343,-2.0207,-1.9944,-1.9656,-1.9336,-1.8751,-1.8285,-1.7935,-1.7605,-1.7339,-1.733,-1.7055,-1.6917,-1.7138,-1.6963,-1.6927,-1.6991,-1.6945,-1.6813,-1.67,-1.6491,-1.6175,-1.5876,-1.5611,-1.539,-2.6062,-2.5253,-2.5211,-2.52,-2.52,-2.4988,-2.4903,-2.4861,-2.4625,-2.4497,-2.4507,-2.4507,-2.4507,-2.4507,-2.4507,-2.4507,-2.4507,-2.4507,-2.4507,-2.4507,-2.4507,-2.4507,-2.4507,-2.4507,-2.4507,-2.4507,-2.4507,-2.4507,-2.4507,-2.4507,-2.4507,-2.4507,-2.4507,-2.4507,-2.4507,-2.4507,-2.428,-2.3929,-2.3432,-2.2977,-2.2511,-2.2056,-2.1807,-2.1731,-2.1397,-2.1167,-2.1138,-2.0799,-2.0693,-2.0906,-2.0906,-2.0984,-2.1177,-2.1205,-2.132,-2.1474,-2.1502,-2.1589,-2.1731,-2.1769,-2.1769,-2.1769,-2.1627,-2.1512,-2.1512,-2.132,-2.1205,-2.1205,-2.1051,-2.0945,-2.0906,-2.0858,-2.078,-2.0615,-2.0615,-2.0615,-2.0615,-2.0615,-2.0615,-2.0615,-2.0615,-2.0615,-2.0615,-2.0615,-2.0576,-2.0527,-2.0527,-2.0527,-2.0489,-2.0566,-2.041,-2.0001,-1.965,-1.9316,-1.9212,-1.8579,-1.7992,-1.762,-1.7275,-1.6982,-1.6945,-1.6908,-1.6908,-1.6908,-1.6908,-1.6908,-1.6908,-1.6839,-1.67,-1.656,-1.6412,-1.614,-1.5867,-1.5497,-1.5275,-2.5578,-2.4754,-2.4743,-2.4743,-2.4743,-2.4668,-2.4658,-2.4615,-2.454,-2.4507,-2.4507,-2.4507,-2.4507,-2.4507,-2.4507,-2.4507,-2.4507,-2.4507,-2.4507,-2.4507,-2.4507,-2.4507,-2.4507,-2.4507,-2.4507,-2.4507,-2.4507,-2.4507,-2.4507,-2.4507,-2.4507,-2.4507,-2.4507,-2.4507,-2.4507,-2.4507,-2.4404,-2.425,-2.3577,-2.3101,-2.2884,-2.2201,-2.1807,-2.1769,-2.1397,-2.1215,-2.1215,-2.0809,-2.0644,-2.0693,-2.0693,-2.0731,-2.0809,-2.0935,-2.1089,-2.1282,-2.132,-2.1349,-2.1387,-2.1425,-2.1436,-2.1397,-2.1359,-2.132,-2.1282,-2.1128,-2.1012,-2.0984,-2.0819,-2.0693,-2.0702,-2.0693,-2.0683,-2.0605,-2.0615,-2.0615,-2.0615,-2.0615,-2.0615,-2.0615,-2.0615,-2.0615,-2.0615,-2.0615,-2.0615,-2.0615,-2.0615,-2.0615,-2.0615,-2.0615,-2.0449,-1.9971,-1.957,-1.9165,-1.8747,-1.8157,-1.7574,-1.7276,-1.6991,-1.6954,-1.6908,-1.6908,-1.6908,-1.6908,-1.6908,-1.6908,-1.6908,-1.6874,-1.6735,-1.6447,-1.6307,-1.6175,-1.5867,-1.5497,-1.5275,-2.5233,-2.4559,-2.4507,-2.4507,-2.4507,-2.4507,-2.4507,-2.4507,-2.4507,-2.4507,-2.4507,-2.4507,-2.4507,-2.4507,-2.4507,-2.4507,-2.4507,-2.4507,-2.4507,-2.4507,-2.4507,-2.4507,-2.4507,-2.4507,-2.4507,-2.4507,-2.4507,-2.4507,-2.4507,-2.4507,-2.4507,-2.4507,-2.4507,-2.4507,-2.4507,-2.4507,-2.4507,-2.4342,-2.365,-2.3184,-2.308,-2.2283,-2.1807,-2.1731,-2.1397,-2.1215,-2.1215,-2.0809,-2.0615,-2.0615,-2.0615,-2.0615,-2.0615,-2.0731,-2.0896,-2.1061,-2.1089,-2.1138,-2.1167,-2.1215,-2.1215,-2.1215,-2.1138,-2.1089,-2.1089,-2.0945,-2.0819,-2.077,-2.0693,-2.0615,-2.0615,-2.0605,-2.0615,-2.0615,-2.0615,-2.0615,-2.0615,-2.0615,-2.0615,-2.0615,-2.0615,-2.0615,-2.0615,-2.0615,-2.0615,-2.0615,-2.0615,-2.0615,-2.0615,-2.0595,-2.037,-1.9824,-1.9482,-1.8951,-1.8453,-1.7871,-1.7536,-1.7232,-1.6989,-1.6952,-1.6908,-1.6908,-1.6908,-1.6908,-1.6908,-1.6908,-1.6908,-1.6908,-1.67,-1.6377,-1.6272,-1.6175,-1.5859,-1.5497,-1.5311,-2.4931,-2.4528,-2.4507,-2.4507,-2.4507,-2.4507,-2.4507,-2.4507,-2.4507,-2.4507,-2.4507,-2.4507,-2.4507,-2.4507,-2.4507,-2.4507,-2.4507,-2.4507,-2.4507,-2.4507,-2.4507,-2.4507,-2.4507,-2.4507,-2.4507,-2.4507,-2.4507,-2.4507,-2.4507,-2.4507,-2.4507,-2.4507,-2.4507,-2.4507,-2.4507,-2.4507,-2.4507,-2.4311,-2.365,-2.3194,-2.308,-2.2283,-2.1807,-2.1769,-2.1397,-2.1215,-2.1215,-2.0809,-2.0615,-2.0615,-2.0615,-2.0615,-2.0615,-2.0615,-2.0702,-2.0867,-2.0906,-2.0974,-2.1128,-2.1177,-2.1128,-2.1089,-2.1022,-2.0906,-2.0896,-2.0731,-2.0644,-2.0654,-2.0605,-2.0615,-2.0615,-2.0615,-2.0615,-2.0615,-2.0615,-2.0615,-2.0615,-2.0615,-2.0615,-2.0615,-2.0615,-2.0615,-2.0615,-2.0615,-2.0615,-2.0615,-2.0615,-2.0615,-2.0615,-2.0615,-2.0224,-1.958,-1.9277,-1.8987,-1.8302,-1.7681,-1.7476,-1.7279,-1.7081,-1.6968,-1.6908,-1.6908,-1.6908,-1.6908,-1.6908,-1.6908,-1.6908,-1.6874,-1.67,-1.6456,-1.6342,-1.6175,-1.5859,-1.5541,-1.5311,-2.4921,-2.4518,-2.4507,-2.4507,-2.4507,-2.4507,-2.4507,-2.4507,-2.4507,-2.4507,-2.4507,-2.4507,-2.4507,-2.4507,-2.4507,-2.4507,-2.4507,-2.4507,-2.4507,-2.4507,-2.4507,-2.4507,-2.4507,-2.4507,-2.4507,-2.4507,-2.4507,-2.4507,-2.4507,-2.4507,-2.4507,-2.4507,-2.4507,-2.4507,-2.4507,-2.4507,-2.4507,-2.4394,-2.365,-2.3194,-2.3111,-2.2283,-2.1818,-2.1769,-2.1436,-2.1215,-2.1177,-2.0809,-2.0605,-2.0615,-2.0615,-2.0615,-2.0615,-2.0615,-2.0644,-2.0693,-2.0693,-2.0693,-2.077,-2.0809,-2.0809,-2.077,-2.0731,-2.0693,-2.0693,-2.0654,-2.0615,-2.0615,-2.0615,-2.0615,-2.0615,-2.0615,-2.0615,-2.0615,-2.0615,-2.0615,-2.0615,-2.0615,-2.0615,-2.0615,-2.0615,-2.0615,-2.0615,-2.0615,-2.0615,-2.0615,-2.0615,-2.0615,-2.0615,-2.0615,-2.0273,-1.9482,-1.9307,-1.8984,-1.8255,-1.7784,-1.7647,-1.7442,-1.7235,-1.7038,-1.6968,-1.6908,-1.6908,-1.6908,-1.6908,-1.6908,-1.6908,-1.6839,-1.6665,-1.6482,-1.6307,-1.6105,-1.5832,-1.5576,-1.5311,-2.4921,-2.4518,-2.4507,-2.4507,-2.4507,-2.4507,-2.4507,-2.4507,-2.4507,-2.4507,-2.4507,-2.4507,-2.4507,-2.4507,-2.4507,-2.4507,-2.4507,-2.4507,-2.4507,-2.4507,-2.4507,-2.4507,-2.4507,-2.4507,-2.4507,-2.4507,-2.4507,-2.4507,-2.4507,-2.4507,-2.4507,-2.4507,-2.4507,-2.4507,-2.4507,-2.4507,-2.4507,-2.4373,-2.366,-2.3194,-2.2998,-2.2283,-2.1807,-2.1731,-2.1397,-2.1215,-2.1167,-2.0799,-2.0615,-2.0615,-2.0615,-2.0615,-2.0615,-2.0615,-2.0615,-2.0615,-2.0615,-2.0605,-2.0615,-2.0615,-2.0615,-2.0615,-2.0615,-2.0615,-2.0605,-2.0615,-2.0615,-2.0615,-2.0615,-2.0615,-2.0615,-2.0615,-2.0615,-2.0615,-2.0615,-2.0615,-2.0615,-2.0615,-2.0615,-2.0615,-2.0615,-2.0615,-2.0615,-2.0615,-2.0615,-2.0615,-2.0615,-2.0615,-2.0615,-2.0615,-2.0096,-1.959,-1.9316,-1.8848,-1.8149,-1.7896,-1.7794,-1.7613,-1.7407,-1.7201,-1.7072,-1.6943,-1.6908,-1.6908,-1.6908,-1.6908,-1.6908,-1.6908,-1.676,-1.6551,-1.6272,-1.6105,-1.5867,-1.5461,-1.5204,-2.4921,-2.4518,-2.4507,-2.4507,-2.4507,-2.4507,-2.4507,-2.4507,-2.4507,-2.4507,-2.4507,-2.4507,-2.4507,-2.4507,-2.4507,-2.4507,-2.4507,-2.4507,-2.4507,-2.4507,-2.4507,-2.4507,-2.4507,-2.4507,-2.4507,-2.4507,-2.4507,-2.4507,-2.4507,-2.4507,-2.4507,-2.4507,-2.4507,-2.4507,-2.4507,-2.4507,-2.4507,-2.4383,-2.365,-2.3194,-2.3143,-2.2283,-2.1769,-2.1731,-2.1397,-2.1177,-2.1099,-2.0809,-2.0615,-2.0615,-2.0615,-2.0615,-2.0615,-2.0615,-2.0615,-2.0615,-2.0615,-2.0615,-2.0615,-2.0615,-2.0615,-2.0615,-2.0615,-2.0615,-2.0615,-2.0615,-2.0615,-2.0615,-2.0615,-2.0615,-2.0615,-2.0615,-2.0615,-2.0615,-2.0615,-2.0615,-2.0615,-2.0615,-2.0615,-2.0615,-2.0615,-2.0615,-2.0615,-2.0615,-2.0615,-2.0615,-2.0615,-2.0615,-2.0576,-2.0468,-2.0136,-1.9734,-1.9258,-1.875,-1.8115,-1.7964,-1.7862,-1.7681,-1.7476,-1.7314,-1.7132,-1.7003,-1.6908,-1.6908,-1.6908,-1.6908,-1.6908,-1.6864,-1.6726,-1.6447,-1.6237,-1.6105,-1.5823,-1.5461,-1.5204,-2.4921,-2.4507,-2.4507,-2.4507,-2.4507,-2.4507,-2.4507,-2.4507,-2.4507,-2.4507,-2.4507,-2.4507,-2.4507,-2.4507,-2.4507,-2.4507,-2.4507,-2.4507,-2.4507,-2.4507,-2.4507,-2.4507,-2.4507,-2.4507,-2.4507,-2.4507,-2.4507,-2.4507,-2.4507,-2.4507,-2.4507,-2.4507,-2.4507,-2.4507,-2.4507,-2.4507,-2.4507,-2.4383,-2.365,-2.3194,-2.3049,-2.2283,-2.1741,-2.1578,-2.131,-2.1128,-2.0984,-2.0731,-2.0615,-2.0615,-2.0615,-2.0615,-2.0615,-2.0615,-2.0615,-2.0615,-2.0615,-2.0615,-2.0615,-2.0615,-2.0615,-2.0615,-2.0615,-2.0615,-2.0615,-2.0615,-2.0615,-2.0615,-2.0615,-2.0615,-2.0615,-2.0615,-2.0615,-2.0615,-2.0615,-2.0615,-2.0615,-2.0615,-2.0615,-2.0615,-2.0615,-2.0615,-2.0615,-2.0615,-2.0615,-2.0615,-2.0615,-2.0605,-2.0576,-2.0264,-1.9932,-1.9463,-1.9014,-1.8574,-1.8203,-1.8066,-1.793,-1.7716,-1.7554,-1.7358,-1.7176,-1.6994,-1.6934,-1.6908,-1.6864,-1.683,-1.6864,-1.6864,-1.6621,-1.6307,-1.6237,-1.614,-1.5823,-1.5461,-1.524,-2.4735,-2.4507,-2.4507,-2.4507,-2.4507,-2.4507,-2.4507,-2.4507,-2.4507,-2.4507,-2.4507,-2.4507,-2.4507,-2.4507,-2.4507,-2.4507,-2.4507,-2.4507,-2.4507,-2.4507,-2.4507,-2.4507,-2.4507,-2.4507,-2.4507,-2.4507,-2.4507,-2.4507,-2.4507,-2.4507,-2.4507,-2.4507,-2.4507,-2.4507,-2.4507,-2.4507,-2.4507,-2.4342,-2.367,-2.3194,-2.3122,-2.2206,-2.1689,-2.1464,-2.1244,-2.0984,-2.078,-2.0654,-2.0605,-2.0615,-2.0615,-2.0615,-2.0615,-2.0615,-2.0615,-2.0615,-2.0615,-2.0615,-2.0615,-2.0615,-2.0615,-2.0615,-2.0615,-2.0615,-2.0615,-2.0615,-2.0615,-2.0615,-2.0615,-2.0615,-2.0615,-2.0615,-2.0615,-2.0615,-2.0615,-2.0615,-2.0615,-2.0615,-2.0615,-2.0615,-2.0615,-2.0615,-2.0615,-2.0615,-2.0615,-2.0615,-2.0615,-2.0615,-2.0566,-2.0146,-1.9736,-1.9287,-1.8877,-1.8467,-1.8193,-1.8013,-1.7862,-1.7681,-1.7442,-1.7289,-1.7107,-1.6959,-1.6934,-1.6874,-1.683,-1.6795,-1.676,-1.6691,-1.6482,-1.6272,-1.6237,-1.6061,-1.5753,-1.5461,-1.5275,-2.4507,-2.4507,-2.4507,-2.4507,-2.4507,-2.4507,-2.4507,-2.4507,-2.4507,-2.4507,-2.4507,-2.4507,-2.4507,-2.4507,-2.4507,-2.4507,-2.4507,-2.4507,-2.4507,-2.4507,-2.4507,-2.4507,-2.4507,-2.4507,-2.4507,-2.4507,-2.4507,-2.4507,-2.4507,-2.4507,-2.4507,-2.4507,-2.4507,-2.4507,-2.4507,-2.4507,-2.4507,-2.4342,-2.365,-2.3164,-2.2938,-2.213,-2.1494,-2.132,-2.1051,-2.0819,-2.0654,-2.0605,-2.0615,-2.0615,-2.0615,-2.0615,-2.0615,-2.0615,-2.0615,-2.0615,-2.0615,-2.0615,-2.0615,-2.0615,-2.0615,-2.0615,-2.0615,-2.0615,-2.0615,-2.0615,-2.0615,-2.0615,-2.0615,-2.0615,-2.0615,-2.0615,-2.0615,-2.0615,-2.0615,-2.0615,-2.0615,-2.0615,-2.0615,-2.0615,-2.0615,-2.0615,-2.0615,-2.0615,-2.0615,-2.0615,-2.0586,-2.0527,-2.0322,-1.9941,-1.9551,-1.915,-1.876,-1.8408,-1.8159,-1.7983,-1.7794,-1.7579,-1.7304,-1.7107,-1.6934,-1.683,-1.6839,-1.6804,-1.6691,-1.6612,-1.6577,-1.6438,-1.6272,-1.6202,-1.6167,-1.5885,-1.5611,-1.5382,-1.5204,-2.4507,-2.4507,-2.4507,-2.4507,-2.4507,-2.4507,-2.4507,-2.4507,-2.4507,-2.4507,-2.4507,-2.4507,-2.4507,-2.4507,-2.4507,-2.4507,-2.4507,-2.4507,-2.4507,-2.4507,-2.4507,-2.4507,-2.4507,-2.4507,-2.4507,-2.4507,-2.4507,-2.4507,-2.4507,-2.4507,-2.4507,-2.4507,-2.4507,-2.4507,-2.4507,-2.4507,-2.4507,-2.4342,-2.365,-2.3134,-2.2817,-2.1992,-2.132,-2.1061,-2.0809,-2.0654,-2.0615,-2.0615,-2.0615,-2.0615,-2.0615,-2.0615,-2.0615,-2.0615,-2.0615,-2.0615,-2.0615,-2.0615,-2.0615,-2.0615,-2.0615,-2.0615,-2.0615,-2.0615,-2.0615,-2.0615,-2.0615,-2.0615,-2.0615,-2.0615,-2.0615,-2.0615,-2.0615,-2.0615,-2.0615,-2.0615,-2.0615,-2.0615,-2.0615,-2.0615,-2.0615,-2.0615,-2.0615,-2.0615,-2.0615,-2.0615,-2.0527,-2.0391,-2.0088,-1.9727,-1.9326,-1.889,-1.8555,-1.8223,-1.8086,-1.7872,-1.7657,-1.7442,-1.7166,-1.6959,-1.6786,-1.6656,-1.6621,-1.6586,-1.6473,-1.6438,-1.6412,-1.6307,-1.6175,-1.614,-1.6061,-1.578,-1.5532,-1.5311,-1.5098,-2.4507,-2.4507,-2.4507,-2.4507,-2.4507,-2.4507,-2.4507,-2.4507,-2.4507,-2.4507,-2.4507,-2.4507,-2.4507,-2.4507,-2.4507,-2.4507,-2.4507,-2.4507,-2.4507,-2.4507,-2.4507,-2.4507,-2.4507,-2.4507,-2.4507,-2.4507,-2.4507,-2.4507,-2.4507,-2.4507,-2.4507,-2.4507,-2.4507,-2.4507,-2.4507,-2.4507,-2.4507,-2.4332,-2.3546,-2.2991,-2.2767,-2.1796,-2.1089,-2.0819,-2.0644,-2.0615,-2.0615,-2.0615,-2.0615,-2.0615,-2.0615,-2.0615,-2.0615,-2.0615,-2.0615,-2.0615,-2.0615,-2.0615,-2.0615,-2.0615,-2.0615,-2.0615,-2.0615,-2.0615,-2.0615,-2.0615,-2.0615,-2.0615,-2.0615,-2.0615,-2.0615,-2.0615,-2.0615,-2.0615,-2.0615,-2.0615,-2.0615,-2.0615,-2.0615,-2.0615,-2.0615,-2.0615,-2.0615,-2.0615,-2.0615,-2.0615,-2.0225,-2.0107,-1.9883,-1.9512,-1.9026,-1.8627,-1.8291,-1.8032,-1.7979,-1.7803,-1.752,-1.727,-1.6985,-1.6811,-1.6673,-1.6508,-1.6403,-1.6333,-1.6307,-1.6272,-1.6211,-1.614,-1.6035,-1.5964,-1.5823,-1.5638,-1.5453,-1.5177,-1.4955,-2.4507,-2.4507,-2.4507,-2.4507,-2.4507,-2.4507,-2.4507,-2.4507,-2.4507,-2.4507,-2.4507,-2.4507,-2.4507,-2.4507,-2.4507,-2.4507,-2.4507,-2.4507,-2.4507,-2.4507,-2.4507,-2.4507,-2.4507,-2.4507,-2.4507,-2.4507,-2.4507,-2.4507,-2.4507,-2.4507,-2.4507,-2.4507,-2.4507,-2.4507,-2.4507,-2.4507,-2.4464,-2.4298,-2.3453,-2.2819,-2.2595,-2.158,-2.0897,-2.0654,-2.0605,-2.0615,-2.0615,-2.0615,-2.0615,-2.0615,-2.0615,-2.0615,-2.0615,-2.0615,-2.0615,-2.0615,-2.0615,-2.0615,-2.0615,-2.0615,-2.0615,-2.0615,-2.0615,-2.0615,-2.0615,-2.0615,-2.0615,-2.0615,-2.0615,-2.0615,-2.0615,-2.0615,-2.0615,-2.0615,-2.0615,-2.0615,-2.0615,-2.0615,-2.0615,-2.0615,-2.0615,-2.0615,-2.0615,-2.0615,-2.0615,-2.0537,-2.0137,-1.9824,-1.96,-1.9231,-1.8773,-1.8451,-1.8154,-1.7901,-1.7813,-1.7623,-1.7373,-1.7097,-1.6811,-1.6673,-1.6533,-1.6368,-1.6237,-1.6202,-1.6132,-1.607,-1.5929,-1.578,-1.5718,-1.5682,-1.5576,-1.5426,-1.5213,-1.5007,-1.482,-2.4507,-2.4507,-2.4507,-2.4507,-2.4507,-2.4507,-2.4507,-2.4507,-2.4507,-2.4507,-2.4507,-2.4507,-2.4507,-2.4507,-2.4507,-2.4507,-2.4507,-2.4507,-2.4507,-2.4507,-2.4507,-2.4507,-2.4507,-2.4507,-2.4507,-2.4507,-2.4507,-2.4507,-2.4507,-2.4507,-2.4507,-2.4507,-2.4507,-2.4507,-2.4507,-2.4507,-2.4421,-2.418,-2.339,-2.2746,-2.223,-2.1441,-2.078,-2.0615,-2.0615,-2.0615,-2.0615,-2.0615,-2.0615,-2.0615,-2.0615,-2.0615,-2.0615,-2.0615,-2.0615,-2.0615,-2.0615,-2.0615,-2.0615,-2.0615,-2.0615,-2.0615,-2.0615,-2.0615,-2.0615,-2.0615,-2.0615,-2.0615,-2.0615,-2.0615,-2.0615,-2.0615,-2.0615,-2.0615,-2.0615,-2.0615,-2.0615,-2.0615,-2.0615,-2.0615,-2.0615,-2.0615,-2.0615,-2.0615,-2.0615,-2.0449,-2.0049,-1.9717,-1.9453,-1.9033,-1.851,-1.8247,-1.8066,-1.7813,-1.7608,-1.7426,-1.7201,-1.6959,-1.6716,-1.6542,-1.6403,-1.6237,-1.6096,-1.5991,-1.585,-1.5709,-1.5568,-1.5461,-1.5426,-1.5426,-1.5319,-1.5177,-1.5034,-1.49,-1.4784,-2.4507,-2.4507,-2.4507,-2.4507,-2.4507,-2.4507,-2.4507,-2.4507,-2.4507,-2.4507,-2.4507,-2.4507,-2.4507,-2.4507,-2.4507,-2.4507,-2.4507,-2.4507,-2.4507,-2.4507,-2.4507,-2.4507,-2.4507,-2.4507,-2.4507,-2.4507,-2.4507,-2.4507,-2.4507,-2.4507,-2.4507,-2.4507,-2.4507,-2.4507,-2.4464,-2.4378,-2.4292,-2.4,-2.3353,-2.2661,-2.2145,-2.1273,-2.0752,-2.0654,-2.0615,-2.0615,-2.0615,-2.0615,-2.0615,-2.0615,-2.0615,-2.0615,-2.0615,-2.0615,-2.0615,-2.0615,-2.0615,-2.0615,-2.0615,-2.0615,-2.0615,-2.0615,-2.0615,-2.0615,-2.0615,-2.0615,-2.0615,-2.0615,-2.0615,-2.0615,-2.0615,-2.0615,-2.0615,-2.0615,-2.0615,-2.0615,-2.0615,-2.0615,-2.0615,-2.0615,-2.0615,-2.0615,-2.0615,-2.0615,-2.0615,-2.037,-1.9961,-1.9629,-1.9326,-1.8789,-1.8247,-1.8105,-1.7906,-1.7701,-1.7495,-1.7245,-1.7063,-1.6821,-1.6577,-1.6412,-1.6202,-1.6026,-1.5885,-1.5753,-1.5568,-1.5426,-1.5355,-1.5275,-1.524,-1.5169,-1.507,-1.4999,-1.4935,-1.4828,-1.4713,-2.4507,-2.4507,-2.4507,-2.4507,-2.4507,-2.4507,-2.4507,-2.4507,-2.4507,-2.4507,-2.4507,-2.4507,-2.4507,-2.4507,-2.4507,-2.4507,-2.4507,-2.4507,-2.4507,-2.4507,-2.4507,-2.4507,-2.4507,-2.4507,-2.4507,-2.4507,-2.4507,-2.4507,-2.4507,-2.4507,-2.4507,-2.4507,-2.4507,-2.4454,-2.4411,-2.4282,-2.4206,-2.3816,-2.3343,-2.2631,-2.1925,-2.1135,-2.0615,-2.0615,-2.0615,-2.0615,-2.0615,-2.0615,-2.0615,-2.0615,-2.0615,-2.0615,-2.0615,-2.0615,-2.0615,-2.0615,-2.0615,-2.0615,-2.0615,-2.0615,-2.0615,-2.0615,-2.0615,-2.0615,-2.0615,-2.0615,-2.0615,-2.0615,-2.0615,-2.0615,-2.0615,-2.0615,-2.0615,-2.0615,-2.0615,-2.0615,-2.0615,-2.0615,-2.0615,-2.0615,-2.0615,-2.0615,-2.0615,-2.0615,-2.0615,-2.0351,-1.9989,-1.9551,-1.9189,-1.8525,-1.8061,-1.793,-1.7803,-1.7588,-1.7382,-1.7141,-1.6925,-1.6707,-1.6473,-1.6272,-1.6026,-1.5815,-1.5674,-1.5497,-1.5363,-1.5213,-1.5177,-1.5098,-1.4991,-1.4919,-1.4856,-1.4828,-1.4756,-1.4713,-1.4641,-2.4507,-2.4507,-2.4507,-2.4507,-2.4507,-2.4507,-2.4507,-2.4507,-2.4507,-2.4507,-2.4507,-2.4507,-2.4507,-2.4507,-2.4507,-2.4507,-2.4507,-2.4507,-2.4507,-2.4507,-2.4507,-2.4507,-2.4507,-2.4507,-2.4507,-2.4507,-2.4507,-2.4507,-2.4497,-2.4497,-2.4497,-2.4497,-2.4464,-2.4411,-2.4239,-2.411,-2.3991,-2.3597,-2.312,-2.2399,-2.1526,-2.0918,-2.0693,-2.0615,-2.0615,-2.0615,-2.0615,-2.0615,-2.0615,-2.0615,-2.0615,-2.0615,-2.0615,-2.0615,-2.0615,-2.0615,-2.0615,-2.0615,-2.0615,-2.0615,-2.0615,-2.0615,-2.0615,-2.0615,-2.0615,-2.0615,-2.0615,-2.0615,-2.0615,-2.0615,-2.0615,-2.0615,-2.0615,-2.0615,-2.0615,-2.0615,-2.0615,-2.0615,-2.0615,-2.0615,-2.0615,-2.0615,-2.0615,-2.0615,-2.0576,-2.0282,-1.9969,-1.9521,-1.9072,-1.8437,-1.7949,-1.7828,-1.7691,-1.7529,-1.727,-1.7028,-1.6786,-1.6568,-1.6368,-1.6096,-1.5885,-1.5674,-1.5461,-1.5284,-1.5141,-1.4999,-1.4963,-1.4848,-1.474,-1.4713,-1.4713,-1.4677,-1.4605,-1.4605,-1.4605,-2.4282,-2.4507,-2.4507,-2.4507,-2.4507,-2.4507,-2.4507,-2.4507,-2.4507,-2.4507,-2.4507,-2.4507,-2.4507,-2.4507,-2.4507,-2.4507,-2.4507,-2.4507,-2.4507,-2.4507,-2.4507,-2.4507,-2.4507,-2.4507,-2.4507,-2.4507,-2.4507,-2.4411,-2.4411,-2.4411,-2.4454,-2.4325,-2.4325,-2.4196,-2.398,-2.3851,-2.3721,-2.3428,-2.2939,-2.2301,-2.165,-2.1182,-2.082,-2.0586,-2.0615,-2.0615,-2.0615,-2.0615,-2.0615,-2.0615,-2.0615,-2.0615,-2.0615,-2.0615,-2.0615,-2.0615,-2.0615,-2.0615,-2.0615,-2.0615,-2.0615,-2.0615,-2.0615,-2.0615,-2.0615,-2.0615,-2.0615,-2.0615,-2.0615,-2.0615,-2.0615,-2.0615,-2.0615,-2.0615,-2.0615,-2.0615,-2.0615,-2.0615,-2.0615,-2.0615,-2.0615,-2.0615,-2.0566,-2.0566,-2.0537,-2.0371,-1.9922,-1.9368,-1.8948,-1.8486,-1.8061,-1.775,-1.7588,-1.7461,-1.7166,-1.6915,-1.6647,-1.6438,-1.6263,-1.6026,-1.5744,-1.5497,-1.5319,-1.5106,-1.4892,-1.4784,-1.4748,-1.4713,-1.4633,-1.4641,-1.4605,-1.4605,-1.4605,-1.4605,-1.4605,-2.398,-2.4325,-2.4411,-2.4454,-2.4507,-2.4507,-2.4507,-2.4507,-2.4507,-2.4507,-2.4507,-2.4507,-2.4507,-2.4507,-2.4507,-2.4507,-2.4507,-2.4507,-2.4507,-2.4507,-2.4507,-2.4507,-2.4497,-2.4454,-2.4421,-2.4411,-2.4282,-2.4196,-2.4196,-2.4196,-2.4196,-2.412,-2.411,-2.398,-2.3754,-2.3634,-2.3503,-2.3323,-2.281,-2.2295,-2.1846,-2.1385,-2.0996,-2.0713,-2.0615,-2.0615,-2.0615,-2.0615,-2.0615,-2.0615,-2.0615,-2.0615,-2.0615,-2.0615,-2.0615,-2.0615,-2.0615,-2.0615,-2.0615,-2.0615,-2.0615,-2.0615,-2.0615,-2.0615,-2.0615,-2.0615,-2.0615,-2.0615,-2.0615,-2.0615,-2.0615,-2.0615,-2.0615,-2.0615,-2.0615,-2.0615,-2.0615,-2.0615,-2.0615,-2.0615,-2.0615,-2.0615,-2.0566,-2.0527,-2.0479,-2.0439,-1.9971,-1.9253,-1.8712,-1.8265,-1.7962,-1.7579,-1.7476,-1.7279,-1.6959,-1.6716,-1.6473,-1.6307,-1.6132,-1.5921,-1.5638,-1.539,-1.5204,-1.4963,-1.4756,-1.4677,-1.4641,-1.4605,-1.4605,-1.4605,-1.4605,-1.4605,-1.4605,-1.4605,-1.4605,-2.3624,-2.3884,-2.411,-2.4292,-2.4464,-2.4507,-2.4497,-2.4454,-2.4507,-2.4507,-2.4507,-2.4507,-2.4507,-2.4507,-2.4507,-2.4507,-2.4507,-2.4507,-2.4507,-2.4507,-2.4507,-2.4454,-2.4368,-2.4282,-2.4206,-2.4206,-2.4067,-2.3927,-2.3851,-2.3894,-2.3884,-2.3797,-2.3841,-2.3721,-2.3537,-2.345,-2.3319,-2.3153,-2.2773,-2.2344,-2.1914,-2.1484,-2.1055,-2.0684,-2.0615,-2.0615,-2.0615,-2.0615,-2.0615,-2.0615,-2.0615,-2.0615,-2.0615,-2.0615,-2.0615,-2.0615,-2.0615,-2.0615,-2.0615,-2.0615,-2.0615,-2.0615,-2.0615,-2.0615,-2.0615,-2.0615,-2.0615,-2.0615,-2.0615,-2.0615,-2.0615,-2.0615,-2.0615,-2.0615,-2.0615,-2.0615,-2.0615,-2.0615,-2.0615,-2.0615,-2.0615,-2.0576,-2.0489,-2.045,-2.045,-2.0411,-1.9599,-1.8879,-1.8203,-1.7757,-1.758,-1.7339,-1.7304,-1.7097,-1.6716,-1.6508,-1.6342,-1.6167,-1.5964,-1.5744,-1.5532,-1.5319,-1.507,-1.4892,-1.4721,-1.4641,-1.4605,-1.4605,-1.4605,-1.4605,-1.4605,-1.4605,-1.4605,-1.4605,-1.4605,-2.3188,-2.3396,-2.3667,-2.3894,-2.4067,-2.4249,-2.4335,-2.4325,-2.4464,-2.4507,-2.4497,-2.4507,-2.4507,-2.4507,-2.4507,-2.4507,-2.4507,-2.4507,-2.4421,-2.4335,-2.4292,-2.4239,-2.411,-2.4024,-2.3937,-2.3937,-2.3841,-2.3711,-2.3624,-2.3624,-2.3493,-2.345,-2.3537,-2.345,-2.3319,-2.3276,-2.3178,-2.3105,-2.2886,-2.2598,-2.1963,-2.1728,-2.1299,-2.0664,-2.0615,-2.0615,-2.0615,-2.0615,-2.0615,-2.0615,-2.0615,-2.0615,-2.0615,-2.0615,-2.0615,-2.0615,-2.0615,-2.0615,-2.0615,-2.0615,-2.0615,-2.0615,-2.0615,-2.0615,-2.0615,-2.0615,-2.0615,-2.0615,-2.0615,-2.0615,-2.0615,-2.0615,-2.0615,-2.0615,-2.0615,-2.0615,-2.0615,-2.0615,-2.0615,-2.0615,-2.0566,-2.0566,-2.045,-2.0333,-2.0372,-2.0304,-1.9409,-1.8518,-1.7858,-1.7392,-1.7289,-1.721,-1.7132,-1.6959,-1.6612,-1.6403,-1.6237,-1.6035,-1.5823,-1.5603,-1.539,-1.515,-1.4935,-1.4792,-1.4677,-1.4641,-1.4605,-1.4605,-1.4605,-1.4605,-1.4605,-1.4605,-1.4605,-1.4605,-1.4605,-2.275,-2.2916,-2.3198,-2.3493,-2.3797,-2.398,-2.4077,-2.411,-2.4196,-2.4282,-2.4272,-2.4282,-2.4282,-2.4282,-2.4282,-2.4282,-2.4239,-2.4239,-2.4196,-2.411,-2.4067,-2.397,-2.3851,-2.3764,-2.3721,-2.3711,-2.3614,-2.3493,-2.3406,-2.3363,-2.3276,-2.3232,-2.3276,-2.3232,-2.3178,-2.3101,-2.3101,-2.3101,-2.3033,-2.2715,-2.2002,-2.1846,-2.1435,-2.0752,-2.0615,-2.0615,-2.0615,-2.0615,-2.0615,-2.0615,-2.0615,-2.0615,-2.0615,-2.0615,-2.0615,-2.0615,-2.0615,-2.0615,-2.0615,-2.0615,-2.0615,-2.0615,-2.0615,-2.0615,-2.0615,-2.0615,-2.0615,-2.0615,-2.0615,-2.0615,-2.0615,-2.0615,-2.0615,-2.0615,-2.0615,-2.0615,-2.0615,-2.0615,-2.0615,-2.0615,-2.0537,-2.0459,-2.0294,-2.009,-1.9706,-1.9669,-1.9108,-1.8225,-1.749,-1.7185,-1.7185,-1.7072,-1.6994,-1.6786,-1.6577,-1.6377,-1.614,-1.5929,-1.5718,-1.5497,-1.5284,-1.5007,-1.4828,-1.4677,-1.4605,-1.4605,-1.4605,-1.4605,-1.4605,-1.4605,-1.4605,-1.4605,-1.4605,-1.4605,-1.4605,-2.2369,-2.2441,-2.2706,-2.3188,-2.3667,-2.3787,-2.3797,-2.3841,-2.3884,-2.3884,-2.3884,-2.3884,-2.3884,-2.3884,-2.3927,-2.3927,-2.3927,-2.3884,-2.3841,-2.3841,-2.3841,-2.3797,-2.3711,-2.359,-2.3493,-2.346,-2.3363,-2.3232,-2.3144,-2.3188,-2.3144,-2.3101,-2.3144,-2.3144,-2.3101,-2.3101,-2.3101,-2.3101,-2.3101,-2.2646,-2.207,-2.1926,-2.1437,-2.082,-2.0615,-2.0615,-2.0615,-2.0615,-2.0615,-2.0615,-2.0615,-2.0615,-2.0615,-2.0615,-2.0615,-2.0615,-2.0615,-2.0615,-2.0615,-2.0615,-2.0615,-2.0615,-2.0615,-2.0615,-2.0615,-2.0615,-2.0615,-2.0615,-2.0615,-2.0615,-2.0615,-2.0615,-2.0615,-2.0615,-2.0615,-2.0615,-2.0615,-2.0615,-2.0615,-2.0537,-2.042,-2.0264,-2.0098,-1.9828,-1.9182,-1.8825,-1.8536,-1.7951,-1.7206,-1.6908,-1.6874,-1.683,-1.6751,-1.6577,-1.6368,-1.6237,-1.607,-1.5859,-1.5611,-1.539,-1.5177,-1.4971,-1.4792,-1.4641,-1.4605,-1.4605,-1.4605,-1.4605,-1.4605,-1.4605,-1.4605,-1.4605,-1.4605,-1.4605,-1.4605,-2.1415,-2.1661,-2.2108,-2.2539,-2.2916,-2.3406,-2.359,-2.3624,-2.3711,-2.3797,-2.3797,-2.3797,-2.3797,-2.3797,-2.3797,-2.3754,-2.3754,-2.3797,-2.3754,-2.358,-2.358,-2.345,-2.3363,-2.3319,-2.3222,-2.3232,-2.3144,-2.3101,-2.3101,-2.3101,-2.3101,-2.3101,-2.3101,-2.3101,-2.3101,-2.3101,-2.3101,-2.3101,-2.3023,-2.2754,-2.2012,-2.1846,-2.1515,-2.0674,-2.0615,-2.0615,-2.0615,-2.0615,-2.0615,-2.0615,-2.0615,-2.0615,-2.0615,-2.0615,-2.0615,-2.0615,-2.0615,-2.0615,-2.0615,-2.0615,-2.0615,-2.0615,-2.0615,-2.0615,-2.0615,-2.0615,-2.0615,-2.0615,-2.0615,-2.0615,-2.0615,-2.0615,-2.0615,-2.0615,-2.0615,-2.0615,-2.0615,-2.0615,-2.0576,-2.042,-2.0303,-2.0029,-1.9833,-1.9478,-1.8883,-1.8346,-1.8081,-1.7588,-1.6871,-1.6622,-1.6491,-1.6482,-1.6447,-1.6342,-1.6202,-1.6105,-1.5929,-1.5682,-1.547,-1.5213,-1.5034,-1.4864,-1.4748,-1.4605,-1.4605,-1.4605,-1.4605,-1.4605,-1.4605,-1.4605,-1.4605,-1.4605,-1.4605,-1.4605,-1.4605,-2.0696,-2.1032,-2.1464,-2.1834,-2.2255,-2.2838,-2.3188,-2.3276,-2.345,-2.358,-2.3537,-2.3537,-2.3537,-2.3537,-2.358,-2.3537,-2.3537,-2.3527,-2.3537,-2.3363,-2.3363,-2.3276,-2.3144,-2.3101,-2.3144,-2.3101,-2.3101,-2.3101,-2.3101,-2.3101,-2.3101,-2.3101,-2.3101,-2.3101,-2.3101,-2.3101,-2.3101,-2.3101,-2.3023,-2.2691,-2.2139,-2.1777,-2.1455,-2.0869,-2.0615,-2.0615,-2.0615,-2.0615,-2.0615,-2.0615,-2.0615,-2.0615,-2.0615,-2.0615,-2.0615,-2.0615,-2.0615,-2.0615,-2.0615,-2.0615,-2.0615,-2.0615,-2.0615,-2.0615,-2.0615,-2.0615,-2.0615,-2.0615,-2.0615,-2.0615,-2.0615,-2.0615,-2.0615,-2.0615,-2.0615,-2.0615,-2.0566,-2.0566,-2.0459,-2.0342,-2.0029,-1.9794,-1.949,-1.9072,-1.8593,-1.8116,-1.7607,-1.708,-1.6634,-1.6404,-1.6246,-1.6237,-1.6237,-1.6167,-1.6096,-1.6035,-1.5823,-1.5541,-1.5319,-1.5098,-1.4963,-1.4792,-1.4677,-1.4605,-1.4605,-1.4605,-1.4605,-1.4605,-1.4605,-1.4605,-1.4605,-1.4605,-1.4605,-1.4569,-1.4569,-2.0091,-2.0472,-2.0674,-2.1118,-2.1667,-2.2157,-2.253,-2.2803,-2.3003,-2.3091,-2.3091,-2.3091,-2.3188,-2.3144,-2.3144,-2.3188,-2.3178,-2.3178,-2.3178,-2.3144,-2.3188,-2.3101,-2.3101,-2.3101,-2.3101,-2.3101,-2.3101,-2.3101,-2.3101,-2.3101,-2.3101,-2.3101,-2.3101,-2.3101,-2.3101,-2.3101,-2.3101,-2.3101,-2.3052,-2.2613,-2.207,-2.1865,-2.1427,-2.0899,-2.0615,-2.0615,-2.0615,-2.0615,-2.0615,-2.0615,-2.0615,-2.0615,-2.0615,-2.0615,-2.0615,-2.0615,-2.0615,-2.0615,-2.0615,-2.0615,-2.0615,-2.0615,-2.0615,-2.0615,-2.0615,-2.0615,-2.0615,-2.0615,-2.0615,-2.0615,-2.0615,-2.0615,-2.0615,-2.0615,-2.0615,-2.0576,-2.0566,-2.0498,-2.0342,-2.0108,-1.9754,-1.9478,-1.9173,-1.8755,-1.8264,-1.7752,-1.7222,-1.6744,-1.6342,-1.629,-1.614,-1.614,-1.6096,-1.6061,-1.5991,-1.5859,-1.5611,-1.5328,-1.5248,-1.5026,-1.4892,-1.4748,-1.4641,-1.4605,-1.4605,-1.4605,-1.4605,-1.4605,-1.4605,-1.4605,-1.4605,-1.4605,-1.4605,-1.4569,-1.4533,-1.9173,-1.9481,-1.977,-2.0234,-2.0889,-2.1444,-2.2008,-2.2485,-2.2564,-2.2706,-2.2891,-2.2882,-2.2925,-2.3101,-2.3101,-2.3101,-2.3101,-2.3101,-2.3101,-2.3101,-2.3101,-2.3101,-2.3101,-2.3101,-2.3101,-2.3101,-2.3101,-2.3101,-2.3101,-2.3101,-2.3101,-2.3101,-2.3101,-2.3101,-2.3101,-2.3101,-2.3101,-2.3071,-2.3071,-2.2598,-2.209,-2.1855,-2.1339,-2.085,-2.0615,-2.0615,-2.0615,-2.0615,-2.0615,-2.0615,-2.0615,-2.0615,-2.0615,-2.0615,-2.0615,-2.0615,-2.0615,-2.0615,-2.0615,-2.0615,-2.0615,-2.0615,-2.0615,-2.0615,-2.0615,-2.0615,-2.0615,-2.0615,-2.0615,-2.0615,-2.0615,-2.0615,-2.0615,-2.0615,-2.0605,-2.0566,-2.0527,-2.0372,-2.0225,-1.9833,-1.9478,-1.9201,-1.8935,-1.843,-1.7956,-1.7369,-1.6839,-1.6383,-1.6011,-1.5963,-1.5929,-1.5894,-1.5894,-1.5815,-1.5709,-1.5603,-1.5363,-1.515,-1.507,-1.4963,-1.4784,-1.4641,-1.4605,-1.4605,-1.4605,-1.4605,-1.4605,-1.4605,-1.4605,-1.4605,-1.4605,-1.4605,-1.4569,-1.4533,-1.4425,-1.8344,-1.8723,-1.8929,-1.9461,-2.0157,-2.0766,-2.1281,-2.1697,-2.2066,-2.2397,-2.2618,-2.2671,-2.2706,-2.2794,-2.2925,-2.2969,-2.2969,-2.3057,-2.3101,-2.3101,-2.3101,-2.3101,-2.3101,-2.3101,-2.3101,-2.3101,-2.3101,-2.3101,-2.3101,-2.3101,-2.3101,-2.3101,-2.3101,-2.3101,-2.3101,-2.3101,-2.3101,-2.3023,-2.29,-2.249,-2.2109,-2.1719,-2.1162,-2.0781,-2.0625,-2.0615,-2.0615,-2.0615,-2.0615,-2.0615,-2.0615,-2.0615,-2.0615,-2.0615,-2.0615,-2.0615,-2.0615,-2.0615,-2.0615,-2.0615,-2.0615,-2.0615,-2.0615,-2.0615,-2.0615,-2.0615,-2.0615,-2.0615,-2.0615,-2.0615,-2.0615,-2.0615,-2.0615,-2.0615,-2.0566,-2.0566,-2.0411,-2.0255,-1.9942,-1.9548,-1.9231,-1.8962,-1.8585,-1.8131,-1.7627,-1.7043,-1.6563,-1.6139,-1.5746,-1.5539,-1.5524,-1.5524,-1.5532,-1.5497,-1.5426,-1.5355,-1.5213,-1.5043,-1.4971,-1.4864,-1.4641,-1.4605,-1.4605,-1.4605,-1.4605,-1.4605,-1.4605,-1.4605,-1.4605,-1.4569,-1.4533,-1.4497,-1.4497,-1.4461,-1.4353,-1.7754,-1.8221,-1.8305,-1.8768,-1.9444,-2.0096,-2.0403,-2.0535,-2.1449,-2.2104,-2.229,-2.2309,-2.2353,-2.252,-2.2652,-2.275,-2.2794,-2.2925,-2.3013,-2.3101,-2.3101,-2.3101,-2.3057,-2.3057,-2.2969,-2.3013,-2.3013,-2.2925,-2.3057,-2.3101,-2.3101,-2.3101,-2.3101,-2.3101,-2.3101,-2.3101,-2.3081,-2.3033,-2.2695,-2.2236,-2.1894,-2.1475,-2.1025,-2.0703,-2.0615,-2.0615,-2.0615,-2.0615,-2.0615,-2.0615,-2.0615,-2.0615,-2.0615,-2.0615,-2.0615,-2.0615,-2.0615,-2.0615,-2.0615,-2.0615,-2.0615,-2.0615,-2.0615,-2.0615,-2.0615,-2.0615,-2.0615,-2.0615,-2.0615,-2.0615,-2.0615,-2.0615,-2.0615,-2.0566,-2.0527,-2.0489,-2.0372,-2.0059,-1.9627,-1.9271,-1.8873,-1.8643,-1.8385,-1.7949,-1.7482,-1.6837,-1.6355,-1.5922,-1.5556,-1.5303,-1.524,-1.524,-1.5311,-1.5319,-1.5213,-1.5141,-1.507,-1.4935,-1.4864,-1.4792,-1.4641,-1.4605,-1.4605,-1.4605,-1.4605,-1.4605,-1.4605,-1.4605,-1.4569,-1.4533,-1.4497,-1.4397,-1.4361,-1.4325,-1.4217,-1.7482,-1.7672,-1.8112,-1.8414,-1.8659,-1.9281,-1.9609,-1.9764,-2.0316,-2.1085,-2.1739,-2.19,-2.2043,-2.2309,-2.2432,-2.2485,-2.2574,-2.275,-2.2838,-2.2925,-2.2969,-2.2925,-2.2891,-2.2838,-2.275,-2.2618,-2.2574,-2.2706,-2.2838,-2.2969,-2.3101,-2.3101,-2.3057,-2.3013,-2.3003,-2.3003,-2.2984,-2.2887,-2.2357,-2.1967,-2.1746,-2.1395,-2.0995,-2.0723,-2.0615,-2.0615,-2.0615,-2.0615,-2.0615,-2.0615,-2.0615,-2.0615,-2.0615,-2.0615,-2.0615,-2.0615,-2.0615,-2.0615,-2.0615,-2.0615,-2.0615,-2.0615,-2.0615,-2.0615,-2.0615,-2.0615,-2.0615,-2.0576,-2.0615,-2.0615,-2.0576,-2.0576,-2.0566,-2.0489,-2.045,-2.0333,-2.0264,-1.9824,-1.935,-1.8913,-1.8523,-1.8282,-1.808,-1.7736,-1.7311,-1.6853,-1.6335,-1.5886,-1.5475,-1.5166,-1.5051,-1.5062,-1.5169,-1.5177,-1.5034,-1.4963,-1.4892,-1.4784,-1.4713,-1.4641,-1.4605,-1.4605,-1.4605,-1.4605,-1.4605,-1.4605,-1.4605,-1.4605,-1.4569,-1.4497,-1.4361,-1.4253,-1.408,-1.3971,-1.3935,-1.7147,-1.7335,-1.773,-1.7904,-1.8012,-1.8558,-1.8871,-1.9024,-1.9497,-2.0079,-2.0782,-2.1282,-2.1741,-2.1998,-2.2132,-2.2264,-2.2309,-2.253,-2.2574,-2.2662,-2.2706,-2.2706,-2.2662,-2.2618,-2.2574,-2.2397,-2.2397,-2.253,-2.2618,-2.2706,-2.2794,-2.2794,-2.2838,-2.2828,-2.2784,-2.2784,-2.2741,-2.2486,-2.1884,-2.1578,-2.1407,-2.1061,-2.0879,-2.0635,-2.0615,-2.0605,-2.0615,-2.0615,-2.0615,-2.0615,-2.0615,-2.0615,-2.0615,-2.0615,-2.0615,-2.0615,-2.0615,-2.0615,-2.0566,-2.0566,-2.0566,-2.0566,-2.0498,-2.0459,-2.0381,-2.0381,-2.045,-2.045,-2.0576,-2.0615,-2.0459,-2.042,-2.0294,-2.0216,-2.0137,-2.002,-1.9784,-1.9429,-1.8953,-1.8474,-1.8152,-1.8,-1.7797,-1.7505,-1.7097,-1.6705,-1.6184,-1.5785,-1.5386,-1.5005,-1.4908,-1.4883,-1.4991,-1.4955,-1.482,-1.4748,-1.4713,-1.4641,-1.4605,-1.4605,-1.4605,-1.4605,-1.4605,-1.4605,-1.4605,-1.4605,-1.4605,-1.4569,-1.4497,-1.4461,-1.4253,-1.4044,-1.387,-1.3725,-1.3681,-1.6853,-1.7057,-1.727,-1.7351,-1.7433,-1.7929,-1.8204,-1.8347,-1.8846,-1.9178,-1.9581,-2.0624,-2.1123,-2.1445,-2.1794,-2.1919,-2.2097,-2.2264,-2.2353,-2.2397,-2.2432,-2.2441,-2.2397,-2.2362,-2.2309,-2.2309,-2.2309,-2.2309,-2.2397,-2.2441,-2.2485,-2.2397,-2.2397,-2.2397,-2.2397,-2.2394,-2.2343,-2.1997,-2.1503,-2.1075,-2.0788,-2.0525,-2.0488,-2.0498,-2.0566,-2.0566,-2.0566,-2.0576,-2.0576,-2.0615,-2.0615,-2.0615,-2.0576,-2.0537,-2.0527,-2.0527,-2.0411,-2.0411,-2.045,-2.0411,-2.045,-2.045,-2.0342,-2.0225,-2.0186,-2.0177,-2.0216,-2.0294,-2.0411,-2.042,-2.0303,-2.0225,-2.0059,-1.9932,-1.9824,-1.9666,-1.939,-1.9042,-1.8554,-1.8031,-1.787,-1.7708,-1.7465,-1.7221,-1.6895,-1.6508,-1.6092,-1.5687,-1.5322,-1.4979,-1.4753,-1.4705,-1.474,-1.4677,-1.4605,-1.4605,-1.4633,-1.4605,-1.4605,-1.4605,-1.4605,-1.4605,-1.4605,-1.4605,-1.4605,-1.4569,-1.4533,-1.4461,-1.4425,-1.4317,-1.4145,-1.3899,-1.3754,-1.3608,-1.3564,-1.6738,-1.6771,-1.7057,-1.718,-1.7196,-1.7474,-1.7654,-1.7876,-1.8254,-1.8582,-1.8937,-1.9478,-2.0087,-2.0703,-2.1275,-2.1507,-2.1459,-2.1799,-2.2078,-2.2141,-2.2157,-2.2167,-2.2132,-2.1998,-2.1998,-2.1954,-2.1998,-2.2132,-2.1998,-2.2211,-2.2344,-2.2299,-2.2309,-2.2353,-2.2344,-2.2268,-2.1992,-2.1526,-2.1165,-2.0784,-2.0457,-2.0246,-2.0077,-2.0108,-2.0255,-2.0303,-2.0381,-2.0527,-2.0566,-2.0615,-2.0566,-2.0527,-2.0498,-2.042,-2.0372,-2.0294,-2.0216,-2.0137,-2.0137,-2.0137,-2.0177,-2.0137,-2.0029,-1.999,-1.9942,-1.9902,-1.9902,-1.9902,-1.9981,-2.002,-1.9951,-1.999,-1.9863,-1.9745,-1.9627,-1.9311,-1.9033,-1.8594,-1.8161,-1.7789,-1.7538,-1.7375,-1.7221,-1.6976,-1.6845,-1.6429,-1.6054,-1.5666,-1.5491,-1.5094,-1.4605,-1.4605,-1.4605,-1.4605,-1.4605,-1.4605,-1.4605,-1.4605,-1.4605,-1.4605,-1.4605,-1.4605,-1.4605,-1.4605,-1.4569,-1.4533,-1.4497,-1.4361,-1.4181,-1.4072,-1.3935,-1.379,-1.3645,-1.3572,-1.3492]}]]